Darstellungsparameter: Aktuell verwendete Einstellungen:
Skalierung der Graphiken ... ?
xyx+y,   Skalierungsfaktor:      Skalierung: Modus: x, Faktor: 1
Darstellungszeitraum ... ?
Vom - - bis: - -   Zeitraum: 17.12.2019 - 14.01.2020
Min/Max/Avg-Anzeige ... ?
Zeige MMA aktuell
Zeige MMA Monat
Zeige MMA alles
Zeige --A aktuell
Zeige --A Monat
Zeige --A alles
Keine MMA-Anzeige
MMA:
Minimum Maximum Average (ber die Originaldaten)
MMA-Basis: 17.12.2019 - 14.01.2020
Quicknavigation für Darstellung... ?
Tage:      1T, 2T, 3T, 5T -1T -2T -3T -5T +1T +2T +3T +5T
Wochen: 1W, 2W, 3W -1W -2W -3W +1W +2W +3W
Monate: 1M, 3M, 6M -1M -3M -6M +1M +3M +6M
Jahre:    1J, 3J, 5J, 10J -1J -3J -5J -10J +1J +3J +5J +10J
Nutze für die Darstellung ... ?
Originaldaten oder Mittelwerte auf ...
Stundenbasis Tagesbasis Wochenbasis
Monatsbasis Jahresbasis      Datenbasis: Original-Daten
Darstellen als:
Statistik (Auto) Statistik J:M      Darstellung:
Zur Graphik,    zurück zur Übersicht aller Sensoren.
 
Tabellarische Datenbersicht: ?
 
Sensor: Nr:Datum:Temp:Feuchte:
Aussen-T/F 1 17-12-2019 00:02:17 7.6 C 37 %
2 17-12-2019 00:12:17 7.5 C 38 %
3 17-12-2019 00:22:17 7.6 C 38 %
4 17-12-2019 00:32:18 7.3 C 39 %
5 17-12-2019 00:42:18 7.2 C 40 %
6 17-12-2019 00:52:17 7.4 C 39 %
7 17-12-2019 01:02:17 7.2 C 39 %
8 17-12-2019 01:12:17 7.4 C 40 %
9 17-12-2019 01:22:17 7.8 C 39 %
10 17-12-2019 01:32:17 7.3 C 37 %
11 17-12-2019 01:42:17 7.4 C 38 %
12 17-12-2019 01:52:17 7.4 C 37 %
13 17-12-2019 02:02:18 7.4 C 37 %
14 17-12-2019 02:12:18 7.6 C 37 %
15 17-12-2019 02:22:17 7.3 C 37 %
16 17-12-2019 02:32:17 7.1 C 37 %
17 17-12-2019 02:42:17 7.5 C 36 %
18 17-12-2019 02:52:18 7.6 C 36 %
19 17-12-2019 03:02:17 8 C 35 %
20 17-12-2019 03:12:17 8.1 C 35 %
21 17-12-2019 03:22:17 8.4 C 35 %
22 17-12-2019 03:32:17 8.8 C 32 %
23 17-12-2019 03:42:17 8.9 C 32 %
24 17-12-2019 03:52:18 8.8 C 32 %
25 17-12-2019 04:02:17 8.5 C 32 %
Sensor: Nr:Datum:Temp:Feuchte:
Aussen-T/F 26 17-12-2019 04:12:17 8.5 C 32 %
27 17-12-2019 04:22:17 8.4 C 32 %
28 17-12-2019 04:32:17 8.4 C 32 %
29 17-12-2019 04:42:17 8 C 32 %
30 17-12-2019 04:52:18 8.3 C 33 %
31 17-12-2019 05:02:17 8.5 C 33 %
32 17-12-2019 05:12:17 8.5 C 33 %
33 17-12-2019 05:22:17 8.2 C 33 %
34 17-12-2019 05:32:17 8.1 C 34 %
35 17-12-2019 05:42:17 7.9 C 35 %
36 17-12-2019 05:52:17 7.9 C 36 %
37 17-12-2019 06:02:17 7.8 C 36 %
38 17-12-2019 06:12:17 7.3 C 36 %
39 17-12-2019 06:22:18 7.3 C 38 %
40 17-12-2019 06:32:17 7.5 C 38 %
41 17-12-2019 06:42:17 7.6 C 36 %
42 17-12-2019 06:52:17 7.6 C 38 %
43 17-12-2019 07:02:17 7.7 C 36 %
44 17-12-2019 07:12:17 7.6 C 37 %
45 17-12-2019 07:22:17 7.5 C 36 %
46 17-12-2019 07:32:18 7 C 37 %
47 17-12-2019 07:42:18 7.4 C 38 %
48 17-12-2019 07:52:17 7.2 C 36 %
49 17-12-2019 08:02:17 7.2 C 36 %
50 17-12-2019 08:12:17 6.9 C 37 %
Sensor: Nr:Datum:Temp:Feuchte:
Aussen-T/F 51 17-12-2019 08:22:17 6.9 C 38 %
52 17-12-2019 08:32:17 7 C 38 %
53 17-12-2019 08:42:18 6.9 C 37 %
54 17-12-2019 08:52:17 6.9 C 37 %
55 17-12-2019 09:02:17 6.5 C 38 %
56 17-12-2019 09:12:17 6.4 C 39 %
57 17-12-2019 09:22:18 6.5 C 40 %
58 17-12-2019 09:32:17 6.4 C 40 %
59 17-12-2019 09:42:17 6.6 C 40 %
60 17-12-2019 09:52:17 6.3 C 39 %
61 17-12-2019 10:02:18 6.4 C 40 %
62 17-12-2019 10:12:18 6.4 C 40 %
63 17-12-2019 10:22:17 6.4 C 39 %
64 17-12-2019 10:32:17 6.8 C 40 %
65 17-12-2019 10:42:17 7.2 C 37 %
66 17-12-2019 10:52:17 8 C 36 %
67 17-12-2019 11:02:17 8.6 C 34 %
68 17-12-2019 11:12:17 8.5 C 32 %
69 17-12-2019 11:22:17 8.7 C 32 %
70 17-12-2019 11:32:17 9 C 32 %
71 17-12-2019 11:42:17 9.1 C 32 %
72 17-12-2019 11:52:17 9 C 32 %
73 17-12-2019 12:02:17 9 C 34 %
74 17-12-2019 12:12:17 9.2 C 34 %
75 17-12-2019 12:22:17 9.5 C 33 %
Sensor: Nr:Datum:Temp:Feuchte:
Aussen-T/F 76 17-12-2019 12:32:17 9.7 C 32 %
77 17-12-2019 12:42:17 9.8 C 32 %
78 17-12-2019 12:52:17 9.6 C 32 %
79 17-12-2019 13:02:17 10.1 C 31 %
80 17-12-2019 13:12:17 10.4 C 30 %
81 17-12-2019 13:22:17 10.6 C 30 %
82 17-12-2019 13:32:17 11 C 29 %
83 17-12-2019 13:42:17 11.6 C 28 %
84 17-12-2019 13:52:18 12.3 C 26 %
85 17-12-2019 14:02:17 12.5 C 26 %
86 17-12-2019 14:12:17 12.4 C 26 %
87 17-12-2019 14:22:17 11.6 C 27 %
88 17-12-2019 14:32:17 11.4 C 27 %
89 17-12-2019 14:42:17 11.5 C 27 %
90 17-12-2019 14:52:17 11.8 C 27 %
91 17-12-2019 15:02:17 12 C 26 %
92 17-12-2019 15:12:17 12 C 26 %
93 17-12-2019 15:22:17 11.8 C 27 %
94 17-12-2019 15:32:17 11.8 C 27 %
95 17-12-2019 15:42:17 12.3 C 25 %
96 17-12-2019 15:52:18 12.2 C 25 %
97 17-12-2019 16:02:17 12.4 C 25 %
98 17-12-2019 16:12:17 12.4 C 25 %
99 17-12-2019 16:22:17 12.5 C 25 %
100 17-12-2019 16:32:18 12.6 C 25 %
Sensor: Nr:Datum:Temp:Feuchte:
Aussen-T/F 101 17-12-2019 16:42:18 12.2 C 25 %
102 17-12-2019 16:52:17 11.8 C 25 %
103 17-12-2019 17:02:17 11.2 C 26 %
104 17-12-2019 17:12:18 11.5 C 25 %
105 17-12-2019 17:22:17 12 C 24 %
106 17-12-2019 17:32:18 13.1 C 20 %
107 17-12-2019 17:42:18 13.4 C 20 %
108 17-12-2019 17:52:17 13.8 C 20 %
109 17-12-2019 18:02:17 13.4 C 20 %
110 17-12-2019 18:12:17 13.2 C 20 %
111 17-12-2019 18:22:17 13.6 C 20 %
112 17-12-2019 18:32:17 13.7 C 20 %
113 17-12-2019 18:42:17 13.1 C 21 %
114 17-12-2019 18:52:17 12.7 C 25 %
115 17-12-2019 19:02:17 12.8 C 25 %
116 17-12-2019 19:12:17 13.1 C 22 %
117 17-12-2019 19:22:17 12.8 C 25 %
118 17-12-2019 19:32:18 11.7 C 29 %
119 17-12-2019 19:42:18 11.6 C 29 %
120 17-12-2019 19:52:17 11.6 C 30 %
121 17-12-2019 20:02:18 11.6 C 30 %
122 17-12-2019 20:12:18 11.5 C 31 %
123 17-12-2019 20:22:17 11.6 C 31 %
124 17-12-2019 20:32:17 11.3 C 33 %
125 17-12-2019 20:42:17 11.2 C 35 %
Sensor: Nr:Datum:Temp:Feuchte:
Aussen-T/F 126 17-12-2019 20:52:17 11 C 36 %
127 17-12-2019 21:02:17 10.9 C 36 %
128 17-12-2019 21:12:17 10.5 C 38 %
129 17-12-2019 21:22:17 10.3 C 39 %
130 17-12-2019 21:32:17 10.4 C 38 %
131 17-12-2019 21:42:17 11.5 C 31 %
132 17-12-2019 21:52:17 11.3 C 31 %
133 17-12-2019 22:02:17 13 C 25 %
134 17-12-2019 22:12:17 12.5 C 26 %
135 17-12-2019 22:22:17 13.1 C 25 %
136 17-12-2019 22:32:17 13.4 C 25 %
137 17-12-2019 22:42:17 13.2 C 25 %
138 17-12-2019 22:52:17 13.1 C 25 %
139 17-12-2019 23:02:17 12.4 C 26 %
140 17-12-2019 23:12:17 11.9 C 29 %
141 17-12-2019 23:22:17 11.3 C 30 %
142 17-12-2019 23:32:17 11.1 C 31 %
143 17-12-2019 23:42:17 11 C 30 %
144 17-12-2019 23:52:17 10.8 C 33 %
145 18-12-2019 00:02:17 10.4 C 35 %
146 18-12-2019 00:12:17 10.4 C 34 %
147 18-12-2019 00:22:17 10.5 C 34 %
148 18-12-2019 00:32:18 10.9 C 31 %
149 18-12-2019 00:42:18 11 C 30 %
150 18-12-2019 00:52:17 11 C 30 %
Sensor: Nr:Datum:Temp:Feuchte:
Aussen-T/F 151 18-12-2019 01:02:17 10.8 C 30 %
152 18-12-2019 01:12:17 11 C 29 %
153 18-12-2019 01:22:17 11.1 C 29 %
154 18-12-2019 01:32:18 10.9 C 30 %
155 18-12-2019 01:42:18 10.4 C 30 %
156 18-12-2019 01:52:17 10.8 C 30 %
157 18-12-2019 02:02:17 11.1 C 30 %
158 18-12-2019 02:12:17 11.1 C 29 %
159 18-12-2019 02:22:17 11.2 C 30 %
160 18-12-2019 02:32:17 11.3 C 29 %
161 18-12-2019 02:42:18 10.9 C 30 %
162 18-12-2019 02:52:17 10.9 C 31 %
163 18-12-2019 03:02:17 10.6 C 33 %
164 18-12-2019 03:12:17 10.3 C 35 %
165 18-12-2019 03:22:18 10.3 C 37 %
166 18-12-2019 03:32:17 10.1 C 37 %
167 18-12-2019 03:42:17 10 C 38 %
168 18-12-2019 03:52:18 10.1 C 38 %
169 18-12-2019 04:02:18 10 C 38 %
170 18-12-2019 04:12:18 9.9 C 38 %
171 18-12-2019 04:22:17 9.8 C 35 %
172 18-12-2019 04:32:18 9.6 C 34 %
173 18-12-2019 04:42:18 9.5 C 33 %
174 18-12-2019 04:52:17 9.3 C 33 %
175 18-12-2019 05:02:18 9.2 C 33 %
Sensor: Nr:Datum:Temp:Feuchte:
Aussen-T/F 176 18-12-2019 05:12:18 9.1 C 33 %
177 18-12-2019 05:22:17 8.8 C 35 %
178 18-12-2019 05:32:17 8.7 C 36 %
179 18-12-2019 05:42:17 8.2 C 36 %
180 18-12-2019 05:52:17 8.2 C 39 %
181 18-12-2019 06:02:18 8.1 C 39 %
182 18-12-2019 06:12:18 8 C 37 %
183 18-12-2019 06:22:17 8 C 37 %
184 18-12-2019 06:32:18 7.9 C 37 %
185 18-12-2019 06:42:18 7.5 C 37 %
186 18-12-2019 06:52:17 7.4 C 39 %
187 18-12-2019 07:02:17 7.2 C 40 %
188 18-12-2019 07:12:17 7.3 C 40 %
189 18-12-2019 07:22:17 7.3 C 40 %
190 18-12-2019 07:32:17 7.1 C 39 %
191 18-12-2019 07:42:17 6.8 C 40 %
192 18-12-2019 07:52:17 6.9 C 41 %
193 18-12-2019 08:02:17 6.7 C 41 %
194 18-12-2019 08:12:17 6.5 C 41 %
195 18-12-2019 08:22:17 6.5 C 41 %
196 18-12-2019 08:32:17 6.3 C 41 %
197 18-12-2019 08:42:17 6.4 C 42 %
198 18-12-2019 08:52:17 6.6 C 42 %
199 18-12-2019 09:02:17 6.5 C 41 %
200 18-12-2019 09:12:17 6.1 C 40 %
Sensor: Nr:Datum:Temp:Feuchte:
Aussen-T/F 201 18-12-2019 09:22:17 6 C 41 %
202 18-12-2019 09:32:17 6.5 C 42 %
203 18-12-2019 09:42:17 6.7 C 42 %
204 18-12-2019 09:52:17 6.9 C 41 %
205 18-12-2019 10:02:17 7 C 40 %
206 18-12-2019 10:12:18 7.1 C 40 %
207 18-12-2019 10:22:17 7.5 C 38 %
208 18-12-2019 10:32:17 7.5 C 36 %
209 18-12-2019 10:42:17 7.4 C 36 %
210 18-12-2019 10:52:17 6.9 C 38 %
211 18-12-2019 11:02:17 6.8 C 38 %
212 18-12-2019 11:12:17 6.8 C 38 %
213 18-12-2019 11:22:17 6.6 C 38 %
214 18-12-2019 11:32:18 6.7 C 39 %
215 18-12-2019 11:42:18 6.9 C 38 %
216 18-12-2019 11:52:17 7.6 C 35 %
217 18-12-2019 12:02:17 8.1 C 33 %
218 18-12-2019 12:12:17 8 C 32 %
219 18-12-2019 12:22:17 8.3 C 31 %
220 18-12-2019 12:32:17 8.6 C 30 %
221 18-12-2019 12:42:17 8.8 C 29 %
222 18-12-2019 12:52:17 8.7 C 29 %
223 18-12-2019 13:02:17 8.4 C 30 %
224 18-12-2019 13:12:17 8.2 C 30 %
225 18-12-2019 13:22:17 7.9 C 31 %
Sensor: Nr:Datum:Temp:Feuchte:
Aussen-T/F 226 18-12-2019 13:32:18 7.8 C 32 %
227 18-12-2019 13:42:18 7.7 C 33 %
228 18-12-2019 13:52:17 7.8 C 32 %
229 18-12-2019 14:02:18 7.8 C 33 %
230 18-12-2019 14:12:18 7.7 C 33 %
231 18-12-2019 14:22:17 7.5 C 34 %
232 18-12-2019 14:32:17 7.3 C 35 %
233 18-12-2019 14:42:17 7.2 C 35 %
234 18-12-2019 14:52:17 7.2 C 35 %
235 18-12-2019 15:02:17 7.2 C 35 %
236 18-12-2019 15:12:17 7 C 36 %
237 18-12-2019 15:22:17 7 C 36 %
238 18-12-2019 15:32:17 6.7 C 37 %
239 18-12-2019 15:42:17 6.8 C 37 %
240 18-12-2019 15:52:17 6.7 C 36 %
241 18-12-2019 16:02:17 6.6 C 36 %
242 18-12-2019 16:12:17 6.5 C 36 %
243 18-12-2019 16:22:17 6.4 C 36 %
244 18-12-2019 16:32:17 6 C 36 %
245 18-12-2019 16:42:17 5.8 C 37 %
246 18-12-2019 16:52:17 5.7 C 39 %
247 18-12-2019 17:02:17 5.3 C 38 %
248 18-12-2019 17:12:17 4.9 C 40 %
249 18-12-2019 17:22:17 5 C 42 %
250 18-12-2019 17:32:17 4.4 C 41 %
Sensor: Nr:Datum:Temp:Feuchte:
Aussen-T/F 251 18-12-2019 17:42:17 4.2 C 42 %
252 18-12-2019 17:52:18 4.1 C 42 %
253 18-12-2019 18:02:17 4.1 C 43 %
254 18-12-2019 18:12:17 4.1 C 43 %
255 18-12-2019 18:22:17 4.4 C 43 %
256 18-12-2019 18:32:17 4.5 C 43 %
257 18-12-2019 18:42:17 4.3 C 42 %
258 18-12-2019 18:52:17 4.6 C 43 %
259 18-12-2019 19:02:17 5 C 42 %
260 18-12-2019 19:12:17 4.7 C 42 %
261 18-12-2019 19:22:17 4.3 C 42 %
262 18-12-2019 19:32:18 4.9 C 43 %
263 18-12-2019 19:42:18 4.7 C 42 %
264 18-12-2019 19:52:17 4.6 C 42 %
265 18-12-2019 20:02:17 5 C 42 %
266 18-12-2019 20:12:17 5 C 41 %
267 18-12-2019 20:22:17 4.5 C 41 %
268 18-12-2019 20:32:17 4.5 C 41 %
269 18-12-2019 20:42:18 4.1 C 41 %
270 18-12-2019 20:52:17 3.9 C 42 %
271 18-12-2019 21:02:17 3.7 C 43 %
272 18-12-2019 21:12:17 3.6 C 42 %
273 18-12-2019 21:22:17 3.6 C 43 %
274 18-12-2019 21:32:17 3.7 C 43 %
275 18-12-2019 21:42:17 3.6 C 43 %
Sensor: Nr:Datum:Temp:Feuchte:
Aussen-T/F 276 18-12-2019 21:52:17 3.4 C 43 %
277 18-12-2019 22:02:17 3.1 C 43 %
278 18-12-2019 22:12:17 3.1 C 43 %
279 18-12-2019 22:22:17 2.7 C 43 %
280 18-12-2019 22:32:17 2.6 C 43 %
281 18-12-2019 22:42:17 2.5 C 43 %
282 18-12-2019 22:52:17 2.4 C 43 %
283 18-12-2019 23:02:17 2.4 C 43 %
284 18-12-2019 23:12:17 2.3 C 43 %
285 18-12-2019 23:22:18 2.3 C 43 %
286 18-12-2019 23:32:17 2 C 43 %
287 18-12-2019 23:42:17 2 C 43 %
288 18-12-2019 23:52:17 2 C 43 %
289 19-12-2019 00:02:18 2.3 C 44 %
290 19-12-2019 00:12:18 2 C 43 %
291 19-12-2019 00:22:17 2 C 43 %
292 19-12-2019 00:32:17 2.1 C 43 %
293 19-12-2019 00:42:17 2.4 C 44 %
294 19-12-2019 00:52:18 2.3 C 43 %
295 19-12-2019 01:02:17 2.1 C 43 %
296 19-12-2019 01:12:17 2 C 43 %
297 19-12-2019 01:22:17 2 C 43 %
298 19-12-2019 01:32:18 1.6 C 44 %
299 19-12-2019 01:42:18 1.9 C 44 %
300 19-12-2019 01:52:17 2.3 C 43 %
Sensor: Nr:Datum:Temp:Feuchte:
Aussen-T/F 301 19-12-2019 02:02:17 2.2 C 43 %
302 19-12-2019 02:12:17 2 C 43 %
303 19-12-2019 02:22:17 2 C 43 %
304 19-12-2019 02:32:18 2 C 43 %
305 19-12-2019 02:42:18 1.8 C 44 %
306 19-12-2019 02:52:17 2.1 C 43 %
307 19-12-2019 03:02:18 1.5 C 44 %
308 19-12-2019 03:12:18 1.6 C 44 %
309 19-12-2019 03:22:17 1.6 C 44 %
310 19-12-2019 03:32:17 1.8 C 44 %
311 19-12-2019 03:42:17 1.7 C 44 %
312 19-12-2019 03:52:17 1.7 C 44 %
313 19-12-2019 04:02:17 1.6 C 44 %
314 19-12-2019 04:12:17 1.5 C 44 %
315 19-12-2019 04:22:18 1.5 C 44 %
316 19-12-2019 04:32:17 1.5 C 44 %
317 19-12-2019 04:42:17 1.4 C 44 %
318 19-12-2019 04:52:18 1.6 C 44 %
319 19-12-2019 05:02:17 1.4 C 44 %
320 19-12-2019 05:12:17 1.5 C 44 %
321 19-12-2019 05:22:17 1.4 C 44 %
322 19-12-2019 05:32:17 1.3 C 44 %
323 19-12-2019 05:42:17 1.3 C 44 %
324 19-12-2019 05:52:17 1.1 C 44 %
325 19-12-2019 06:02:17 1.1 C 44 %
Sensor: Nr:Datum:Temp:Feuchte:
Aussen-T/F 326 19-12-2019 06:12:17 1.2 C 44 %
327 19-12-2019 06:22:17 1 C 44 %
328 19-12-2019 06:32:17 1.1 C 44 %
329 19-12-2019 06:42:18 1 C 43 %
330 19-12-2019 06:52:17 0.7 C 45 %
331 19-12-2019 07:02:17 1 C 44 %
332 19-12-2019 07:12:17 0.9 C 45 %
333 19-12-2019 07:22:17 1.7 C 44 %
334 19-12-2019 07:32:17 3.5 C 43 %
335 19-12-2019 07:42:18 3.2 C 42 %
336 19-12-2019 07:52:17 3.1 C 42 %
337 19-12-2019 08:02:18 4.6 C 42 %
338 19-12-2019 08:12:18 3.8 C 42 %
339 19-12-2019 08:22:17 3.7 C 42 %
340 19-12-2019 08:32:18 4.6 C 41 %
341 19-12-2019 08:42:18 4 C 41 %
342 19-12-2019 08:52:17 3.3 C 41 %
343 19-12-2019 09:02:17 4 C 41 %
344 19-12-2019 09:12:17 4.4 C 41 %
345 19-12-2019 09:22:17 4.1 C 41 %
346 19-12-2019 09:32:17 4.6 C 41 %
347 19-12-2019 09:42:17 4.4 C 41 %
348 19-12-2019 09:52:17 4.5 C 41 %
349 19-12-2019 10:02:17 4.7 C 41 %
350 19-12-2019 10:12:17 4.9 C 41 %
Sensor: Nr:Datum:Temp:Feuchte:
Aussen-T/F 351 19-12-2019 10:22:17 5.2 C 41 %
352 19-12-2019 10:32:17 7 C 40 %
353 19-12-2019 10:42:17 7.2 C 40 %
354 19-12-2019 10:52:18 6.7 C 40 %
355 19-12-2019 11:02:17 6.4 C 39 %
356 19-12-2019 11:12:17 6.3 C 39 %
357 19-12-2019 11:22:17 6.3 C 40 %
358 19-12-2019 11:32:17 6.4 C 40 %
359 19-12-2019 11:42:17 6.6 C 40 %
360 19-12-2019 11:52:18 6.7 C 40 %
361 19-12-2019 12:02:17 6.6 C 40 %
362 19-12-2019 12:12:17 6.7 C 40 %
363 19-12-2019 12:22:17 6.7 C 40 %
364 19-12-2019 12:32:17 7 C 39 %
365 19-12-2019 12:42:17 7 C 39 %
366 19-12-2019 12:52:17 7.1 C 39 %
367 19-12-2019 13:02:17 7.3 C 39 %
368 19-12-2019 13:12:17 7.1 C 38 %
369 19-12-2019 13:22:17 7.2 C 39 %
370 19-12-2019 13:32:17 7.2 C 39 %
371 19-12-2019 13:42:17 7.3 C 38 %
372 19-12-2019 13:52:17 7.3 C 38 %
373 19-12-2019 14:02:17 7.3 C 38 %
374 19-12-2019 14:12:17 7.1 C 38 %
375 19-12-2019 14:22:17 7.1 C 38 %
Sensor: Nr:Datum:Temp:Feuchte:
Aussen-T/F 376 19-12-2019 14:32:17 7.2 C 38 %
377 19-12-2019 14:42:17 7.3 C 37 %
378 19-12-2019 14:52:17 7.9 C 36 %
379 19-12-2019 15:02:17 8.1 C 34 %
380 19-12-2019 15:12:17 8.1 C 33 %
381 19-12-2019 15:22:17 8.4 C 32 %
382 19-12-2019 15:32:18 8.6 C 32 %
383 19-12-2019 15:42:18 8.7 C 31 %
384 19-12-2019 15:52:17 8.8 C 31 %
385 19-12-2019 16:02:17 8.7 C 30 %
386 19-12-2019 16:12:17 8.3 C 31 %
387 19-12-2019 16:22:18 8.1 C 31 %
388 19-12-2019 16:32:17 7.9 C 32 %
389 19-12-2019 16:42:17 7.9 C 31 %
390 19-12-2019 16:52:17 7.6 C 32 %
391 19-12-2019 17:02:17 7.4 C 32 %
392 19-12-2019 17:12:17 6 C 35 %
393 19-12-2019 17:22:17 5.7 C 37 %
394 19-12-2019 17:32:17 5.5 C 39 %
395 19-12-2019 17:42:17 5 C 39 %
396 19-12-2019 17:52:17 4.9 C 41 %
397 19-12-2019 18:02:17 5.2 C 42 %
398 19-12-2019 18:12:18 4.9 C 42 %
399 19-12-2019 18:22:17 5.2 C 42 %
400 19-12-2019 18:32:17 5 C 41 %
Sensor: Nr:Datum:Temp:Feuchte:
Aussen-T/F 401 19-12-2019 18:42:17 5 C 41 %
402 19-12-2019 18:52:18 5.8 C 42 %
403 19-12-2019 19:02:17 5.7 C 41 %
404 19-12-2019 19:12:17 5.2 C 39 %
405 19-12-2019 19:22:18 4.7 C 40 %
406 19-12-2019 19:32:17 4.9 C 42 %
407 19-12-2019 19:42:17 4.7 C 42 %
408 19-12-2019 19:52:17 4.8 C 42 %
409 19-12-2019 20:02:17 5 C 42 %
410 19-12-2019 20:12:17 5 C 41 %
411 19-12-2019 20:22:17 4.8 C 42 %
412 19-12-2019 20:32:17 5.1 C 42 %
413 19-12-2019 20:42:17 6 C 41 %
414 19-12-2019 20:52:17 6 C 38 %
415 19-12-2019 21:02:17 5.8 C 38 %
416 19-12-2019 21:12:18 5.8 C 39 %
417 19-12-2019 21:22:17 5.7 C 39 %
418 19-12-2019 21:32:17 5.8 C 40 %
419 19-12-2019 21:42:17 6 C 40 %
420 19-12-2019 21:52:17 5.7 C 40 %
421 19-12-2019 22:02:17 5.6 C 40 %
422 19-12-2019 22:12:17 5.8 C 41 %
423 19-12-2019 22:22:18 6.2 C 41 %
424 19-12-2019 22:32:18 5.9 C 40 %
425 19-12-2019 22:42:18 5.1 C 38 %
Sensor: Nr:Datum:Temp:Feuchte:
Aussen-T/F 426 19-12-2019 22:52:17 5 C 41 %
427 19-12-2019 23:02:17 5.4 C 43 %
428 19-12-2019 23:12:17 5.5 C 42 %
429 19-12-2019 23:22:17 5.5 C 42 %
430 19-12-2019 23:32:17 5.4 C 42 %
431 19-12-2019 23:42:17 5.4 C 42 %
432 19-12-2019 23:52:17 5.1 C 41 %
433 20-12-2019 00:02:17 4.8 C 42 %
434 20-12-2019 00:12:17 4.3 C 41 %
435 20-12-2019 00:22:17 4 C 41 %
436 20-12-2019 00:32:17 3.9 C 43 %
437 20-12-2019 00:42:17 3.7 C 42 %
438 20-12-2019 00:52:17 3.4 C 43 %
439 20-12-2019 01:02:17 3.1 C 42 %
440 20-12-2019 01:12:17 3 C 43 %
441 20-12-2019 01:22:17 3.3 C 44 %
442 20-12-2019 01:32:17 3.1 C 43 %
443 20-12-2019 01:42:17 3.1 C 43 %
444 20-12-2019 01:52:17 2.8 C 44 %
445 20-12-2019 02:02:17 2.8 C 44 %
446 20-12-2019 02:12:17 2.6 C 44 %
447 20-12-2019 02:22:17 2.5 C 44 %
448 20-12-2019 02:32:18 3.2 C 44 %
449 20-12-2019 02:42:18 3.4 C 44 %
450 20-12-2019 02:52:17 3.8 C 44 %
Sensor: Nr:Datum:Temp:Feuchte:
Aussen-T/F 451 20-12-2019 03:02:17 4.7 C 42 %
452 20-12-2019 03:12:17 4.2 C 41 %
453 20-12-2019 03:22:17 4.6 C 41 %
454 20-12-2019 03:32:17 4.4 C 40 %
455 20-12-2019 03:42:17 4.4 C 40 %
456 20-12-2019 03:52:17 4.6 C 41 %
457 20-12-2019 04:02:17 4.4 C 40 %
458 20-12-2019 04:12:17 4.2 C 40 %
459 20-12-2019 04:22:17 4 C 41 %
460 20-12-2019 04:32:18 4.8 C 42 %
461 20-12-2019 04:42:18 4.5 C 41 %
462 20-12-2019 04:52:17 4.7 C 40 %
463 20-12-2019 05:02:17 4.7 C 40 %
464 20-12-2019 05:12:17 5.3 C 38 %
465 20-12-2019 05:22:17 5.2 C 36 %
466 20-12-2019 05:32:17 5.3 C 36 %
467 20-12-2019 05:42:17 5.4 C 35 %
468 20-12-2019 05:52:18 5.5 C 35 %
469 20-12-2019 06:02:18 5.2 C 35 %
470 20-12-2019 06:12:18 5.3 C 35 %
471 20-12-2019 06:22:17 5.6 C 35 %
472 20-12-2019 06:32:17 6 C 32 %
473 20-12-2019 06:42:17 6 C 31 %
474 20-12-2019 06:52:17 5.7 C 32 %
475 20-12-2019 07:02:17 5.8 C 31 %
Sensor: Nr:Datum:Temp:Feuchte:
Aussen-T/F 476 20-12-2019 07:12:17 5.9 C 31 %
477 20-12-2019 07:22:17 6.1 C 31 %
478 20-12-2019 07:32:17 5.9 C 33 %
479 20-12-2019 07:42:17 6.4 C 31 %
480 20-12-2019 07:52:17 6.8 C 30 %
481 20-12-2019 08:02:17 7.1 C 27 %
482 20-12-2019 08:12:17 6.4 C 31 %
483 20-12-2019 08:22:17 6.4 C 32 %
484 20-12-2019 08:32:18 6.5 C 32 %
485 20-12-2019 08:42:18 6.3 C 32 %
486 20-12-2019 08:52:17 6.3 C 33 %
487 20-12-2019 09:02:17 6.5 C 33 %
488 20-12-2019 09:12:17 6.7 C 31 %
489 20-12-2019 09:22:17 6.5 C 33 %
490 20-12-2019 09:32:17 6.4 C 35 %
491 20-12-2019 09:42:17 6.5 C 35 %
492 20-12-2019 09:52:17 6.5 C 34 %
493 20-12-2019 10:02:17 6.2 C 31 %
494 20-12-2019 10:12:17 6 C 33 %
495 20-12-2019 10:22:17 5.7 C 35 %
496 20-12-2019 10:32:17 5.8 C 40 %
497 20-12-2019 10:42:17 5.9 C 42 %
498 20-12-2019 10:52:17 6 C 42 %
499 20-12-2019 11:02:17 6.1 C 42 %
500 20-12-2019 11:12:17 6 C 42 %
Sensor: Nr:Datum:Temp:Feuchte:
Aussen-T/F 501 20-12-2019 11:22:17 6.3 C 42 %
502 20-12-2019 11:32:17 6.5 C 42 %
503 20-12-2019 11:42:17 6.7 C 41 %
504 20-12-2019 11:52:17 6.8 C 40 %
505 20-12-2019 12:02:18 7 C 39 %
506 20-12-2019 12:12:18 7.3 C 39 %
507 20-12-2019 12:22:18 7.5 C 39 %
508 20-12-2019 12:32:17 7.7 C 39 %
509 20-12-2019 12:42:18 8 C 39 %
510 20-12-2019 12:52:17 8.1 C 38 %
511 20-12-2019 13:02:18 8.1 C 39 %
512 20-12-2019 13:12:18 8.2 C 39 %
513 20-12-2019 13:22:17 8.3 C 37 %
514 20-12-2019 13:32:17 8.4 C 36 %
515 20-12-2019 13:42:17 8.6 C 37 %
516 20-12-2019 13:52:17 8.5 C 36 %
517 20-12-2019 14:02:17 8.6 C 36 %
518 20-12-2019 14:12:17 8.6 C 35 %
519 20-12-2019 14:22:17 8.7 C 36 %
520 20-12-2019 14:32:17 8.7 C 36 %
521 20-12-2019 14:42:17 8.5 C 35 %
522 20-12-2019 14:52:18 8.3 C 36 %
523 20-12-2019 15:02:17 8.2 C 37 %
524 20-12-2019 15:12:17 8.3 C 38 %
525 20-12-2019 15:22:17 8.3 C 39 %
Sensor: Nr:Datum:Temp:Feuchte:
Aussen-T/F 526 20-12-2019 15:32:17 8.2 C 40 %
527 20-12-2019 15:42:17 8.3 C 41 %
528 20-12-2019 15:52:17 8.2 C 40 %
529 20-12-2019 16:02:17 8.2 C 40 %
530 20-12-2019 16:12:18 8.3 C 40 %
531 20-12-2019 16:22:17 8.3 C 41 %
532 20-12-2019 16:32:17 8.4 C 41 %
533 20-12-2019 16:42:17 8.4 C 41 %
534 20-12-2019 16:52:18 8.6 C 41 %
535 20-12-2019 17:02:17 9 C 41 %
536 20-12-2019 17:12:18 9 C 40 %
537 20-12-2019 17:22:17 9.1 C 36 %
538 20-12-2019 17:32:17 8.7 C 38 %
539 20-12-2019 17:42:17 8.8 C 37 %
540 20-12-2019 17:52:18 8.7 C 38 %
541 20-12-2019 18:02:17 8.9 C 37 %
542 20-12-2019 18:12:17 8.9 C 36 %
543 20-12-2019 18:22:17 8.9 C 37 %
544 20-12-2019 18:32:17 8.9 C 37 %
545 20-12-2019 18:42:17 9.7 C 33 %
546 20-12-2019 18:52:18 9.5 C 31 %
547 20-12-2019 19:02:17 9.8 C 30 %
548 20-12-2019 19:12:17 10.1 C 28 %
549 20-12-2019 19:22:17 9.9 C 29 %
550 20-12-2019 19:32:17 9.8 C 29 %
Sensor: Nr:Datum:Temp:Feuchte:
Aussen-T/F 551 20-12-2019 19:42:17 10 C 27 %
552 20-12-2019 19:52:18 9.7 C 29 %
553 20-12-2019 20:02:18 9.6 C 28 %
554 20-12-2019 20:12:18 9.5 C 28 %
555 20-12-2019 20:22:17 9.5 C 27 %
556 20-12-2019 20:32:18 9 C 28 %
557 20-12-2019 20:42:18 9 C 27 %
558 20-12-2019 20:52:17 8.9 C 28 %
559 20-12-2019 21:02:18 8.5 C 28 %
560 20-12-2019 21:12:18 8.6 C 28 %
561 20-12-2019 21:22:17 8.9 C 27 %
562 20-12-2019 21:32:17 8.7 C 27 %
563 20-12-2019 21:42:17 8.3 C 28 %
564 20-12-2019 21:52:17 8.3 C 28 %
565 20-12-2019 22:02:17 8.3 C 28 %
566 20-12-2019 22:12:17 8.1 C 28 %
567 20-12-2019 22:22:17 8.7 C 27 %
568 20-12-2019 22:32:17 8.9 C 26 %
569 20-12-2019 22:42:17 8.7 C 27 %
570 20-12-2019 22:52:17 8.7 C 27 %
571 20-12-2019 23:02:17 8.5 C 27 %
572 20-12-2019 23:12:17 8.4 C 27 %
573 20-12-2019 23:22:17 8.2 C 28 %
574 20-12-2019 23:32:17 8 C 28 %
575 20-12-2019 23:42:17 8.3 C 27 %
Sensor: Nr:Datum:Temp:Feuchte:
Aussen-T/F 576 20-12-2019 23:52:18 8.1 C 27 %
577 21-12-2019 00:02:17 7.9 C 28 %
578 21-12-2019 00:12:17 7.7 C 28 %
579 21-12-2019 00:22:17 7.5 C 30 %
580 21-12-2019 00:32:17 7.5 C 30 %
581 21-12-2019 00:42:17 7.2 C 30 %
582 21-12-2019 00:52:18 7 C 30 %
583 21-12-2019 01:02:17 6.9 C 32 %
584 21-12-2019 01:12:17 7.3 C 31 %
585 21-12-2019 01:22:17 7.4 C 31 %
586 21-12-2019 01:32:17 7.3 C 32 %
587 21-12-2019 01:42:17 7.5 C 31 %
588 21-12-2019 01:52:17 7.5 C 32 %
589 21-12-2019 02:02:17 7.9 C 30 %
590 21-12-2019 02:12:17 8 C 29 %
591 21-12-2019 02:22:17 8.2 C 28 %
592 21-12-2019 02:32:18 7.8 C 30 %
593 21-12-2019 02:42:18 7.8 C 30 %
594 21-12-2019 02:52:17 7.8 C 30 %
595 21-12-2019 03:02:17 7.5 C 30 %
596 21-12-2019 03:12:17 7.5 C 31 %
597 21-12-2019 03:22:17 7.4 C 31 %
598 21-12-2019 03:32:18 7.3 C 31 %
599 21-12-2019 03:42:18 7.1 C 31 %
600 21-12-2019 03:52:17 7.1 C 32 %
Sensor: Nr:Datum:Temp:Feuchte:
Aussen-T/F 601 21-12-2019 04:02:17 6.9 C 33 %
602 21-12-2019 04:12:17 6.7 C 36 %
603 21-12-2019 04:22:17 6.4 C 37 %
604 21-12-2019 04:32:18 6 C 38 %
605 21-12-2019 04:42:18 5.9 C 38 %
606 21-12-2019 04:52:17 5.7 C 40 %
607 21-12-2019 05:02:17 6 C 40 %
608 21-12-2019 05:12:17 5.6 C 39 %
609 21-12-2019 05:22:17 5.4 C 38 %
610 21-12-2019 05:32:18 5.4 C 38 %
611 21-12-2019 05:42:18 5.1 C 38 %
612 21-12-2019 05:52:17 5.3 C 40 %
613 21-12-2019 06:02:17 4.9 C 41 %
614 21-12-2019 06:12:17 4.8 C 41 %
615 21-12-2019 06:22:18 4.3 C 40 %
616 21-12-2019 06:32:17 4.3 C 42 %
617 21-12-2019 06:42:17 5 C 40 %
618 21-12-2019 06:52:18 3.8 C 41 %
619 21-12-2019 07:02:17 3.8 C 43 %
620 21-12-2019 07:12:18 3.5 C 42 %
621 21-12-2019 07:22:17 3.4 C 43 %
622 21-12-2019 07:32:17 3.3 C 43 %
623 21-12-2019 07:42:17 3 C 42 %
624 21-12-2019 07:52:17 3 C 43 %
625 21-12-2019 08:02:17 3.1 C 44 %
Sensor: Nr:Datum:Temp:Feuchte:
Aussen-T/F 626 21-12-2019 08:12:17 3.6 C 44 %
627 21-12-2019 08:22:17 3.7 C 44 %
628 21-12-2019 08:32:17 3.9 C 43 %
629 21-12-2019 08:42:17 4.6 C 43 %
630 21-12-2019 08:52:17 4.9 C 42 %
631 21-12-2019 09:02:17 5 C 39 %
632 21-12-2019 09:12:17 4.5 C 38 %
633 21-12-2019 09:22:17 4.4 C 38 %
634 21-12-2019 09:32:17 4.4 C 39 %
635 21-12-2019 09:42:17 4.6 C 40 %
636 21-12-2019 09:52:17 4.6 C 38 %
637 21-12-2019 10:02:17 4.8 C 38 %
638 21-12-2019 10:12:17 4.8 C 37 %
639 21-12-2019 10:22:17 5.1 C 37 %
640 21-12-2019 10:32:17 5.2 C 36 %
641 21-12-2019 10:42:17 5.1 C 37 %
642 21-12-2019 10:52:17 5.2 C 37 %
643 21-12-2019 11:02:17 5.3 C 37 %
644 21-12-2019 11:12:17 5.3 C 37 %
645 21-12-2019 11:22:17 5.4 C 37 %
646 21-12-2019 11:32:17 5.8 C 37 %
647 21-12-2019 11:42:17 5.9 C 37 %
648 21-12-2019 11:52:17 5.8 C 37 %
649 21-12-2019 12:02:17 5.8 C 36 %
650 21-12-2019 12:12:17 6.2 C 36 %
Sensor: Nr:Datum:Temp:Feuchte:
Aussen-T/F 651 21-12-2019 12:22:17 6.2 C 35 %
652 21-12-2019 12:32:17 7 C 32 %
653 21-12-2019 12:42:17 6.8 C 33 %
654 21-12-2019 12:52:17 8 C 30 %
655 21-12-2019 13:02:17 7.8 C 30 %
656 21-12-2019 13:12:17 7.1 C 30 %
657 21-12-2019 13:22:17 6.9 C 31 %
658 21-12-2019 13:32:17 7.2 C 30 %
659 21-12-2019 13:42:17 8 C 28 %
660 21-12-2019 13:52:18 7.7 C 28 %
661 21-12-2019 14:02:17 8.3 C 27 %
662 21-12-2019 14:12:17 8.8 C 26 %
663 21-12-2019 14:22:17 8.2 C 27 %
664 21-12-2019 14:32:18 8.2 C 27 %
665 21-12-2019 14:42:18 8.5 C 27 %
666 21-12-2019 14:52:17 8.8 C 26 %
667 21-12-2019 15:02:18 9 C 25 %
668 21-12-2019 15:12:18 8.7 C 26 %
669 21-12-2019 15:22:18 8.8 C 25 %
670 21-12-2019 15:32:17 8.7 C 25 %
671 21-12-2019 15:42:17 8 C 26 %
672 21-12-2019 15:52:17 7.5 C 28 %
673 21-12-2019 16:02:17 7.7 C 27 %
674 21-12-2019 16:12:17 7.6 C 29 %
675 21-12-2019 16:22:17 7.4 C 30 %
Sensor: Nr:Datum:Temp:Feuchte:
Aussen-T/F 676 21-12-2019 16:32:17 7.4 C 30 %
677 21-12-2019 16:42:17 7.7 C 28 %
678 21-12-2019 16:52:17 7.9 C 27 %
679 21-12-2019 17:02:17 7.6 C 29 %
680 21-12-2019 17:12:17 7.3 C 30 %
681 21-12-2019 17:22:17 7.2 C 30 %
682 21-12-2019 17:32:17 7.3 C 30 %
683 21-12-2019 17:42:17 7.3 C 29 %
684 21-12-2019 17:52:17 7.2 C 29 %
685 21-12-2019 18:02:17 7.6 C 27 %
686 21-12-2019 18:12:17 7.6 C 27 %
687 21-12-2019 18:22:17 7.6 C 26 %
688 21-12-2019 18:32:18 7.9 C 25 %
689 21-12-2019 18:42:18 7.7 C 26 %
690 21-12-2019 18:52:17 7.5 C 26 %
691 21-12-2019 19:02:17 7.3 C 27 %
692 21-12-2019 19:12:17 7 C 27 %
693 21-12-2019 19:22:17 7 C 27 %
694 21-12-2019 19:32:17 6.9 C 30 %
695 21-12-2019 19:42:17 6.8 C 30 %
696 21-12-2019 19:52:17 7 C 27 %
697 21-12-2019 20:02:17 7.1 C 26 %
698 21-12-2019 20:12:17 7.1 C 26 %
699 21-12-2019 20:22:17 7.1 C 26 %
700 21-12-2019 20:32:17 6.9 C 28 %
Sensor: Nr:Datum:Temp:Feuchte:
Aussen-T/F 701 21-12-2019 20:42:17 7 C 27 %
702 21-12-2019 20:52:17 6.8 C 27 %
703 21-12-2019 21:02:18 6.4 C 29 %
704 21-12-2019 21:12:18 6.1 C 30 %
705 21-12-2019 21:22:17 6.1 C 31 %
706 21-12-2019 21:32:17 6.3 C 31 %
707 21-12-2019 21:42:17 5.9 C 31 %
708 21-12-2019 21:52:18 5.1 C 34 %
709 21-12-2019 22:02:18 4.9 C 36 %
710 21-12-2019 22:12:18 5.2 C 34 %
711 21-12-2019 22:22:17 5.7 C 30 %
712 21-12-2019 22:32:17 6.1 C 27 %
713 21-12-2019 22:42:17 6.1 C 27 %
714 21-12-2019 22:52:17 6 C 27 %
715 21-12-2019 23:02:17 5.8 C 27 %
716 21-12-2019 23:12:17 5.8 C 27 %
717 21-12-2019 23:22:17 6.3 C 26 %
718 21-12-2019 23:32:18 6.5 C 25 %
719 21-12-2019 23:42:18 6.7 C 25 %
720 21-12-2019 23:52:17 6.3 C 26 %
721 22-12-2019 00:02:17 6.8 C 26 %
722 22-12-2019 00:12:17 6.9 C 26 %
723 22-12-2019 00:22:17 6.8 C 26 %
724 22-12-2019 00:32:17 6.8 C 26 %
725 22-12-2019 00:42:17 6.7 C 27 %
Sensor: Nr:Datum:Temp:Feuchte:
Aussen-T/F 726 22-12-2019 00:52:17 6.3 C 30 %
727 22-12-2019 01:02:17 6.2 C 30 %
728 22-12-2019 01:12:18 5.8 C 35 %
729 22-12-2019 01:22:17 5.8 C 36 %
730 22-12-2019 01:32:17 5.8 C 39 %
731 22-12-2019 01:42:17 5.7 C 40 %
732 22-12-2019 01:52:17 5.7 C 40 %
733 22-12-2019 02:02:17 5.7 C 38 %
734 22-12-2019 02:12:18 5.7 C 38 %
735 22-12-2019 02:22:17 5.8 C 38 %
736 22-12-2019 02:32:17 5.9 C 37 %
737 22-12-2019 02:42:17 5.9 C 36 %
738 22-12-2019 02:52:18 6 C 35 %
739 22-12-2019 03:02:17 6.1 C 35 %
740 22-12-2019 03:12:17 6.2 C 34 %
741 22-12-2019 03:22:17 6.2 C 35 %
742 22-12-2019 03:32:17 6.2 C 34 %
743 22-12-2019 03:42:17 6.1 C 35 %
744 22-12-2019 03:52:17 6.2 C 35 %
745 22-12-2019 04:02:18 6.2 C 35 %
746 22-12-2019 04:12:18 6 C 35 %
747 22-12-2019 04:22:17 6.2 C 34 %
748 22-12-2019 04:32:17 6.2 C 34 %
749 22-12-2019 04:42:17 6.3 C 33 %
750 22-12-2019 04:52:17 6.3 C 33 %
Sensor: Nr:Datum:Temp:Feuchte:
Aussen-T/F 751 22-12-2019 05:02:17 6.2 C 34 %
752 22-12-2019 05:12:17 5.8 C 34 %
753 22-12-2019 05:22:17 5.4 C 36 %
754 22-12-2019 05:32:17 5.7 C 40 %
755 22-12-2019 05:42:17 6.1 C 38 %
756 22-12-2019 05:52:17 5.5 C 35 %
757 22-12-2019 06:02:17 5.1 C 39 %
758 22-12-2019 06:12:17 5.3 C 41 %
759 22-12-2019 06:22:17 4.9 C 41 %
760 22-12-2019 06:32:17 5.4 C 42 %
761 22-12-2019 06:42:17 5.9 C 41 %
762 22-12-2019 06:52:17 6.2 C 39 %
763 22-12-2019 07:02:17 6.2 C 38 %
764 22-12-2019 07:12:17 6 C 38 %
765 22-12-2019 07:22:17 5.7 C 38 %
766 22-12-2019 07:32:17 5.4 C 39 %
767 22-12-2019 07:42:17 6 C 42 %
768 22-12-2019 07:52:17 6.1 C 41 %
769 22-12-2019 08:02:18 6.3 C 41 %
770 22-12-2019 08:12:18 6.2 C 40 %
771 22-12-2019 08:22:17 5.9 C 40 %
772 22-12-2019 08:32:17 5.8 C 41 %
773 22-12-2019 08:42:17 6.3 C 41 %
774 22-12-2019 08:52:18 6.2 C 39 %
775 22-12-2019 09:02:17 6 C 39 %
Sensor: Nr:Datum:Temp:Feuchte:
Aussen-T/F 776 22-12-2019 09:12:17 6.2 C 40 %
777 22-12-2019 09:22:17 6.4 C 39 %
778 22-12-2019 09:32:17 6.3 C 39 %
779 22-12-2019 09:42:17 6.8 C 39 %
780 22-12-2019 09:52:17 7 C 37 %
781 22-12-2019 10:02:17 7.1 C 37 %
782 22-12-2019 10:12:17 7.9 C 33 %
783 22-12-2019 10:22:17 8.1 C 33 %
784 22-12-2019 10:32:17 8.8 C 30 %
785 22-12-2019 10:42:17 9 C 29 %
786 22-12-2019 10:52:17 9.3 C 28 %
787 22-12-2019 11:02:17 9.5 C 28 %
788 22-12-2019 11:12:17 10 C 26 %
789 22-12-2019 11:22:17 10 C 26 %
790 22-12-2019 11:32:18 10.4 C 26 %
791 22-12-2019 11:42:18 10.2 C 26 %
792 22-12-2019 11:52:17 10.4 C 26 %
793 22-12-2019 12:02:17 10.5 C 25 %
794 22-12-2019 12:12:17 10.5 C 26 %
795 22-12-2019 12:22:17 10.5 C 25 %
796 22-12-2019 12:32:17 10.7 C 26 %
797 22-12-2019 12:42:17 10.8 C 26 %
798 22-12-2019 12:52:17 11.2 C 25 %
799 22-12-2019 13:02:17 11.1 C 25 %
800 22-12-2019 13:12:17 10.8 C 25 %
Sensor: Nr:Datum:Temp:Feuchte:
Aussen-T/F 801 22-12-2019 13:22:17 10.7 C 25 %
802 22-12-2019 13:32:17 10.7 C 25 %
803 22-12-2019 13:42:17 10.7 C 25 %
804 22-12-2019 13:52:17 10.8 C 25 %
805 22-12-2019 14:02:17 11.1 C 23 %
806 22-12-2019 14:12:17 11 C 23 %
807 22-12-2019 14:22:17 10.8 C 23 %
808 22-12-2019 14:32:17 10.9 C 23 %
809 22-12-2019 14:42:17 10.8 C 23 %
810 22-12-2019 14:52:17 10.7 C 25 %
811 22-12-2019 15:02:17 10.6 C 25 %
812 22-12-2019 15:12:17 10.3 C 25 %
813 22-12-2019 15:22:17 10.1 C 25 %
814 22-12-2019 15:32:17 9.9 C 26 %
815 22-12-2019 15:42:17 9.7 C 26 %
816 22-12-2019 15:52:18 9.6 C 25 %
817 22-12-2019 16:02:18 9.6 C 25 %
818 22-12-2019 16:12:18 9.3 C 25 %
819 22-12-2019 16:22:17 8.9 C 26 %
820 22-12-2019 16:32:17 8.3 C 26 %
821 22-12-2019 16:42:17 8.4 C 27 %
822 22-12-2019 16:52:17 7.9 C 28 %
823 22-12-2019 17:02:18 7.5 C 30 %
824 22-12-2019 17:12:18 7.5 C 30 %
825 22-12-2019 17:22:17 7.4 C 30 %
Sensor: Nr:Datum:Temp:Feuchte:
Aussen-T/F 826 22-12-2019 17:32:17 7.5 C 29 %
827 22-12-2019 17:42:17 7.5 C 28 %
828 22-12-2019 17:52:17 7.2 C 28 %
829 22-12-2019 18:02:17 7.2 C 30 %
830 22-12-2019 18:12:17 7.1 C 30 %
831 22-12-2019 18:22:17 7.3 C 30 %
832 22-12-2019 18:32:17 7.4 C 29 %
833 22-12-2019 18:42:17 7.5 C 29 %
834 22-12-2019 18:52:17 7.2 C 29 %
835 22-12-2019 19:02:17 7.1 C 30 %
836 22-12-2019 19:12:17 7 C 31 %
837 22-12-2019 19:22:17 7 C 32 %
838 22-12-2019 19:32:17 7.1 C 31 %
839 22-12-2019 19:42:17 7.5 C 30 %
840 22-12-2019 19:52:17 8 C 27 %
841 22-12-2019 20:02:17 7.9 C 27 %
842 22-12-2019 20:12:17 8.1 C 26 %
843 22-12-2019 20:22:17 8.3 C 25 %
844 22-12-2019 20:32:17 8.2 C 25 %
845 22-12-2019 20:42:17 8 C 25 %
846 22-12-2019 20:52:17 8 C 25 %
847 22-12-2019 21:02:17 8.1 C 25 %
848 22-12-2019 21:12:17 8.1 C 25 %
849 22-12-2019 21:22:17 7.8 C 25 %
850 22-12-2019 21:32:17 8.1 C 25 %
Sensor: Nr:Datum:Temp:Feuchte:
Aussen-T/F 851 22-12-2019 21:42:17 7.8 C 26 %
852 22-12-2019 21:52:17 7.7 C 26 %
853 22-12-2019 22:02:17 7.9 C 26 %
854 22-12-2019 22:12:17 7.6 C 26 %
855 22-12-2019 22:22:17 7.5 C 26 %
856 22-12-2019 22:32:17 7.1 C 27 %
857 22-12-2019 22:42:17 6.9 C 28 %
858 22-12-2019 22:52:17 6.7 C 29 %
859 22-12-2019 23:02:17 6.2 C 31 %
860 22-12-2019 23:12:17 6.4 C 31 %
861 22-12-2019 23:22:17 6.6 C 31 %
862 22-12-2019 23:32:17 6.6 C 31 %
863 22-12-2019 23:42:17 6.7 C 31 %
864 22-12-2019 23:52:17 6.7 C 31 %
865 23-12-2019 00:02:17 6.6 C 32 %
866 23-12-2019 00:12:17 6.5 C 31 %
867 23-12-2019 00:22:17 6.4 C 32 %
868 23-12-2019 00:32:17 6.6 C 31 %
869 23-12-2019 00:42:17 7 C 30 %
870 23-12-2019 00:52:17 6.9 C 30 %
871 23-12-2019 01:02:17 6.8 C 30 %
872 23-12-2019 01:12:17 7.1 C 28 %
873 23-12-2019 01:22:17 7 C 28 %
874 23-12-2019 01:32:17 7.1 C 28 %
875 23-12-2019 01:42:17 7.4 C 27 %
Sensor: Nr:Datum:Temp:Feuchte:
Aussen-T/F 876 23-12-2019 01:52:17 7.4 C 27 %
877 23-12-2019 02:02:17 6.8 C 29 %
878 23-12-2019 02:12:17 6.5 C 30 %
879 23-12-2019 02:22:17 6.8 C 29 %
880 23-12-2019 02:32:17 6.9 C 29 %
881 23-12-2019 02:42:17 7.3 C 28 %
882 23-12-2019 02:52:17 6.9 C 30 %
883 23-12-2019 03:02:17 6.8 C 31 %
884 23-12-2019 03:12:17 6.4 C 31 %
885 23-12-2019 03:22:17 6.5 C 30 %
886 23-12-2019 03:32:17 7 C 28 %
887 23-12-2019 03:42:17 6.6 C 29 %
888 23-12-2019 03:52:17 7 C 28 %
889 23-12-2019 04:02:17 6.9 C 30 %
890 23-12-2019 04:12:17 7.1 C 28 %
891 23-12-2019 04:22:17 6.8 C 30 %
892 23-12-2019 04:32:17 6.9 C 31 %
893 23-12-2019 04:42:17 6.5 C 31 %
894 23-12-2019 04:52:17 6.1 C 31 %
895 23-12-2019 05:02:17 6.4 C 32 %
896 23-12-2019 05:12:17 7 C 30 %
897 23-12-2019 05:22:17 7.1 C 30 %
898 23-12-2019 05:32:17 7 C 30 %
899 23-12-2019 05:42:17 6.8 C 31 %
900 23-12-2019 05:52:17 6.3 C 32 %
Sensor: Nr:Datum:Temp:Feuchte:
Aussen-T/F 901 23-12-2019 06:02:18 6.3 C 34 %
902 23-12-2019 06:12:18 6.6 C 33 %
903 23-12-2019 06:22:17 6.9 C 31 %
904 23-12-2019 06:32:18 7.1 C 30 %
905 23-12-2019 06:42:18 6.9 C 31 %
906 23-12-2019 06:52:17 6.9 C 31 %
907 23-12-2019 07:02:17 6.8 C 32 %
908 23-12-2019 07:12:17 6.8 C 34 %
909 23-12-2019 07:22:17 6.8 C 32 %
910 23-12-2019 07:32:17 7.1 C 30 %
911 23-12-2019 07:42:17 7.4 C 29 %
912 23-12-2019 07:52:17 7.1 C 30 %
913 23-12-2019 08:02:17 7.3 C 30 %
914 23-12-2019 08:12:17 7.4 C 28 %
915 23-12-2019 08:22:17 7.5 C 28 %
916 23-12-2019 08:32:18 7.5 C 28 %
917 23-12-2019 08:42:18 7.6 C 28 %
918 23-12-2019 08:52:17 7.6 C 27 %
919 23-12-2019 09:02:17 7.6 C 27 %
920 23-12-2019 09:12:18 7.7 C 27 %
921 23-12-2019 09:22:17 7.8 C 27 %
922 23-12-2019 09:32:18 7.8 C 27 %
923 23-12-2019 09:42:18 7.8 C 27 %
924 23-12-2019 09:52:18 7.9 C 26 %
925 23-12-2019 10:02:17 7.3 C 30 %
Sensor: Nr:Datum:Temp:Feuchte:
Aussen-T/F 926 23-12-2019 10:12:18 7 C 33 %
927 23-12-2019 10:22:17 7 C 35 %
928 23-12-2019 10:32:18 6.8 C 35 %
929 23-12-2019 10:42:18 6.9 C 34 %
930 23-12-2019 10:52:17 7.4 C 30 %
931 23-12-2019 11:02:18 7.8 C 28 %
932 23-12-2019 11:12:18 8.1 C 28 %
933 23-12-2019 11:22:17 8.4 C 26 %
934 23-12-2019 11:32:18 8.3 C 26 %
935 23-12-2019 11:42:18 8.6 C 26 %
936 23-12-2019 11:52:17 8.9 C 25 %
937 23-12-2019 12:02:18 9.1 C 25 %
938 23-12-2019 12:12:18 9.1 C 25 %
939 23-12-2019 12:22:17 8.9 C 25 %
940 23-12-2019 12:32:17 9 C 25 %
941 23-12-2019 12:42:17 9.3 C 25 %
942 23-12-2019 12:52:17 8.4 C 26 %
943 23-12-2019 13:02:17 8.4 C 26 %
944 23-12-2019 13:12:17 8.3 C 27 %
945 23-12-2019 13:22:17 8.2 C 27 %
946 23-12-2019 13:32:18 8.1 C 29 %
947 23-12-2019 13:42:18 8.2 C 28 %
948 23-12-2019 13:52:17 8.5 C 28 %
949 23-12-2019 14:02:17 8.9 C 27 %
950 23-12-2019 14:12:17 8.9 C 26 %
Sensor: Nr:Datum:Temp:Feuchte:
Aussen-T/F 951 23-12-2019 14:22:18 9 C 25 %
952 23-12-2019 14:32:17 9.1 C 25 %
953 23-12-2019 14:42:17 9.1 C 25 %
954 23-12-2019 14:52:17 8.9 C 25 %
955 23-12-2019 15:02:18 8.7 C 26 %
956 23-12-2019 15:12:18 9.1 C 25 %
957 23-12-2019 15:22:17 9.1 C 25 %
958 23-12-2019 15:32:17 9 C 25 %
959 23-12-2019 15:42:17 9 C 25 %
960 23-12-2019 15:52:17 8.8 C 25 %
961 23-12-2019 16:02:17 8.8 C 25 %
962 23-12-2019 16:12:17 8.6 C 26 %
963 23-12-2019 16:22:18 8.5 C 25 %
964 23-12-2019 16:32:17 8.4 C 25 %
965 23-12-2019 16:42:17 8.5 C 25 %
966 23-12-2019 16:52:18 8.5 C 25 %
967 23-12-2019 17:02:17 8.2 C 25 %
968 23-12-2019 17:12:17 8.4 C 25 %
969 23-12-2019 17:22:17 8 C 25 %
970 23-12-2019 17:32:17 7.9 C 25 %
971 23-12-2019 17:42:18 7.8 C 25 %
972 23-12-2019 17:52:17 7.8 C 25 %
973 23-12-2019 18:02:17 7.9 C 25 %
974 23-12-2019 18:12:17 8 C 23 %
975 23-12-2019 18:22:17 7.9 C 23 %
Sensor: Nr:Datum:Temp:Feuchte:
Aussen-T/F 976 23-12-2019 18:32:17 7.9 C 25 %
977 23-12-2019 18:42:17 7.6 C 25 %
978 23-12-2019 18:52:17 7.5 C 26 %
979 23-12-2019 19:02:17 7.3 C 26 %
980 23-12-2019 19:12:17 6.7 C 29 %
981 23-12-2019 19:22:17 6.4 C 30 %
982 23-12-2019 19:32:17 7.4 C 26 %
983 23-12-2019 19:42:17 7 C 26 %
984 23-12-2019 19:52:17 7 C 27 %
985 23-12-2019 20:02:17 7 C 28 %
986 23-12-2019 20:12:17 6.5 C 30 %
987 23-12-2019 20:22:17 6.8 C 30 %
988 23-12-2019 20:32:18 6.8 C 30 %
989 23-12-2019 20:42:18 6.9 C 30 %
990 23-12-2019 20:52:17 6.9 C 30 %
991 23-12-2019 21:02:18 6.7 C 30 %
992 23-12-2019 21:12:18 7.1 C 28 %
993 23-12-2019 21:22:17 7 C 28 %
994 23-12-2019 21:32:17 6.7 C 31 %
995 23-12-2019 21:42:17 6.5 C 31 %
996 23-12-2019 21:52:17 6.5 C 32 %
997 23-12-2019 22:02:18 6.4 C 31 %
998 23-12-2019 22:12:18 5.8 C 32 %
999 23-12-2019 22:22:17 5.4 C 37 %
1000 23-12-2019 22:32:17 5.7 C 33 %
Sensor: Nr:Datum:Temp:Feuchte:
Aussen-T/F 1001 23-12-2019 22:42:17 5.3 C 34 %
1002 23-12-2019 22:52:17 5.5 C 34 %
1003 23-12-2019 23:02:17 5.4 C 33 %
1004 23-12-2019 23:12:17 5.5 C 32 %
1005 23-12-2019 23:22:18 5.4 C 30 %
1006 23-12-2019 23:32:17 5.8 C 30 %
1007 23-12-2019 23:42:17 4.8 C 33 %
1008 23-12-2019 23:52:17 4.8 C 36 %
1009 24-12-2019 00:02:17 5.6 C 35 %
1010 24-12-2019 00:12:17 5.8 C 32 %
1011 24-12-2019 00:22:17 5.7 C 32 %
1012 24-12-2019 00:32:18 6 C 32 %
1013 24-12-2019 00:42:18 6.1 C 31 %
1014 24-12-2019 00:52:17 6.3 C 31 %
1015 24-12-2019 01:02:17 5.6 C 32 %
1016 24-12-2019 01:12:17 5.9 C 32 %
1017 24-12-2019 01:22:17 6.1 C 30 %
1018 24-12-2019 01:32:17 6.3 C 30 %
1019 24-12-2019 01:42:17 5.9 C 31 %
1020 24-12-2019 01:52:17 5.7 C 33 %
1021 24-12-2019 02:02:17 5.7 C 35 %
1022 24-12-2019 02:12:17 5.8 C 35 %
1023 24-12-2019 02:22:17 5.6 C 35 %
1024 24-12-2019 02:32:18 5.5 C 36 %
1025 24-12-2019 02:42:18 5.5 C 36 %
Sensor: Nr:Datum:Temp:Feuchte:
Aussen-T/F 1026 24-12-2019 02:52:17 6.6 C 30 %
1027 24-12-2019 03:02:18 6.7 C 29 %
1028 24-12-2019 03:12:18 6.3 C 30 %
1029 24-12-2019 03:22:17 5.7 C 31 %
1030 24-12-2019 03:32:17 5.5 C 31 %
1031 24-12-2019 03:42:17 5.7 C 31 %
1032 24-12-2019 03:52:17 5 C 32 %
1033 24-12-2019 04:02:17 5 C 38 %
1034 24-12-2019 04:12:17 5.2 C 37 %
1035 24-12-2019 04:22:17 5.2 C 36 %
1036 24-12-2019 04:32:17 4.8 C 37 %
1037 24-12-2019 04:42:17 4.8 C 39 %
1038 24-12-2019 04:52:17 5.3 C 38 %
1039 24-12-2019 05:02:18 5.4 C 35 %
1040 24-12-2019 05:12:18 5.2 C 35 %
1041 24-12-2019 05:22:17 4.7 C 37 %
1042 24-12-2019 05:32:18 5 C 37 %
1043 24-12-2019 05:42:18 4.6 C 36 %
1044 24-12-2019 05:52:17 4.9 C 37 %
1045 24-12-2019 06:02:18 4.3 C 36 %
1046 24-12-2019 06:12:18 4.6 C 39 %
1047 24-12-2019 06:22:17 4.6 C 38 %
1048 24-12-2019 06:32:17 4.6 C 39 %
1049 24-12-2019 06:42:17 4.5 C 38 %
1050 24-12-2019 06:52:17 4.5 C 39 %
Sensor: Nr:Datum:Temp:Feuchte:
Aussen-T/F 1051 24-12-2019 07:02:17 4.8 C 37 %
1052 24-12-2019 07:12:17 5 C 36 %
1053 24-12-2019 07:22:17 5.4 C 34 %
1054 24-12-2019 07:32:17 5.6 C 33 %
1055 24-12-2019 07:42:17 5.6 C 32 %
1056 24-12-2019 07:52:17 5.8 C 32 %
1057 24-12-2019 08:02:17 5.8 C 31 %
1058 24-12-2019 08:12:17 6 C 30 %
1059 24-12-2019 08:22:17 6.2 C 29 %
1060 24-12-2019 08:32:17 6.2 C 30 %
1061 24-12-2019 08:42:17 6.3 C 30 %
1062 24-12-2019 08:52:18 6.4 C 30 %
1063 24-12-2019 09:02:17 6.5 C 29 %
1064 24-12-2019 09:12:17 6.8 C 29 %
1065 24-12-2019 09:22:17 6.8 C 28 %
1066 24-12-2019 09:32:17 6.8 C 29 %
1067 24-12-2019 09:42:17 6.8 C 28 %
1068 24-12-2019 09:52:17 6.5 C 30 %
1069 24-12-2019 10:02:17 6.4 C 30 %
1070 24-12-2019 10:12:17 6.2 C 31 %
1071 24-12-2019 10:22:17 6.2 C 33 %
1072 24-12-2019 10:32:17 6.3 C 37 %
1073 24-12-2019 10:42:17 6.8 C 37 %
1074 24-12-2019 10:52:17 6.7 C 33 %
1075 24-12-2019 11:02:17 6.8 C 35 %
Sensor: Nr:Datum:Temp:Feuchte:
Aussen-T/F 1076 24-12-2019 11:12:17 6.9 C 34 %
1077 24-12-2019 11:22:17 7.5 C 32 %
1078 24-12-2019 11:32:17 8 C 30 %
1079 24-12-2019 11:42:17 8.2 C 29 %
1080 24-12-2019 11:52:18 8 C 29 %
1081 24-12-2019 12:02:17 7.8 C 30 %
1082 24-12-2019 12:12:17 7.6 C 30 %
1083 24-12-2019 12:22:17 8 C 28 %
1084 24-12-2019 12:32:17 8.2 C 27 %
1085 24-12-2019 12:42:17 8.4 C 27 %
1086 24-12-2019 12:52:18 8.9 C 27 %
1087 24-12-2019 13:02:17 9.2 C 25 %
1088 24-12-2019 13:12:17 9.3 C 25 %
1089 24-12-2019 13:22:17 9.3 C 25 %
1090 24-12-2019 13:32:17 9.2 C 26 %
1091 24-12-2019 13:42:17 9.3 C 26 %
1092 24-12-2019 13:52:17 9.3 C 26 %
1093 24-12-2019 14:02:18 9.4 C 25 %
1094 24-12-2019 14:12:18 9.5 C 25 %
1095 24-12-2019 14:22:17 9.6 C 25 %
1096 24-12-2019 14:32:18 9.7 C 25 %
1097 24-12-2019 14:42:18 9.3 C 26 %
1098 24-12-2019 14:52:17 9.2 C 27 %
1099 24-12-2019 15:02:18 9.1 C 27 %
1100 24-12-2019 15:12:18 9.5 C 26 %
Sensor: Nr:Datum:Temp:Feuchte:
Aussen-T/F 1101 24-12-2019 15:22:17 9.8 C 25 %
1102 24-12-2019 15:32:17 10 C 22 %
1103 24-12-2019 15:42:17 10.1 C 20 %
1104 24-12-2019 15:52:17 10.5 C 20 %
1105 24-12-2019 16:02:17 10.1 C 20 %
1106 24-12-2019 16:12:17 10 C 20 %
1107 24-12-2019 16:22:17 10.2 C 20 %
1108 24-12-2019 16:32:17 9.8 C 20 %
1109 24-12-2019 16:42:17 9.7 C 21 %
1110 24-12-2019 16:52:17 10.1 C 20 %
1111 24-12-2019 17:02:17 9.8 C 20 %
1112 24-12-2019 17:12:17 9.4 C 20 %
1113 24-12-2019 17:22:18 9.6 C 20 %
1114 24-12-2019 17:32:17 8.8 C 20 %
1115 24-12-2019 17:42:17 9.1 C 20 %
1116 24-12-2019 17:52:17 9.3 C 20 %
1117 24-12-2019 18:02:17 9 C 20 %
1118 24-12-2019 18:12:17 8.5 C 26 %
1119 24-12-2019 18:22:17 8.9 C 25 %
1120 24-12-2019 18:32:17 8.2 C 28 %
1121 24-12-2019 18:42:17 7.8 C 31 %
1122 24-12-2019 18:52:17 7.5 C 35 %
1123 24-12-2019 19:02:17 7.6 C 31 %
1124 24-12-2019 19:12:17 7.3 C 31 %
1125 24-12-2019 19:22:17 6.7 C 35 %
Sensor: Nr:Datum:Temp:Feuchte:
Aussen-T/F 1126 24-12-2019 19:32:17 6.5 C 40 %
1127 24-12-2019 19:42:17 6.5 C 36 %
1128 24-12-2019 19:52:17 6.2 C 36 %
1129 24-12-2019 20:02:17 6.7 C 35 %
1130 24-12-2019 20:12:17 7.3 C 30 %
1131 24-12-2019 20:22:17 7.2 C 32 %
1132 24-12-2019 20:32:18 7.1 C 30 %
1133 24-12-2019 20:42:18 7.3 C 31 %
1134 24-12-2019 20:52:17 7.3 C 30 %
1135 24-12-2019 21:02:17 7.1 C 31 %
1136 24-12-2019 21:12:17 7.7 C 30 %
1137 24-12-2019 21:22:17 7.4 C 30 %
1138 24-12-2019 21:32:17 7.6 C 30 %
1139 24-12-2019 21:42:17 7.9 C 29 %
1140 24-12-2019 21:52:17 8.1 C 28 %
1141 24-12-2019 22:02:17 8.6 C 26 %
1142 24-12-2019 22:12:17 8.5 C 26 %
1143 24-12-2019 22:22:17 8.3 C 26 %
1144 24-12-2019 22:32:17 8.4 C 26 %
1145 24-12-2019 22:42:17 8.2 C 27 %
1146 24-12-2019 22:52:17 8 C 28 %
1147 24-12-2019 23:02:17 8.4 C 27 %
1148 24-12-2019 23:12:17 8.4 C 27 %
1149 24-12-2019 23:22:17 8.4 C 27 %
1150 24-12-2019 23:32:17 8.5 C 27 %
Sensor: Nr:Datum:Temp:Feuchte:
Aussen-T/F 1151 24-12-2019 23:42:17 8.5 C 27 %
1152 24-12-2019 23:52:17 8.4 C 27 %
1153 25-12-2019 00:02:17 8.4 C 27 %
1154 25-12-2019 00:12:17 8.4 C 27 %
1155 25-12-2019 00:22:17 8.4 C 28 %
1156 25-12-2019 00:32:17 8.3 C 28 %
1157 25-12-2019 00:42:18 8.2 C 29 %
1158 25-12-2019 00:52:17 8.2 C 29 %
1159 25-12-2019 01:02:17 7.8 C 32 %
1160 25-12-2019 01:12:17 7.7 C 33 %
1161 25-12-2019 01:22:17 7.5 C 35 %
1162 25-12-2019 01:32:18 7.3 C 35 %
1163 25-12-2019 01:42:18 7.5 C 35 %
1164 25-12-2019 01:52:17 7.6 C 33 %
1165 25-12-2019 02:02:17 7.7 C 32 %
1166 25-12-2019 02:12:17 8 C 31 %
1167 25-12-2019 02:22:17 7.9 C 31 %
1168 25-12-2019 02:32:18 7.9 C 31 %
1169 25-12-2019 02:42:18 7.9 C 31 %
1170 25-12-2019 02:52:17 7.9 C 31 %
1171 25-12-2019 03:02:17 7.8 C 31 %
1172 25-12-2019 03:12:17 7.9 C 32 %
1173 25-12-2019 03:22:17 8.1 C 31 %
1174 25-12-2019 03:32:17 8.3 C 30 %
1175 25-12-2019 03:42:17 8.2 C 30 %
Sensor: Nr:Datum:Temp:Feuchte:
Aussen-T/F 1176 25-12-2019 03:52:18 8.2 C 30 %
1177 25-12-2019 04:02:17 7.9 C 34 %
1178 25-12-2019 04:12:17 8 C 34 %
1179 25-12-2019 04:22:18 7.9 C 35 %
1180 25-12-2019 04:32:17 7.9 C 36 %
1181 25-12-2019 04:42:17 7.9 C 38 %
1182 25-12-2019 04:52:17 7.9 C 36 %
1183 25-12-2019 05:02:17 7.9 C 37 %
1184 25-12-2019 05:12:17 7.8 C 37 %
1185 25-12-2019 05:22:18 7.6 C 38 %
1186 25-12-2019 05:32:17 8 C 36 %
1187 25-12-2019 05:42:17 7.9 C 35 %
1188 25-12-2019 05:52:17 7.5 C 35 %
1189 25-12-2019 06:02:18 7.5 C 35 %
1190 25-12-2019 06:12:18 7.2 C 36 %
1191 25-12-2019 06:22:17 7.2 C 37 %
1192 25-12-2019 06:32:18 7.3 C 37 %
1193 25-12-2019 06:42:18 7.3 C 36 %
1194 25-12-2019 06:52:17 7.1 C 39 %
1195 25-12-2019 07:02:18 7.3 C 33 %
1196 25-12-2019 07:12:18 7.1 C 32 %
1197 25-12-2019 07:22:17 6.9 C 35 %
1198 25-12-2019 07:32:18 6.8 C 38 %
1199 25-12-2019 07:42:18 6.9 C 38 %
1200 25-12-2019 07:52:17 7 C 35 %
Sensor: Nr:Datum:Temp:Feuchte:
Aussen-T/F 1201 25-12-2019 08:02:18 6.8 C 32 %
1202 25-12-2019 08:12:18 6.4 C 32 %
1203 25-12-2019 08:22:17 6.2 C 33 %
1204 25-12-2019 08:32:17 6.2 C 32 %
1205 25-12-2019 08:42:17 6.5 C 32 %
1206 25-12-2019 08:52:17 6.7 C 31 %
1207 25-12-2019 09:02:17 6.9 C 30 %
1208 25-12-2019 09:12:17 6.9 C 30 %
1209 25-12-2019 09:22:18 6.8 C 30 %
1210 25-12-2019 09:32:17 7.3 C 28 %
1211 25-12-2019 09:42:17 7.3 C 27 %
1212 25-12-2019 09:52:17 7.3 C 27 %
1213 25-12-2019 10:02:17 7.1 C 29 %
1214 25-12-2019 10:12:17 7.3 C 27 %
1215 25-12-2019 10:22:18 7.6 C 26 %
1216 25-12-2019 10:32:17 7.7 C 26 %
1217 25-12-2019 10:42:17 7.8 C 25 %
1218 25-12-2019 10:52:17 7.5 C 26 %
1219 25-12-2019 11:02:17 7.5 C 26 %
1220 25-12-2019 11:12:17 7.5 C 26 %
1221 25-12-2019 11:22:17 7.7 C 26 %
1222 25-12-2019 11:32:17 7.4 C 26 %
1223 25-12-2019 11:42:17 7.4 C 27 %
1224 25-12-2019 11:52:18 7.1 C 28 %
1225 25-12-2019 12:02:17 7.1 C 29 %
Sensor: Nr:Datum:Temp:Feuchte:
Aussen-T/F 1226 25-12-2019 12:12:17 7.6 C 27 %
1227 25-12-2019 12:22:17 7.6 C 27 %
1228 25-12-2019 12:32:17 7.7 C 27 %
1229 25-12-2019 12:42:17 7.8 C 27 %
1230 25-12-2019 12:52:18 7.6 C 27 %
1231 25-12-2019 13:02:17 7.1 C 29 %
1232 25-12-2019 13:12:17 7 C 31 %
1233 25-12-2019 13:22:18 6.9 C 31 %
1234 25-12-2019 13:32:17 7.1 C 30 %
1235 25-12-2019 13:42:17 7 C 30 %
1236 25-12-2019 13:52:17 6.9 C 30 %
1237 25-12-2019 14:02:17 7.1 C 30 %
1238 25-12-2019 14:12:17 7.4 C 29 %
1239 25-12-2019 14:22:18 7.6 C 28 %
1240 25-12-2019 14:32:17 7.7 C 29 %
1241 25-12-2019 14:42:17 7.6 C 29 %
1242 25-12-2019 14:52:17 7.1 C 31 %
1243 25-12-2019 15:02:17 7.1 C 32 %
1244 25-12-2019 15:12:17 7.1 C 30 %
1245 25-12-2019 15:22:18 7.1 C 31 %
1246 25-12-2019 15:32:17 7.4 C 30 %
1247 25-12-2019 15:42:17 7.3 C 31 %
1248 25-12-2019 15:52:17 7.2 C 30 %
1249 25-12-2019 16:02:17 7.2 C 30 %
1250 25-12-2019 16:12:17 6.9 C 31 %
Sensor: Nr:Datum:Temp:Feuchte:
Aussen-T/F 1251 25-12-2019 16:22:17 6.8 C 32 %
1252 25-12-2019 16:32:17 6.7 C 35 %
1253 25-12-2019 16:42:17 6.9 C 32 %
1254 25-12-2019 16:52:17 6.9 C 31 %
1255 25-12-2019 17:02:17 6.8 C 30 %
1256 25-12-2019 17:12:17 6.7 C 30 %
1257 25-12-2019 17:22:18 6.6 C 31 %
1258 25-12-2019 17:32:17 6.2 C 31 %
1259 25-12-2019 17:42:17 5.7 C 35 %
1260 25-12-2019 17:52:18 5.9 C 35 %
1261 25-12-2019 18:02:17 6 C 33 %
1262 25-12-2019 18:12:17 6.1 C 32 %
1263 25-12-2019 18:22:17 6.2 C 33 %
1264 25-12-2019 18:32:17 6.2 C 33 %
1265 25-12-2019 18:42:17 6.2 C 32 %
1266 25-12-2019 18:52:17 6.2 C 32 %
1267 25-12-2019 19:02:17 6 C 33 %
1268 25-12-2019 19:12:17 5.9 C 33 %
1269 25-12-2019 19:22:17 6.1 C 32 %
1270 25-12-2019 19:32:18 6.1 C 32 %
1271 25-12-2019 19:42:18 6 C 33 %
1272 25-12-2019 19:52:17 5.9 C 33 %
1273 25-12-2019 20:02:17 5.8 C 35 %
1274 25-12-2019 20:12:17 5.9 C 35 %
1275 25-12-2019 20:22:18 5.9 C 34 %
Sensor: Nr:Datum:Temp:Feuchte:
Aussen-T/F 1276 25-12-2019 20:32:17 5.8 C 34 %
1277 25-12-2019 20:42:17 5.6 C 37 %
1278 25-12-2019 20:52:17 5.5 C 38 %
1279 25-12-2019 21:02:18 5.5 C 38 %
1280 25-12-2019 21:12:18 5.4 C 40 %
1281 25-12-2019 21:22:17 5.3 C 41 %
1282 25-12-2019 21:32:17 5.3 C 43 %
1283 25-12-2019 21:42:17 5.3 C 42 %
1284 25-12-2019 21:52:17 5.2 C 42 %
1285 25-12-2019 22:02:18 5.2 C 42 %
1286 25-12-2019 22:12:18 5.1 C 43 %
1287 25-12-2019 22:22:17 5.2 C 42 %
1288 25-12-2019 22:32:18 5.1 C 41 %
1289 25-12-2019 22:42:18 5.1 C 42 %
1290 25-12-2019 22:52:17 5.2 C 42 %
1291 25-12-2019 23:02:18 5.2 C 42 %
1292 25-12-2019 23:12:18 5.2 C 42 %
1293 25-12-2019 23:22:17 5.2 C 42 %
1294 25-12-2019 23:32:17 5.1 C 42 %
1295 25-12-2019 23:42:17 4.7 C 42 %
1296 25-12-2019 23:52:17 4.5 C 42 %
1297 26-12-2019 00:02:17 4.6 C 43 %
1298 26-12-2019 00:12:18 4 C 42 %
1299 26-12-2019 00:22:17 3.6 C 42 %
1300 26-12-2019 00:32:18 3.9 C 44 %
Sensor: Nr:Datum:Temp:Feuchte:
Aussen-T/F 1301 26-12-2019 00:42:18 3.9 C 44 %
1302 26-12-2019 00:52:17 4.1 C 43 %
1303 26-12-2019 01:02:18 4.4 C 43 %
1304 26-12-2019 01:12:18 4.3 C 43 %
1305 26-12-2019 01:22:17 4.3 C 43 %
1306 26-12-2019 01:32:17 4.4 C 43 %
1307 26-12-2019 01:42:17 4.4 C 43 %
1308 26-12-2019 01:52:17 4.3 C 42 %
1309 26-12-2019 02:02:18 4.3 C 42 %
1310 26-12-2019 02:12:18 4.4 C 42 %
1311 26-12-2019 02:22:17 4.2 C 42 %
1312 26-12-2019 02:32:17 4 C 42 %
1313 26-12-2019 02:42:17 4 C 42 %
1314 26-12-2019 02:52:17 4.2 C 42 %
1315 26-12-2019 03:02:18 4.2 C 42 %
1316 26-12-2019 03:12:18 4.1 C 42 %
1317 26-12-2019 03:22:17 4.1 C 42 %
1318 26-12-2019 03:32:17 4.1 C 42 %
1319 26-12-2019 03:42:17 4.1 C 42 %
1320 26-12-2019 03:52:17 3.9 C 43 %
1321 26-12-2019 04:02:17 3.6 C 42 %
1322 26-12-2019 04:12:17 3.6 C 42 %
1323 26-12-2019 04:22:18 3.4 C 42 %
1324 26-12-2019 04:32:17 3 C 42 %
1325 26-12-2019 04:42:17 3.1 C 42 %
Sensor: Nr:Datum:Temp:Feuchte:
Aussen-T/F 1326 26-12-2019 04:52:17 3.1 C 43 %
1327 26-12-2019 05:02:17 3.3 C 43 %
1328 26-12-2019 05:12:17 3.5 C 43 %
1329 26-12-2019 05:22:17 3.4 C 43 %
1330 26-12-2019 05:32:18 3.5 C 43 %
1331 26-12-2019 05:42:18 3.4 C 43 %
1332 26-12-2019 05:52:17 3.5 C 43 %
1333 26-12-2019 06:02:17 3.6 C 43 %
1334 26-12-2019 06:12:18 3.6 C 43 %
1335 26-12-2019 06:22:17 3.5 C 43 %
1336 26-12-2019 06:32:18 3.6 C 43 %
1337 26-12-2019 06:42:18 3.5 C 43 %
1338 26-12-2019 06:52:17 3.5 C 43 %
1339 26-12-2019 07:02:18 3.5 C 43 %
1340 26-12-2019 07:12:18 3.5 C 43 %
1341 26-12-2019 07:22:17 3.4 C 43 %
1342 26-12-2019 07:32:17 3.4 C 43 %
1343 26-12-2019 07:42:17 3.4 C 43 %
1344 26-12-2019 07:52:17 3.4 C 43 %
1345 26-12-2019 08:02:18 3.4 C 43 %
1346 26-12-2019 08:12:18 3.4 C 43 %
1347 26-12-2019 08:22:17 3.5 C 43 %
1348 26-12-2019 08:32:17 3.4 C 43 %
1349 26-12-2019 08:42:17 3.4 C 43 %
1350 26-12-2019 08:52:17 3.5 C 43 %
Sensor: Nr:Datum:Temp:Feuchte:
Aussen-T/F 1351 26-12-2019 09:02:17 3.5 C 43 %
1352 26-12-2019 09:12:17 3.5 C 43 %
1353 26-12-2019 09:22:17 3.4 C 42 %
1354 26-12-2019 09:32:17 3.5 C 43 %
1355 26-12-2019 09:42:17 3.6 C 42 %
1356 26-12-2019 09:52:18 3.6 C 42 %
1357 26-12-2019 10:02:17 3.6 C 42 %
1358 26-12-2019 10:12:17 3.6 C 42 %
1359 26-12-2019 10:22:18 3.8 C 42 %
1360 26-12-2019 10:32:17 4 C 41 %
1361 26-12-2019 10:42:17 4.3 C 41 %
1362 26-12-2019 10:52:18 4.5 C 41 %
1363 26-12-2019 11:02:17 4.7 C 41 %
1364 26-12-2019 11:12:17 4.8 C 41 %
1365 26-12-2019 11:22:17 5 C 40 %
1366 26-12-2019 11:32:17 5.4 C 40 %
1367 26-12-2019 11:42:17 5.5 C 39 %
1368 26-12-2019 11:52:17 5.6 C 37 %
1369 26-12-2019 12:02:17 5.7 C 36 %
1370 26-12-2019 12:12:17 5.7 C 36 %
1371 26-12-2019 12:22:17 5.7 C 35 %
1372 26-12-2019 12:32:18 5.9 C 35 %
1373 26-12-2019 12:42:18 6 C 35 %
1374 26-12-2019 12:52:17 6 C 36 %
1375 26-12-2019 13:02:18 5.9 C 36 %
Sensor: Nr:Datum:Temp:Feuchte:
Aussen-T/F 1376 26-12-2019 13:12:18 5.9 C 37 %
1377 26-12-2019 13:22:17 5.8 C 36 %
1378 26-12-2019 13:32:18 5.8 C 36 %
1379 26-12-2019 13:42:18 5.7 C 36 %
1380 26-12-2019 13:52:17 5.7 C 36 %
1381 26-12-2019 14:02:18 5.7 C 36 %
1382 26-12-2019 14:12:18 5.8 C 35 %
1383 26-12-2019 14:22:17 6 C 35 %
1384 26-12-2019 14:32:17 6 C 35 %
1385 26-12-2019 14:42:17 5.7 C 35 %
1386 26-12-2019 14:52:17 5.6 C 36 %
1387 26-12-2019 15:02:17 5.5 C 36 %
1388 26-12-2019 15:12:17 5.4 C 36 %
1389 26-12-2019 15:22:17 5.1 C 38 %
1390 26-12-2019 15:32:17 5 C 37 %
1391 26-12-2019 15:42:17 4.8 C 39 %
1392 26-12-2019 15:52:18 4.8 C 39 %
1393 26-12-2019 16:02:17 4.7 C 38 %
1394 26-12-2019 16:12:17 4.6 C 39 %
1395 26-12-2019 16:22:17 4.5 C 40 %
1396 26-12-2019 16:32:17 4.4 C 41 %
1397 26-12-2019 16:42:18 4.4 C 40 %
1398 26-12-2019 16:53:17 4.3 C 41 %
1399 26-12-2019 17:02:17 4.4 C 40 %
1400 26-12-2019 17:12:17 4.3 C 40 %
Sensor: Nr:Datum:Temp:Feuchte:
Aussen-T/F 1401 26-12-2019 17:22:17 4.3 C 40 %
1402 26-12-2019 17:32:17 4.4 C 40 %
1403 26-12-2019 17:42:17 4.1 C 40 %
1404 26-12-2019 17:52:17 4.1 C 40 %
1405 26-12-2019 18:02:17 4 C 40 %
1406 26-12-2019 18:12:17 4 C 41 %
1407 26-12-2019 18:22:17 4.1 C 41 %
1408 26-12-2019 18:32:17 4.1 C 41 %
1409 26-12-2019 18:42:18 4.1 C 40 %
1410 26-12-2019 18:53:17 4.1 C 40 %
1411 26-12-2019 19:02:17 4 C 40 %
1412 26-12-2019 19:12:17 4 C 41 %
1413 26-12-2019 19:23:17 4 C 41 %
1414 26-12-2019 19:32:17 3.8 C 41 %
1415 26-12-2019 19:42:17 4 C 41 %
1416 26-12-2019 19:53:17 3.8 C 41 %
1417 26-12-2019 20:02:17 3.8 C 42 %
1418 26-12-2019 20:12:17 3.9 C 42 %
1419 26-12-2019 20:23:17 4 C 41 %
1420 26-12-2019 20:32:17 4.1 C 40 %
1421 26-12-2019 20:42:17 4.2 C 39 %
1422 26-12-2019 20:53:17 4.1 C 38 %
1423 26-12-2019 21:02:17 4.3 C 37 %
1424 26-12-2019 21:12:17 4.2 C 38 %
1425 26-12-2019 21:23:17 4.1 C 38 %
Sensor: Nr:Datum:Temp:Feuchte:
Aussen-T/F 1426 26-12-2019 21:32:18 4.1 C 38 %
1427 26-12-2019 21:42:18 4.2 C 37 %
1428 26-12-2019 21:52:17 4.3 C 37 %
1429 26-12-2019 22:02:18 4.1 C 39 %
1430 26-12-2019 22:12:18 4.1 C 41 %
1431 26-12-2019 22:22:17 4.1 C 41 %
1432 26-12-2019 22:33:17 4.1 C 41 %
1433 26-12-2019 22:43:17 4.1 C 42 %
1434 26-12-2019 22:52:17 4.1 C 42 %
1435 26-12-2019 23:03:17 4.1 C 43 %
1436 26-12-2019 23:13:17 4.1 C 43 %
1437 26-12-2019 23:23:17 4 C 43 %
1438 26-12-2019 23:32:17 4 C 43 %
1439 26-12-2019 23:42:17 4 C 42 %
1440 26-12-2019 23:53:17 4 C 42 %
1441 27-12-2019 00:02:17 4 C 42 %
1442 27-12-2019 00:12:17 4 C 42 %
1443 27-12-2019 00:23:17 4 C 42 %
1444 27-12-2019 00:32:17 4 C 42 %
1445 27-12-2019 00:42:18 4.1 C 42 %
1446 27-12-2019 00:53:17 4.1 C 42 %
1447 27-12-2019 01:03:18 4.1 C 42 %
1448 27-12-2019 01:13:18 4.1 C 42 %
1449 27-12-2019 01:23:17 4.1 C 42 %
1450 27-12-2019 01:33:17 4.1 C 42 %
Sensor: Nr:Datum:Temp:Feuchte:
Aussen-T/F 1451 27-12-2019 01:43:17 4.1 C 42 %
1452 27-12-2019 01:53:18 4.1 C 42 %
1453 27-12-2019 02:03:17 4.1 C 42 %
1454 27-12-2019 02:13:17 4.1 C 42 %
1455 27-12-2019 02:23:17 4.1 C 42 %
1456 27-12-2019 02:33:18 4.1 C 42 %
1457 27-12-2019 02:43:19 4.1 C 42 %
1458 27-12-2019 02:53:17 4.2 C 42 %
1459 27-12-2019 03:03:17 4.3 C 42 %
1460 27-12-2019 03:13:17 4.2 C 42 %
1461 27-12-2019 03:23:17 4.3 C 42 %
1462 27-12-2019 03:33:17 4.3 C 42 %
1463 27-12-2019 03:43:18 4.3 C 42 %
1464 27-12-2019 03:53:17 4.3 C 42 %
1465 27-12-2019 04:03:17 4.3 C 42 %
1466 27-12-2019 04:13:17 4.3 C 42 %
1467 27-12-2019 04:23:17 4.3 C 42 %
1468 27-12-2019 04:33:17 4.3 C 42 %
1469 27-12-2019 04:43:17 4.3 C 42 %
1470 27-12-2019 04:53:18 4.4 C 42 %
1471 27-12-2019 05:03:17 4.4 C 42 %
1472 27-12-2019 05:13:17 4.4 C 42 %
1473 27-12-2019 05:23:17 4.4 C 42 %
1474 27-12-2019 05:33:17 4.3 C 42 %
1475 27-12-2019 05:43:17 4.4 C 42 %
Sensor: Nr:Datum:Temp:Feuchte:
Aussen-T/F 1476 27-12-2019 05:53:17 4.4 C 42 %
1477 27-12-2019 06:03:17 4.4 C 42 %
1478 27-12-2019 06:13:17 4.4 C 42 %
1479 27-12-2019 06:23:17 4.4 C 42 %
1480 27-12-2019 06:33:17 4.4 C 42 %
1481 27-12-2019 06:43:17 4.4 C 42 %
1482 27-12-2019 06:53:17 4.4 C 42 %
1483 27-12-2019 07:03:17 4.5 C 42 %
1484 27-12-2019 07:13:17 4.4 C 42 %
1485 27-12-2019 07:23:18 4.4 C 42 %
1486 27-12-2019 07:33:17 4.4 C 42 %
1487 27-12-2019 07:43:17 4.4 C 42 %
1488 27-12-2019 07:53:17 4.3 C 42 %
1489 27-12-2019 08:03:17 4.3 C 42 %
1490 27-12-2019 08:13:17 4.3 C 42 %
1491 27-12-2019 08:23:17 4.3 C 42 %
1492 27-12-2019 08:33:17 4.3 C 42 %
1493 27-12-2019 08:43:17 4.3 C 42 %
1494 27-12-2019 08:53:18 4.3 C 42 %
1495 27-12-2019 09:03:17 4.4 C 42 %
1496 27-12-2019 09:13:17 4.4 C 42 %
1497 27-12-2019 09:23:17 4.3 C 42 %
1498 27-12-2019 09:33:17 4.5 C 42 %
1499 27-12-2019 09:43:17 4.6 C 42 %
1500 27-12-2019 09:53:17 4.8 C 41 %
Sensor: Nr:Datum:Temp:Feuchte:
Aussen-T/F 1501 27-12-2019 10:03:17 4.9 C 41 %
1502 27-12-2019 10:13:17 4.8 C 40 %
1503 27-12-2019 10:23:17 4.8 C 40 %
1504 27-12-2019 10:33:18 4.9 C 40 %
1505 27-12-2019 10:43:18 4.9 C 40 %
1506 27-12-2019 10:53:17 5 C 38 %
1507 27-12-2019 11:03:18 5 C 38 %
1508 27-12-2019 11:13:18 5.1 C 37 %
1509 27-12-2019 11:23:17 5.1 C 37 %
1510 27-12-2019 11:33:17 5.2 C 36 %
1511 27-12-2019 11:43:17 5.7 C 33 %
1512 27-12-2019 11:53:17 6 C 31 %
1513 27-12-2019 12:03:17 6.1 C 31 %
1514 27-12-2019 12:13:17 5.9 C 31 %
1515 27-12-2019 12:23:17 5.9 C 31 %
1516 27-12-2019 12:33:17 6 C 31 %
1517 27-12-2019 12:43:17 6 C 31 %
1518 27-12-2019 12:53:17 5.9 C 31 %
1519 27-12-2019 13:03:17 5.7 C 31 %
1520 27-12-2019 13:13:17 5.7 C 31 %
1521 27-12-2019 13:23:17 5.6 C 31 %
1522 27-12-2019 13:33:17 5.7 C 31 %
1523 27-12-2019 13:43:17 5.7 C 30 %
1524 27-12-2019 13:53:17 5.8 C 30 %
1525 27-12-2019 14:03:18 5.9 C 30 %
Sensor: Nr:Datum:Temp:Feuchte:
Aussen-T/F 1526 27-12-2019 14:13:18 6.1 C 29 %
1527 27-12-2019 14:23:18 5.9 C 29 %
1528 27-12-2019 14:33:17 6 C 30 %
1529 27-12-2019 14:43:17 5.9 C 28 %
1530 27-12-2019 14:53:18 5.8 C 26 %
1531 27-12-2019 15:03:17 5.7 C 27 %
1532 27-12-2019 15:13:17 5.7 C 28 %
1533 27-12-2019 15:23:18 5.6 C 29 %
1534 27-12-2019 15:33:17 5.6 C 29 %
1535 27-12-2019 15:43:17 5.4 C 30 %
1536 27-12-2019 15:53:17 5.3 C 31 %
1537 27-12-2019 16:03:17 5.1 C 33 %
1538 27-12-2019 16:13:17 4.9 C 33 %
1539 27-12-2019 16:23:17 4.9 C 33 %
1540 27-12-2019 16:33:17 4.8 C 34 %
1541 27-12-2019 16:43:17 4.7 C 33 %
1542 27-12-2019 16:53:17 4.6 C 34 %
1543 27-12-2019 17:03:17 4.5 C 34 %
1544 27-12-2019 17:13:17 4.5 C 35 %
1545 27-12-2019 17:23:17 4.5 C 33 %
1546 27-12-2019 17:33:18 4.5 C 34 %
1547 27-12-2019 17:43:18 4.5 C 34 %
1548 27-12-2019 17:53:17 4.4 C 34 %
1549 27-12-2019 18:03:18 4.4 C 33 %
1550 27-12-2019 18:13:18 4.4 C 33 %
Sensor: Nr:Datum:Temp:Feuchte:
Aussen-T/F 1551 27-12-2019 18:23:17 4.4 C 32 %
1552 27-12-2019 18:33:18 4.4 C 34 %
1553 27-12-2019 18:43:18 4.3 C 34 %
1554 27-12-2019 18:53:17 4.2 C 33 %
1555 27-12-2019 19:03:17 4.2 C 33 %
1556 27-12-2019 19:13:17 4.2 C 33 %
1557 27-12-2019 19:23:17 4.3 C 32 %
1558 27-12-2019 19:33:17 4.2 C 33 %
1559 27-12-2019 19:43:17 4.1 C 34 %
1560 27-12-2019 19:53:18 3.9 C 35 %
1561 27-12-2019 20:03:17 3.8 C 34 %
1562 27-12-2019 20:13:17 4 C 32 %
1563 27-12-2019 20:23:17 4 C 32 %
1564 27-12-2019 20:33:18 4 C 32 %
1565 27-12-2019 20:43:18 4 C 31 %
1566 27-12-2019 20:53:17 4.1 C 31 %
1567 27-12-2019 21:03:18 4.1 C 31 %
1568 27-12-2019 21:13:18 4 C 31 %
1569 27-12-2019 21:23:17 4 C 31 %
1570 27-12-2019 21:33:18 3.9 C 33 %
1571 27-12-2019 21:43:18 3.9 C 32 %
1572 27-12-2019 21:53:17 3.7 C 32 %
1573 27-12-2019 22:03:17 3.6 C 32 %
1574 27-12-2019 22:13:17 3.3 C 32 %
1575 27-12-2019 22:23:17 3.2 C 32 %
Sensor: Nr:Datum:Temp:Feuchte:
Aussen-T/F 1576 27-12-2019 22:33:17 2.7 C 33 %
1577 27-12-2019 22:43:17 2.2 C 34 %
1578 27-12-2019 22:53:17 2 C 35 %
1579 27-12-2019 23:03:18 1.7 C 38 %
1580 27-12-2019 23:13:18 1.3 C 39 %
1581 27-12-2019 23:23:17 1.2 C 41 %
1582 27-12-2019 23:33:17 0.9 C 42 %
1583 27-12-2019 23:43:17 0.8 C 41 %
1584 27-12-2019 23:53:17 0.7 C 41 %
1585 28-12-2019 00:03:17 0.5 C 40 %
1586 28-12-2019 00:13:17 0.4 C 41 %
1587 28-12-2019 00:23:18 0.4 C 41 %
1588 28-12-2019 00:33:17 0.3 C 41 %
1589 28-12-2019 00:43:17 0.3 C 41 %
1590 28-12-2019 00:53:17 0.2 C 40 %
1591 28-12-2019 01:03:17 0.1 C 40 %
1592 28-12-2019 01:13:17 -0.2 C 43 %
1593 28-12-2019 01:23:17 -0.5 C 43 %
1594 28-12-2019 01:33:17 -0.3 C 44 %
1595 28-12-2019 01:43:17 -0.7 C 42 %
1596 28-12-2019 01:53:17 -1.1 C 43 %
1597 28-12-2019 02:03:17 -1.3 C 45 %
1598 28-12-2019 02:13:17 -1.5 C 44 %
1599 28-12-2019 02:23:17 -1.7 C 44 %
1600 28-12-2019 02:33:18 -1.5 C 45 %
Sensor: Nr:Datum:Temp:Feuchte:
Aussen-T/F 1601 28-12-2019 02:43:18 -1.5 C 45 %
1602 28-12-2019 02:53:17 -1.6 C 45 %
1603 28-12-2019 03:03:17 -1.9 C 45 %
1604 28-12-2019 03:13:18 -1.7 C 45 %
1605 28-12-2019 03:23:17 -2.1 C 45 %
1606 28-12-2019 03:33:17 -2.1 C 45 %
1607 28-12-2019 03:43:17 -2.1 C 45 %
1608 28-12-2019 03:53:18 -2.4 C 45 %
1609 28-12-2019 04:03:17 -2.4 C 45 %
1610 28-12-2019 04:13:17 -2.4 C 45 %
1611 28-12-2019 04:23:17 -2.3 C 45 %
1612 28-12-2019 04:33:17 -2.4 C 45 %
1613 28-12-2019 04:43:18 -2.3 C 45 %
1614 28-12-2019 04:53:17 -2.4 C 45 %
1615 28-12-2019 05:03:18 -2.6 C 44 %
1616 28-12-2019 05:13:18 -2.7 C 44 %
1617 28-12-2019 05:23:17 -2.5 C 45 %
1618 28-12-2019 05:33:18 -2.5 C 45 %
1619 28-12-2019 05:43:18 -2.1 C 45 %
1620 28-12-2019 05:53:17 -2.3 C 45 %
1621 28-12-2019 06:03:17 -1.8 C 45 %
1622 28-12-2019 06:13:18 -2.1 C 44 %
1623 28-12-2019 06:23:17 -2.2 C 43 %
1624 28-12-2019 06:33:17 -2 C 44 %
1625 28-12-2019 06:43:18 -1.9 C 44 %
Sensor: Nr:Datum:Temp:Feuchte:
Aussen-T/F 1626 28-12-2019 06:53:17 -2.1 C 43 %
1627 28-12-2019 07:03:18 -2 C 43 %
1628 28-12-2019 07:13:18 -2.3 C 43 %
1629 28-12-2019 07:23:17 -2.8 C 42 %
1630 28-12-2019 07:33:17 -2.3 C 43 %
1631 28-12-2019 07:43:17 -2.4 C 43 %
1632 28-12-2019 07:53:17 -2.2 C 44 %
1633 28-12-2019 08:03:17 -2.6 C 43 %
1634 28-12-2019 08:13:17 -3 C 42 %
1635 28-12-2019 08:23:18 -3.1 C 42 %
1636 28-12-2019 08:33:17 -3.2 C 42 %
1637 28-12-2019 08:43:17 -3.2 C 42 %
1638 28-12-2019 08:53:17 -2.9 C 43 %
1639 28-12-2019 09:03:18 -2.9 C 43 %
1640 28-12-2019 09:13:18 -2.8 C 43 %
1641 28-12-2019 09:23:17 -2.7 C 43 %
1642 28-12-2019 09:33:17 -2.5 C 43 %
1643 28-12-2019 09:43:17 -1.9 C 45 %
1644 28-12-2019 09:53:17 -1.7 C 45 %
1645 28-12-2019 10:03:17 -1.6 C 45 %
1646 28-12-2019 10:13:17 -1.4 C 45 %
1647 28-12-2019 10:23:17 -1.5 C 45 %
1648 28-12-2019 10:33:18 -1.3 C 45 %
1649 28-12-2019 10:43:18 -1.3 C 45 %
1650 28-12-2019 10:53:17 -1.1 C 45 %
Sensor: Nr:Datum:Temp:Feuchte:
Aussen-T/F 1651 28-12-2019 11:03:18 -1 C 44 %
1652 28-12-2019 11:13:18 -0.9 C 44 %
1653 28-12-2019 11:23:17 -0.6 C 44 %
1654 28-12-2019 11:33:17 -0.5 C 43 %
1655 28-12-2019 11:43:18 -0.3 C 42 %
1656 28-12-2019 11:53:17 -0.2 C 42 %
1657 28-12-2019 12:03:17 -0.2 C 41 %
1658 28-12-2019 12:13:17 0 C 41 %
1659 28-12-2019 12:23:17 0.2 C 41 %
1660 28-12-2019 12:33:17 0.3 C 41 %
1661 28-12-2019 12:43:18 0.4 C 40 %
1662 28-12-2019 12:53:17 0.5 C 40 %
1663 28-12-2019 13:03:18 0.7 C 40 %
1664 28-12-2019 13:13:18 0.8 C 40 %
1665 28-12-2019 13:23:17 0.8 C 40 %
1666 28-12-2019 13:33:17 0.9 C 40 %
1667 28-12-2019 13:43:17 0.8 C 40 %
1668 28-12-2019 13:53:17 0.6 C 40 %
1669 28-12-2019 14:03:17 0.6 C 41 %
1670 28-12-2019 14:13:17 0.7 C 41 %
1671 28-12-2019 14:23:17 0.8 C 40 %
1672 28-12-2019 14:33:17 0.7 C 40 %
1673 28-12-2019 14:43:17 0.6 C 40 %
1674 28-12-2019 14:53:17 0.5 C 40 %
1675 28-12-2019 15:03:17 0.5 C 40 %
Sensor: Nr:Datum:Temp:Feuchte:
Aussen-T/F 1676 28-12-2019 15:13:18 0.5 C 40 %
1677 28-12-2019 15:23:17 0.2 C 40 %
1678 28-12-2019 15:33:17 0.4 C 40 %
1679 28-12-2019 15:43:17 0.3 C 39 %
1680 28-12-2019 15:53:18 0.4 C 39 %
1681 28-12-2019 16:03:17 0.3 C 38 %
1682 28-12-2019 16:13:17 0.2 C 38 %
1683 28-12-2019 16:23:17 0 C 39 %
1684 28-12-2019 16:33:17 0 C 39 %
1685 28-12-2019 16:43:17 -0.1 C 38 %
1686 28-12-2019 16:53:17 -0.3 C 39 %
1687 28-12-2019 17:03:17 -0.4 C 39 %
1688 28-12-2019 17:13:17 -0.4 C 40 %
1689 28-12-2019 17:23:17 -0.5 C 40 %
1690 28-12-2019 17:33:18 -0.6 C 40 %
1691 28-12-2019 17:43:18 -0.7 C 41 %
1692 28-12-2019 17:53:17 -1.3 C 41 %
1693 28-12-2019 18:03:17 -1.2 C 44 %
1694 28-12-2019 18:13:17 -1.1 C 43 %
1695 28-12-2019 18:23:17 -1.1 C 43 %
1696 28-12-2019 18:33:17 -0.9 C 43 %
1697 28-12-2019 18:43:17 -1.2 C 43 %
1698 28-12-2019 18:53:17 -0.9 C 43 %
1699 28-12-2019 19:03:17 -1.2 C 42 %
1700 28-12-2019 19:13:18 -1.7 C 42 %
Sensor: Nr:Datum:Temp:Feuchte:
Aussen-T/F 1701 28-12-2019 19:23:17 -1.9 C 43 %
1702 28-12-2019 19:33:18 -1.9 C 44 %
1703 28-12-2019 19:43:18 -1.9 C 44 %
1704 28-12-2019 19:53:17 -1.8 C 44 %
1705 28-12-2019 20:03:17 -1.9 C 44 %
1706 28-12-2019 20:13:17 -1.7 C 45 %
1707 28-12-2019 20:23:17 -1.2 C 45 %
1708 28-12-2019 20:33:18 -1.2 C 43 %
1709 28-12-2019 20:43:18 -1.4 C 43 %
1710 28-12-2019 20:53:18 -1.2 C 44 %
1711 28-12-2019 21:03:17 -1.6 C 43 %
1712 28-12-2019 21:13:17 -1.3 C 44 %
1713 28-12-2019 21:23:17 -1.4 C 41 %
1714 28-12-2019 21:33:17 -1.8 C 41 %
1715 28-12-2019 21:43:18 -1.6 C 43 %
1716 28-12-2019 21:53:17 -1.7 C 42 %
1717 28-12-2019 22:03:18 -1.7 C 42 %
1718 28-12-2019 22:13:18 -2.2 C 41 %
1719 28-12-2019 22:23:17 -2.3 C 42 %
1720 28-12-2019 22:33:17 -2.3 C 42 %
1721 28-12-2019 22:43:17 -2.5 C 42 %
1722 28-12-2019 22:53:17 -2.2 C 43 %
1723 28-12-2019 23:03:17 -2.5 C 42 %
1724 28-12-2019 23:13:17 -2.3 C 43 %
1725 28-12-2019 23:23:17 -2.3 C 43 %
Sensor: Nr:Datum:Temp:Feuchte:
Aussen-T/F 1726 28-12-2019 23:33:17 -2.7 C 42 %
1727 28-12-2019 23:43:17 -2.6 C 43 %
1728 28-12-2019 23:53:17 -2.9 C 42 %
1729 29-12-2019 00:03:18 -2.6 C 43 %
1730 29-12-2019 00:13:18 -2.9 C 43 %
1731 29-12-2019 00:23:17 -3.1 C 42 %
1732 29-12-2019 00:33:17 -3.2 C 43 %
1733 29-12-2019 00:43:17 -3.1 C 43 %
1734 29-12-2019 00:53:17 -3.1 C 43 %
1735 29-12-2019 01:03:17 -3.3 C 42 %
1736 29-12-2019 01:13:17 -3.3 C 43 %
1737 29-12-2019 01:23:17 -3.5 C 42 %
1738 29-12-2019 01:33:17 -3.7 C 42 %
1739 29-12-2019 01:43:17 -3 C 44 %
1740 29-12-2019 01:53:17 -3.5 C 42 %
1741 29-12-2019 02:03:17 -3.7 C 41 %
1742 29-12-2019 02:13:17 -3.8 C 42 %
1743 29-12-2019 02:23:17 -3.3 C 43 %
1744 29-12-2019 02:33:17 -3.7 C 41 %
1745 29-12-2019 02:43:17 -3.7 C 42 %
1746 29-12-2019 02:53:18 -3.8 C 41 %
1747 29-12-2019 03:03:17 -4 C 41 %
1748 29-12-2019 03:13:17 -4 C 42 %
1749 29-12-2019 03:23:17 -4 C 41 %
1750 29-12-2019 03:33:17 -4.1 C 41 %
Sensor: Nr:Datum:Temp:Feuchte:
Aussen-T/F 1751 29-12-2019 03:43:17 -4.1 C 41 %
1752 29-12-2019 03:53:18 -4 C 42 %
1753 29-12-2019 04:03:17 -4.2 C 41 %
1754 29-12-2019 04:13:17 -3.9 C 42 %
1755 29-12-2019 04:23:17 -4.1 C 41 %
1756 29-12-2019 04:33:17 -4.1 C 41 %
1757 29-12-2019 04:43:17 -4.4 C 41 %
1758 29-12-2019 04:53:17 -4.2 C 41 %
1759 29-12-2019 05:03:17 -4.3 C 41 %
1760 29-12-2019 05:13:17 -4.5 C 41 %
1761 29-12-2019 05:23:17 -4.5 C 41 %
1762 29-12-2019 05:33:18 -4.4 C 41 %
1763 29-12-2019 05:43:18 -4.5 C 41 %
1764 29-12-2019 05:53:17 -4.7 C 41 %
1765 29-12-2019 06:03:17 -4.6 C 41 %
1766 29-12-2019 06:13:17 -4.7 C 41 %
1767 29-12-2019 06:23:17 -4.8 C 41 %
1768 29-12-2019 06:33:17 -4.8 C 41 %
1769 29-12-2019 06:43:17 -4.8 C 41 %
1770 29-12-2019 06:53:17 -4.8 C 41 %
1771 29-12-2019 07:03:17 -4.9 C 41 %
1772 29-12-2019 07:13:17 -4.9 C 41 %
1773 29-12-2019 07:23:17 -5 C 41 %
1774 29-12-2019 07:33:17 -4.5 C 42 %
1775 29-12-2019 07:43:17 -4.7 C 41 %
Sensor: Nr:Datum:Temp:Feuchte:
Aussen-T/F 1776 29-12-2019 07:53:17 -4.7 C 41 %
1777 29-12-2019 08:03:17 -4.4 C 42 %
1778 29-12-2019 08:13:17 -4.3 C 42 %
1779 29-12-2019 08:23:18 -3.9 C 43 %
1780 29-12-2019 08:33:17 -4.1 C 41 %
1781 29-12-2019 08:43:17 -4.3 C 41 %
1782 29-12-2019 08:53:17 -4.5 C 40 %
1783 29-12-2019 09:03:17 -4.1 C 42 %
1784 29-12-2019 09:13:17 -3.9 C 42 %
1785 29-12-2019 09:23:18 -4 C 41 %
1786 29-12-2019 09:33:17 -4.1 C 41 %
1787 29-12-2019 09:43:17 -4 C 41 %
1788 29-12-2019 09:53:17 -4 C 41 %
1789 29-12-2019 10:03:18 -4 C 40 %
1790 29-12-2019 10:13:18 -3.9 C 41 %
1791 29-12-2019 10:23:17 -3.5 C 42 %
1792 29-12-2019 10:33:17 -3.3 C 42 %
1793 29-12-2019 10:43:17 -3.1 C 42 %
1794 29-12-2019 10:53:17 -2.6 C 43 %
1795 29-12-2019 11:03:17 -2.1 C 43 %
1796 29-12-2019 11:13:17 -1.8 C 42 %
1797 29-12-2019 11:23:17 -1.4 C 43 %
1798 29-12-2019 11:33:17 -1.3 C 42 %
1799 29-12-2019 11:43:18 -0.8 C 43 %
1800 29-12-2019 11:53:17 -0.4 C 42 %
Sensor: Nr:Datum:Temp:Feuchte:
Aussen-T/F 1801 29-12-2019 12:03:18 -0.5 C 41 %
1802 29-12-2019 12:13:18 -0.3 C 41 %
1803 29-12-2019 12:23:17 0.1 C 40 %
1804 29-12-2019 12:33:17 0.3 C 40 %
1805 29-12-2019 12:43:17 0.5 C 40 %
1806 29-12-2019 12:53:17 0.4 C 40 %
1807 29-12-2019 13:03:17 0.7 C 38 %
1808 29-12-2019 13:13:17 1 C 37 %
1809 29-12-2019 13:23:17 1 C 37 %
1810 29-12-2019 13:33:18 1.4 C 36 %
1811 29-12-2019 13:43:18 1.4 C 38 %
1812 29-12-2019 13:53:17 1.5 C 37 %
1813 29-12-2019 14:03:17 1.5 C 36 %
1814 29-12-2019 14:13:17 1.4 C 37 %
1815 29-12-2019 14:23:17 1.7 C 36 %
1816 29-12-2019 14:33:18 1.9 C 36 %
1817 29-12-2019 14:43:18 2.2 C 34 %
1818 29-12-2019 14:53:17 2.1 C 33 %
1819 29-12-2019 15:03:17 1.9 C 34 %
1820 29-12-2019 15:13:18 2 C 31 %
1821 29-12-2019 15:23:17 2 C 27 %
1822 29-12-2019 15:33:17 1.9 C 30 %
1823 29-12-2019 15:43:17 1.5 C 32 %
1824 29-12-2019 15:53:18 1.1 C 32 %
1825 29-12-2019 16:03:17 0.5 C 35 %
Sensor: Nr:Datum:Temp:Feuchte:
Aussen-T/F 1826 29-12-2019 16:13:17 0.2 C 38 %
1827 29-12-2019 16:23:17 0.2 C 39 %
1828 29-12-2019 16:33:18 -0.3 C 39 %
1829 29-12-2019 16:43:18 -0.1 C 40 %
1830 29-12-2019 16:53:17 -0.2 C 40 %
1831 29-12-2019 17:03:17 -0.2 C 40 %
1832 29-12-2019 17:13:17 -0.3 C 39 %
1833 29-12-2019 17:23:17 -0.3 C 37 %
1834 29-12-2019 17:33:17 -0.3 C 37 %
1835 29-12-2019 17:43:17 -0.1 C 36 %
1836 29-12-2019 17:53:17 -0.2 C 38 %
1837 29-12-2019 18:03:17 -0.1 C 37 %
1838 29-12-2019 18:13:17 0.1 C 37 %
1839 29-12-2019 18:23:17 0.2 C 36 %
1840 29-12-2019 18:33:17 -0.2 C 38 %
1841 29-12-2019 18:43:17 -0.5 C 40 %
1842 29-12-2019 18:53:17 -0.8 C 40 %
1843 29-12-2019 19:03:17 -0.5 C 41 %
1844 29-12-2019 19:13:17 -0.7 C 38 %
1845 29-12-2019 19:23:18 -0.6 C 37 %
1846 29-12-2019 19:33:18 -0.6 C 35 %
1847 29-12-2019 19:43:18 -1 C 35 %
1848 29-12-2019 19:53:17 -1.1 C 36 %
1849 29-12-2019 20:03:18 -0.9 C 34 %
1850 29-12-2019 20:13:18 -1.2 C 36 %
Sensor: Nr:Datum:Temp:Feuchte:
Aussen-T/F 1851 29-12-2019 20:23:17 -0.7 C 35 %
1852 29-12-2019 20:33:17 -1.3 C 37 %
1853 29-12-2019 20:43:17 -0.9 C 39 %
1854 29-12-2019 20:53:17 -1.5 C 39 %
1855 29-12-2019 21:03:17 -1.2 C 38 %
1856 29-12-2019 21:13:17 -1.8 C 37 %
1857 29-12-2019 21:23:17 -1.8 C 40 %
1858 29-12-2019 21:33:18 -1.8 C 41 %
1859 29-12-2019 21:43:18 -2.1 C 42 %
1860 29-12-2019 21:53:17 -2.3 C 42 %
1861 29-12-2019 22:03:17 -2.2 C 43 %
1862 29-12-2019 22:13:17 -2.1 C 43 %
1863 29-12-2019 22:23:17 -2.4 C 42 %
1864 29-12-2019 22:33:17 -2.7 C 42 %
1865 29-12-2019 22:43:18 -2.7 C 43 %
1866 29-12-2019 22:53:17 -2.7 C 43 %
1867 29-12-2019 23:03:17 -2.8 C 43 %
1868 29-12-2019 23:13:17 -2.7 C 44 %
1869 29-12-2019 23:23:17 -2.8 C 43 %
1870 29-12-2019 23:33:18 -3 C 43 %
1871 29-12-2019 23:43:18 -3 C 43 %
1872 29-12-2019 23:53:17 -3 C 42 %
1873 30-12-2019 00:03:17 -3 C 42 %
1874 30-12-2019 00:13:17 -3.1 C 41 %
1875 30-12-2019 00:23:17 -3.1 C 41 %
Sensor: Nr:Datum:Temp:Feuchte:
Aussen-T/F 1876 30-12-2019 00:33:17 -3 C 42 %
1877 30-12-2019 00:43:17 -3.2 C 42 %
1878 30-12-2019 00:53:17 -3.2 C 42 %
1879 30-12-2019 01:03:17 -3.2 C 42 %
1880 30-12-2019 01:13:18 -3.1 C 44 %
1881 30-12-2019 01:23:17 -3.1 C 43 %
1882 30-12-2019 01:33:18 -3.2 C 42 %
1883 30-12-2019 01:43:18 -3.4 C 42 %
1884 30-12-2019 01:53:17 -3.5 C 42 %
1885 30-12-2019 02:03:17 -3.2 C 43 %
1886 30-12-2019 02:13:17 -3.4 C 43 %
1887 30-12-2019 02:23:17 -3.4 C 43 %
1888 30-12-2019 02:33:18 -3.4 C 43 %
1889 30-12-2019 02:43:18 -3.4 C 43 %
1890 30-12-2019 02:53:17 -3.4 C 43 %
1891 30-12-2019 03:03:17 -3.3 C 43 %
1892 30-12-2019 03:13:17 -3.4 C 43 %
1893 30-12-2019 03:23:17 -3.1 C 43 %
1894 30-12-2019 03:33:18 -3.2 C 43 %
1895 30-12-2019 03:43:18 -3.3 C 43 %
1896 30-12-2019 03:53:17 -3.5 C 43 %
1897 30-12-2019 04:03:17 -3.7 C 42 %
1898 30-12-2019 04:13:17 -3.8 C 42 %
1899 30-12-2019 04:23:17 -3.8 C 42 %
1900 30-12-2019 04:33:17 -3.9 C 42 %
Sensor: Nr:Datum:Temp:Feuchte:
Aussen-T/F 1901 30-12-2019 04:43:17 -3.9 C 42 %
1902 30-12-2019 04:53:17 -4 C 42 %
1903 30-12-2019 05:03:17 -3.9 C 42 %
1904 30-12-2019 05:13:17 -3.8 C 42 %
1905 30-12-2019 05:23:17 -3.9 C 42 %
1906 30-12-2019 05:33:17 -3.7 C 43 %
1907 30-12-2019 05:43:17 -3.8 C 43 %
1908 30-12-2019 05:53:18 -4 C 42 %
1909 30-12-2019 06:03:17 -4 C 42 %
1910 30-12-2019 06:13:17 -4 C 42 %
1911 30-12-2019 06:23:17 -3.9 C 42 %
1912 30-12-2019 06:33:17 -3.7 C 43 %
1913 30-12-2019 06:43:17 -3.9 C 42 %
1914 30-12-2019 06:53:17 -4 C 42 %
1915 30-12-2019 07:03:17 -4 C 42 %
1916 30-12-2019 07:13:17 -4.2 C 41 %
1917 30-12-2019 07:23:17 -4.4 C 42 %
1918 30-12-2019 07:33:18 -4.4 C 41 %
1919 30-12-2019 07:43:18 -4.4 C 42 %
1920 30-12-2019 07:53:17 -4.2 C 42 %
1921 30-12-2019 08:03:17 -4.4 C 41 %
1922 30-12-2019 08:13:17 -4.3 C 42 %
1923 30-12-2019 08:23:17 -4.4 C 42 %
1924 30-12-2019 08:33:17 -4.5 C 41 %
1925 30-12-2019 08:43:17 -4 C 43 %
Sensor: Nr:Datum:Temp:Feuchte:
Aussen-T/F 1926 30-12-2019 08:53:17 -4.2 C 41 %
1927 30-12-2019 09:03:18 -4.1 C 42 %
1928 30-12-2019 09:13:18 -3.9 C 42 %
1929 30-12-2019 09:23:17 -3.8 C 42 %
1930 30-12-2019 09:33:17 -3.6 C 43 %
1931 30-12-2019 09:43:17 -3.7 C 42 %
1932 30-12-2019 09:53:17 -3.7 C 42 %
1933 30-12-2019 10:03:17 -3.5 C 42 %
1934 30-12-2019 10:13:17 -3.3 C 43 %
1935 30-12-2019 10:23:17 -3.3 C 42 %
1936 30-12-2019 10:33:17 -3.3 C 42 %
1937 30-12-2019 10:43:17 -3 C 43 %
1938 30-12-2019 10:53:17 -2.9 C 42 %
1939 30-12-2019 11:03:17 -2.9 C 42 %
1940 30-12-2019 11:13:17 -2.8 C 42 %
1941 30-12-2019 11:23:17 -2.4 C 43 %
1942 30-12-2019 11:33:17 -2.1 C 42 %
1943 30-12-2019 11:43:17 -2 C 41 %
1944 30-12-2019 11:53:18 -2.1 C 40 %
1945 30-12-2019 12:03:17 -1.7 C 41 %
1946 30-12-2019 12:13:17 -1.5 C 40 %
1947 30-12-2019 12:23:17 -1.6 C 40 %
1948 30-12-2019 12:33:17 -1.4 C 41 %
1949 30-12-2019 12:43:17 -0.7 C 39 %
1950 30-12-2019 12:53:17 -0.8 C 39 %
Sensor: Nr:Datum:Temp:Feuchte:
Aussen-T/F 1951 30-12-2019 13:03:17 -0.8 C 38 %
1952 30-12-2019 13:13:17 -1 C 40 %
1953 30-12-2019 13:23:17 -1 C 41 %
1954 30-12-2019 13:33:17 -1 C 42 %
1955 30-12-2019 13:43:17 -0.6 C 42 %
1956 30-12-2019 13:53:17 -0.2 C 41 %
1957 30-12-2019 14:03:17 0.3 C 37 %
1958 30-12-2019 14:13:17 0.1 C 35 %
1959 30-12-2019 14:23:17 0.6 C 35 %
1960 30-12-2019 14:33:17 0.5 C 35 %
1961 30-12-2019 14:43:17 1 C 32 %
1962 30-12-2019 14:53:17 0.6 C 35 %
1963 30-12-2019 15:03:17 0.9 C 36 %
1964 30-12-2019 15:13:17 1.1 C 33 %
1965 30-12-2019 15:23:17 0.6 C 35 %
1966 30-12-2019 15:33:18 0.6 C 36 %
1967 30-12-2019 15:43:18 0.7 C 35 %
1968 30-12-2019 15:53:17 1.6 C 32 %
1969 30-12-2019 16:03:18 1.7 C 32 %
1970 30-12-2019 16:13:18 1.9 C 31 %
1971 30-12-2019 16:23:18 1.6 C 33 %
1972 30-12-2019 16:33:17 1.1 C 35 %
1973 30-12-2019 16:43:17 0.8 C 37 %
1974 30-12-2019 16:53:17 0.6 C 40 %
1975 30-12-2019 17:03:17 0.7 C 40 %
Sensor: Nr:Datum:Temp:Feuchte:
Aussen-T/F 1976 30-12-2019 17:13:17 0.7 C 40 %
1977 30-12-2019 17:23:18 0.6 C 40 %
1978 30-12-2019 17:33:17 0.5 C 40 %
1979 30-12-2019 17:43:17 0.5 C 40 %
1980 30-12-2019 17:53:17 0.5 C 37 %
1981 30-12-2019 18:03:17 0.3 C 36 %
1982 30-12-2019 18:13:17 -0.3 C 36 %
1983 30-12-2019 18:23:18 -0.7 C 37 %
1984 30-12-2019 18:33:18 -0.4 C 36 %
1985 30-12-2019 18:43:18 -0.2 C 36 %
1986 30-12-2019 18:53:17 -0.6 C 34 %
1987 30-12-2019 19:03:17 -1.3 C 36 %
1988 30-12-2019 19:13:17 -1 C 36 %
1989 30-12-2019 19:23:18 -1.4 C 36 %
1990 30-12-2019 19:33:17 -1.4 C 39 %
1991 30-12-2019 19:43:17 -0.4 C 33 %
1992 30-12-2019 19:53:18 0 C 32 %
1993 30-12-2019 20:03:17 -0.3 C 31 %
1994 30-12-2019 20:13:17 -1.2 C 32 %
1995 30-12-2019 20:23:17 -1.6 C 35 %
1996 30-12-2019 20:33:17 -1.6 C 36 %
1997 30-12-2019 20:43:17 -1.7 C 36 %
1998 30-12-2019 20:53:17 -1.5 C 37 %
1999 30-12-2019 21:03:17 -1.9 C 37 %
2000 30-12-2019 21:13:17 -0.8 C 35 %
Sensor: Nr:Datum:Temp:Feuchte:
Aussen-T/F 2001 30-12-2019 21:23:17 -1.1 C 35 %
2002 30-12-2019 21:33:17 -0.9 C 35 %
2003 30-12-2019 21:43:17 -0.8 C 36 %
2004 30-12-2019 21:53:17 -1.1 C 33 %
2005 30-12-2019 22:03:17 -1.5 C 35 %
2006 30-12-2019 22:13:17 -1.7 C 35 %
2007 30-12-2019 22:23:17 -1.7 C 35 %
2008 30-12-2019 22:33:17 -2.3 C 35 %
2009 30-12-2019 22:43:17 -1.8 C 35 %
2010 30-12-2019 22:53:17 -2 C 36 %
2011 30-12-2019 23:03:17 -2.3 C 36 %
2012 30-12-2019 23:13:17 -1.5 C 36 %
2013 30-12-2019 23:23:17 -0.9 C 32 %
2014 30-12-2019 23:33:17 -0.3 C 31 %
2015 30-12-2019 23:43:17 -0.9 C 31 %
2016 30-12-2019 23:53:17 -1 C 31 %
2017 31-12-2019 00:03:17 -1.2 C 32 %
2018 31-12-2019 00:13:18 -1.4 C 34 %
2019 31-12-2019 00:23:17 -1.6 C 36 %
2020 31-12-2019 00:33:18 -1.2 C 35 %
2021 31-12-2019 00:43:18 -1.5 C 35 %
2022 31-12-2019 00:53:17 -1.5 C 36 %
2023 31-12-2019 01:03:17 -1.5 C 36 %
2024 31-12-2019 01:13:17 -0.8 C 34 %
2025 31-12-2019 01:23:18 -1.3 C 34 %
Sensor: Nr:Datum:Temp:Feuchte:
Aussen-T/F 2026 31-12-2019 01:33:17 -1.6 C 37 %
2027 31-12-2019 01:43:17 -2 C 37 %
2028 31-12-2019 01:53:17 -2.3 C 38 %
2029 31-12-2019 02:03:17 -2.5 C 40 %
2030 31-12-2019 02:13:17 -2.7 C 40 %
2031 31-12-2019 02:23:18 -2.8 C 41 %
2032 31-12-2019 02:33:17 -3 C 41 %
2033 31-12-2019 02:43:17 -2.9 C 43 %
2034 31-12-2019 02:53:17 -2 C 45 %
2035 31-12-2019 03:03:17 -1.7 C 42 %
2036 31-12-2019 03:13:18 -2 C 40 %
2037 31-12-2019 03:23:17 -2.4 C 40 %
2038 31-12-2019 03:33:18 -2.5 C 41 %
2039 31-12-2019 03:43:18 -2.9 C 41 %
2040 31-12-2019 03:53:17 -2.8 C 42 %
2041 31-12-2019 04:03:17 -2.6 C 43 %
2042 31-12-2019 04:13:17 -3.1 C 42 %
2043 31-12-2019 04:23:17 -3.2 C 42 %
2044 31-12-2019 04:33:17 -3.3 C 42 %
2045 31-12-2019 04:43:18 -3.3 C 42 %
2046 31-12-2019 04:53:17 -3.2 C 43 %
2047 31-12-2019 05:03:17 -3.3 C 42 %
2048 31-12-2019 05:13:17 -3.6 C 42 %
2049 31-12-2019 05:23:17 -3.4 C 43 %
2050 31-12-2019 05:33:17 -3.1 C 44 %
Sensor: Nr:Datum:Temp:Feuchte:
Aussen-T/F 2051 31-12-2019 05:43:17 -3 C 44 %
2052 31-12-2019 05:53:17 -2.9 C 44 %
2053 31-12-2019 06:03:17 -3.1 C 43 %
2054 31-12-2019 06:13:17 -3.3 C 43 %
2055 31-12-2019 06:23:17 -3.2 C 43 %
2056 31-12-2019 06:33:17 -3.3 C 43 %
2057 31-12-2019 06:43:17 -3.4 C 43 %
2058 31-12-2019 06:53:18 -3.2 C 44 %
2059 31-12-2019 07:03:17 -3.2 C 44 %
2060 31-12-2019 07:13:17 -3 C 44 %
2061 31-12-2019 07:23:17 -3.1 C 44 %
2062 31-12-2019 07:33:17 -3 C 44 %
2063 31-12-2019 07:43:17 -2.6 C 45 %
2064 31-12-2019 07:53:18 -2.1 C 45 %
2065 31-12-2019 08:03:17 -2 C 45 %
2066 31-12-2019 08:13:17 -2 C 45 %
2067 31-12-2019 08:23:17 -1.3 C 45 %
2068 31-12-2019 08:33:17 -1 C 44 %
2069 31-12-2019 08:43:17 -1 C 43 %
2070 31-12-2019 08:53:17 -1.1 C 42 %
2071 31-12-2019 09:03:17 -1 C 43 %
2072 31-12-2019 09:13:17 -0.9 C 44 %
2073 31-12-2019 09:23:17 -1.1 C 42 %
2074 31-12-2019 09:33:17 -1.1 C 42 %
2075 31-12-2019 09:43:17 -1.1 C 42 %
Sensor: Nr:Datum:Temp:Feuchte:
Aussen-T/F 2076 31-12-2019 09:53:17 -0.9 C 43 %
2077 31-12-2019 10:03:17 -0.6 C 44 %
2078 31-12-2019 10:13:17 -0.2 C 43 %
2079 31-12-2019 10:23:17 0.1 C 41 %
2080 31-12-2019 10:33:17 0.3 C 40 %
2081 31-12-2019 10:43:17 0.3 C 38 %
2082 31-12-2019 10:53:18 0.5 C 40 %
2083 31-12-2019 11:03:17 0.8 C 41 %
2084 31-12-2019 11:13:17 0.7 C 41 %
2085 31-12-2019 11:23:17 1.2 C 40 %
2086 31-12-2019 11:33:17 1.1 C 38 %
2087 31-12-2019 11:43:17 1.5 C 40 %
2088 31-12-2019 11:53:17 1.5 C 40 %
2089 31-12-2019 12:03:18 1.8 C 31 %
2090 31-12-2019 12:13:18 2.4 C 35 %
2091 31-12-2019 12:23:17 2.6 C 33 %
2092 31-12-2019 12:33:18 2.4 C 32 %
2093 31-12-2019 12:43:18 2.8 C 30 %
2094 31-12-2019 12:53:17 2.3 C 29 %
2095 31-12-2019 13:03:18 2.4 C 28 %
2096 31-12-2019 13:13:18 2.4 C 27 %
2097 31-12-2019 13:23:17 2.8 C 27 %
2098 31-12-2019 13:33:17 2.8 C 26 %
2099 31-12-2019 13:43:17 3.3 C 26 %
2100 31-12-2019 13:53:17 2.9 C 26 %
Sensor: Nr:Datum:Temp:Feuchte:
Aussen-T/F 2101 31-12-2019 14:03:18 2.7 C 27 %
2102 31-12-2019 14:13:18 2.9 C 27 %
2103 31-12-2019 14:23:17 3.1 C 26 %
2104 31-12-2019 14:33:17 3.4 C 26 %
2105 31-12-2019 14:43:17 3.2 C 26 %
2106 31-12-2019 14:53:17 3 C 26 %
2107 31-12-2019 15:03:17 2.8 C 27 %
2108 31-12-2019 15:13:17 2.9 C 27 %
2109 31-12-2019 15:23:18 3 C 27 %
2110 31-12-2019 15:33:17 3 C 27 %
2111 31-12-2019 15:43:17 2.9 C 28 %
2112 31-12-2019 15:53:17 2.7 C 29 %
2113 31-12-2019 16:03:17 2.1 C 30 %
2114 31-12-2019 16:13:17 0.9 C 35 %
2115 31-12-2019 16:23:18 0.6 C 38 %
2116 31-12-2019 16:33:17 0.3 C 40 %
2117 31-12-2019 16:43:17 0.2 C 39 %
2118 31-12-2019 16:53:18 0.2 C 40 %
2119 31-12-2019 17:03:17 -0.1 C 41 %
2120 31-12-2019 17:13:17 -0.4 C 41 %
2121 31-12-2019 17:23:17 -0.3 C 40 %
2122 31-12-2019 17:33:17 -0.3 C 41 %
2123 31-12-2019 17:43:17 -0.6 C 43 %
2124 31-12-2019 17:53:18 -0.7 C 43 %
2125 31-12-2019 18:03:17 -1.1 C 43 %
Sensor: Nr:Datum:Temp:Feuchte:
Aussen-T/F 2126 31-12-2019 18:13:17 -1.2 C 45 %
2127 31-12-2019 18:23:17 -0.9 C 45 %
2128 31-12-2019 18:33:17 -0.8 C 45 %
2129 31-12-2019 18:43:17 -0.4 C 46 %
2130 31-12-2019 18:53:18 -0.4 C 46 %
2131 31-12-2019 19:03:17 -0.3 C 45 %
2132 31-12-2019 19:13:17 -0.1 C 46 %
2133 31-12-2019 19:23:18 0 C 45 %
2134 31-12-2019 19:33:17 0.1 C 45 %
2135 31-12-2019 19:43:17 0.2 C 45 %
2136 31-12-2019 19:53:17 0.4 C 45 %
2137 31-12-2019 20:03:18 0.5 C 45 %
2138 31-12-2019 20:13:18 0.5 C 45 %
2139 31-12-2019 20:23:17 0.4 C 45 %
2140 31-12-2019 20:33:17 0.4 C 45 %
2141 31-12-2019 20:43:17 0.3 C 43 %
2142 31-12-2019 20:53:17 0.2 C 43 %
2143 31-12-2019 21:03:17 0.2 C 43 %
2144 31-12-2019 21:13:17 0.4 C 44 %
2145 31-12-2019 21:23:18 0.4 C 44 %
2146 31-12-2019 21:33:17 0.5 C 44 %
2147 31-12-2019 21:43:17 0.6 C 43 %
2148 31-12-2019 21:53:17 0.5 C 43 %
2149 31-12-2019 22:03:17 0.6 C 42 %
2150 31-12-2019 22:13:17 0.5 C 42 %
Sensor: Nr:Datum:Temp:Feuchte:
Aussen-T/F 2151 31-12-2019 22:23:18 0.2 C 41 %
2152 31-12-2019 22:33:17 0 C 41 %
2153 31-12-2019 22:43:17 -0.2 C 42 %
2154 31-12-2019 22:53:17 -0.4 C 43 %
2155 31-12-2019 23:03:17 -0.3 C 44 %
2156 31-12-2019 23:13:17 -0.1 C 45 %
2157 31-12-2019 23:23:18 0 C 45 %
2158 31-12-2019 23:33:17 0 C 45 %
2159 31-12-2019 23:43:17 0.4 C 45 %
2160 31-12-2019 23:53:18 0.3 C 45 %
2161 01-01-2020 00:03:17 0.4 C 45 %
2162 01-01-2020 00:13:17 0.4 C 45 %
2163 01-01-2020 00:23:17 0.3 C 45 %
2164 01-01-2020 00:33:17 -0.9 C 41 %
2165 01-01-2020 00:43:17 -0.3 C 45 %
2166 01-01-2020 00:53:18 -0.5 C 44 %
2167 01-01-2020 01:03:17 -0.5 C 44 %
2168 01-01-2020 01:13:17 -0.6 C 44 %
2169 01-01-2020 01:23:17 -0.6 C 45 %
2170 01-01-2020 01:33:17 -0.7 C 45 %
2171 01-01-2020 01:43:17 -1.1 C 44 %
2172 01-01-2020 01:53:18 -0.9 C 45 %
2173 01-01-2020 02:03:17 -0.9 C 45 %
2174 01-01-2020 02:13:17 -0.5 C 46 %
2175 01-01-2020 02:23:17 -0.2 C 45 %
Sensor: Nr:Datum:Temp:Feuchte:
Aussen-T/F 2176 01-01-2020 02:33:18 -0.1 C 45 %
2177 01-01-2020 02:43:18 0 C 45 %
2178 01-01-2020 02:53:17 0.1 C 45 %
2179 01-01-2020 03:03:17 0.1 C 45 %
2180 01-01-2020 03:13:18 0.1 C 45 %
2181 01-01-2020 03:23:17 0.2 C 45 %
2182 01-01-2020 03:33:18 0.1 C 45 %
2183 01-01-2020 03:43:18 0.1 C 45 %
2184 01-01-2020 03:53:17 0.1 C 45 %
2185 01-01-2020 04:03:18 0.2 C 45 %
2186 01-01-2020 04:13:18 0.2 C 45 %
2187 01-01-2020 04:23:17 0.3 C 45 %
2188 01-01-2020 04:33:18 0.3 C 45 %
2189 01-01-2020 04:43:18 0.3 C 44 %
2190 01-01-2020 04:53:17 0.3 C 44 %
2191 01-01-2020 05:03:18 0.4 C 44 %
2192 01-01-2020 05:13:18 0.5 C 44 %
2193 01-01-2020 05:23:17 0.4 C 44 %
2194 01-01-2020 05:33:18 0.4 C 44 %
2195 01-01-2020 05:43:18 0.4 C 44 %
2196 01-01-2020 05:53:17 0.4 C 43 %
2197 01-01-2020 06:03:17 0.4 C 43 %
2198 01-01-2020 06:13:17 0.5 C 43 %
2199 01-01-2020 06:23:17 0.4 C 42 %
2200 01-01-2020 06:33:17 0.6 C 42 %
Sensor: Nr:Datum:Temp:Feuchte:
Aussen-T/F 2201 01-01-2020 06:43:17 0.6 C 42 %
2202 01-01-2020 06:53:17 0.6 C 42 %
2203 01-01-2020 07:03:18 0.6 C 41 %
2204 01-01-2020 07:13:18 0.6 C 41 %
2205 01-01-2020 07:23:17 0.6 C 41 %
2206 01-01-2020 07:33:17 0.6 C 41 %
2207 01-01-2020 07:43:17 0.6 C 41 %
2208 01-01-2020 07:53:17 0.6 C 41 %
2209 01-01-2020 08:03:17 0.6 C 41 %
2210 01-01-2020 08:13:17 0.6 C 41 %
2211 01-01-2020 08:23:18 0.7 C 40 %
2212 01-01-2020 08:33:17 0.7 C 40 %
2213 01-01-2020 08:43:17 0.7 C 40 %
2214 01-01-2020 08:53:17 0.8 C 40 %
2215 01-01-2020 09:03:17 0.8 C 40 %
2216 01-01-2020 09:13:17 1.1 C 38 %
2217 01-01-2020 09:23:17 1.3 C 38 %
2218 01-01-2020 09:33:17 1.4 C 37 %
2219 01-01-2020 09:43:17 1.5 C 37 %
2220 01-01-2020 09:53:17 1.7 C 36 %
2221 01-01-2020 10:03:18 1.9 C 36 %
2222 01-01-2020 10:13:18 2 C 34 %
2223 01-01-2020 10:23:17 2.1 C 33 %
2224 01-01-2020 10:33:17 2.2 C 32 %
2225 01-01-2020 10:43:17 2.3 C 32 %
Sensor: Nr:Datum:Temp:Feuchte:
Aussen-T/F 2226 01-01-2020 10:53:17 2.4 C 32 %
2227 01-01-2020 11:03:17 2.4 C 31 %
2228 01-01-2020 11:13:17 2.7 C 31 %
2229 01-01-2020 11:23:18 2.7 C 30 %
2230 01-01-2020 11:33:17 2.7 C 30 %
2231 01-01-2020 11:43:17 2.8 C 30 %
2232 01-01-2020 11:53:18 2.9 C 30 %
2233 01-01-2020 12:03:17 3.2 C 28 %
2234 01-01-2020 12:13:17 3 C 29 %
2235 01-01-2020 12:23:18 2.7 C 30 %
2236 01-01-2020 12:33:17 2.7 C 30 %
2237 01-01-2020 12:43:17 2.5 C 30 %
2238 01-01-2020 12:53:18 2.1 C 32 %
2239 01-01-2020 13:03:17 1.6 C 36 %
2240 01-01-2020 13:13:17 1.6 C 37 %
2241 01-01-2020 13:23:18 1.4 C 37 %
2242 01-01-2020 13:33:17 1.5 C 38 %
2243 01-01-2020 13:43:17 1.5 C 38 %
2244 01-01-2020 13:53:17 1.6 C 39 %
2245 01-01-2020 14:03:17 1.6 C 39 %
2246 01-01-2020 14:13:17 1.6 C 39 %
2247 01-01-2020 14:23:17 1.6 C 40 %
2248 01-01-2020 14:33:17 1.4 C 40 %
2249 01-01-2020 14:43:17 1.3 C 41 %
2250 01-01-2020 14:53:17 1.2 C 41 %
Sensor: Nr:Datum:Temp:Feuchte:
Aussen-T/F 2251 01-01-2020 15:03:17 1.3 C 41 %
2252 01-01-2020 15:13:17 1.2 C 41 %
2253 01-01-2020 15:23:17 1.6 C 41 %
2254 01-01-2020 15:33:17 1.7 C 38 %
2255 01-01-2020 15:43:17 1.1 C 38 %
2256 01-01-2020 15:53:17 0.7 C 40 %
2257 01-01-2020 16:03:17 0.5 C 43 %
2258 01-01-2020 16:13:17 -0.1 C 43 %
2259 01-01-2020 16:23:17 -0.3 C 44 %
2260 01-01-2020 16:33:18 -0.7 C 44 %
2261 01-01-2020 16:43:18 -0.7 C 45 %
2262 01-01-2020 16:53:17 -0.8 C 45 %
2263 01-01-2020 17:03:17 -1 C 45 %
2264 01-01-2020 17:13:17 -1.3 C 45 %
2265 01-01-2020 17:23:18 -1.5 C 45 %
2266 01-01-2020 17:33:17 -1.8 C 45 %
2267 01-01-2020 17:43:17 -1.9 C 45 %
2268 01-01-2020 17:53:18 -1.8 C 45 %
2269 01-01-2020 18:03:17 -1.9 C 45 %
2270 01-01-2020 18:13:17 -1.9 C 45 %
2271 01-01-2020 18:23:17 -2.1 C 45 %
2272 01-01-2020 18:33:17 -2.1 C 45 %
2273 01-01-2020 18:43:18 -2.1 C 45 %
2274 01-01-2020 18:53:17 -2.2 C 45 %
2275 01-01-2020 19:03:17 -2.4 C 45 %
Sensor: Nr:Datum:Temp:Feuchte:
Aussen-T/F 2276 01-01-2020 19:13:18 -2.5 C 45 %
2277 01-01-2020 19:23:17 -2.4 C 45 %
2278 01-01-2020 19:33:17 -2.3 C 45 %
2279 01-01-2020 19:43:17 -2.2 C 45 %
2280 01-01-2020 19:53:17 -2.4 C 45 %
2281 01-01-2020 20:03:17 -2.2 C 45 %
2282 01-01-2020 20:13:17 -2.1 C 45 %
2283 01-01-2020 20:23:18 -2.3 C 45 %
2284 01-01-2020 20:33:17 -2.1 C 45 %
2285 01-01-2020 20:43:17 -2.6 C 43 %
2286 01-01-2020 20:53:17 -2.8 C 43 %
2287 01-01-2020 21:03:17 -2.8 C 43 %
2288 01-01-2020 21:13:17 -3 C 43 %
2289 01-01-2020 21:23:18 -3.1 C 43 %
2290 01-01-2020 21:33:17 -3.1 C 43 %
2291 01-01-2020 21:43:17 -3.2 C 42 %
2292 01-01-2020 21:53:17 -2.8 C 43 %
2293 01-01-2020 22:03:17 -3.1 C 42 %
2294 01-01-2020 22:13:17 -3.2 C 42 %
2295 01-01-2020 22:23:17 -3 C 43 %
2296 01-01-2020 22:33:17 -2.8 C 43 %
2297 01-01-2020 22:43:17 -2.8 C 43 %
2298 01-01-2020 22:53:17 -3.2 C 42 %
2299 01-01-2020 23:03:17 -3.2 C 42 %
2300 01-01-2020 23:13:17 -2.7 C 44 %
Sensor: Nr:Datum:Temp:Feuchte:
Aussen-T/F 2301 01-01-2020 23:23:17 -2.3 C 45 %
2302 01-01-2020 23:33:17 -2.4 C 44 %
2303 01-01-2020 23:43:17 -2.2 C 45 %
2304 01-01-2020 23:53:17 -2.2 C 45 %
2305 02-01-2020 00:03:17 -2.3 C 44 %
2306 02-01-2020 00:13:17 -2.4 C 44 %
2307 02-01-2020 00:23:17 -2.6 C 43 %
2308 02-01-2020 00:33:17 -2.4 C 43 %
2309 02-01-2020 00:43:17 -2.4 C 44 %
2310 02-01-2020 00:53:17 -2.6 C 43 %
2311 02-01-2020 01:03:17 -2.3 C 44 %
2312 02-01-2020 01:13:17 -2.1 C 45 %
2313 02-01-2020 01:23:17 -1.9 C 45 %
2314 02-01-2020 01:33:17 -1.9 C 45 %
2315 02-01-2020 01:43:17 -1.8 C 45 %
2316 02-01-2020 01:53:17 -1.7 C 45 %
2317 02-01-2020 02:03:17 -1.6 C 45 %
2318 02-01-2020 02:13:17 -1.5 C 45 %
2319 02-01-2020 02:23:17 -1.4 C 45 %
2320 02-01-2020 02:33:17 -1.3 C 45 %
2321 02-01-2020 02:43:17 -1.3 C 45 %
2322 02-01-2020 02:53:17 -1.3 C 45 %
2323 02-01-2020 03:03:17 -1.2 C 45 %
2324 02-01-2020 03:13:18 -1.1 C 45 %
2325 02-01-2020 03:23:17 -1.1 C 45 %
Sensor: Nr:Datum:Temp:Feuchte:
Aussen-T/F 2326 02-01-2020 03:33:18 -1 C 45 %
2327 02-01-2020 03:43:18 -0.9 C 45 %
2328 02-01-2020 03:53:17 -0.9 C 45 %
2329 02-01-2020 04:03:18 -0.8 C 45 %
2330 02-01-2020 04:13:18 -0.7 C 45 %
2331 02-01-2020 04:23:17 -0.7 C 45 %
2332 02-01-2020 04:33:17 -0.7 C 45 %
2333 02-01-2020 04:43:17 -0.7 C 45 %
2334 02-01-2020 04:53:17 -0.8 C 45 %
2335 02-01-2020 05:03:17 -0.9 C 45 %
2336 02-01-2020 05:13:17 -0.9 C 45 %
2337 02-01-2020 05:23:18 -0.9 C 45 %
2338 02-01-2020 05:33:17 -0.9 C 45 %
2339 02-01-2020 05:43:17 -0.8 C 44 %
2340 02-01-2020 05:53:18 -0.8 C 44 %
2341 02-01-2020 06:03:17 -0.9 C 44 %
2342 02-01-2020 06:13:17 -0.9 C 43 %
2343 02-01-2020 06:23:17 -0.9 C 43 %
2344 02-01-2020 06:33:18 -0.7 C 42 %
2345 02-01-2020 06:43:18 -0.7 C 41 %
2346 02-01-2020 06:53:17 -0.7 C 40 %
2347 02-01-2020 07:03:18 -0.7 C 40 %
2348 02-01-2020 07:13:18 -0.7 C 40 %
2349 02-01-2020 07:23:17 -0.7 C 39 %
2350 02-01-2020 07:33:17 -0.7 C 39 %
Sensor: Nr:Datum:Temp:Feuchte:
Aussen-T/F 2351 02-01-2020 07:43:17 -0.7 C 40 %
2352 02-01-2020 07:53:17 -0.6 C 41 %
2353 02-01-2020 08:03:18 -0.6 C 41 %
2354 02-01-2020 08:13:18 -0.5 C 41 %
2355 02-01-2020 08:23:17 -0.4 C 41 %
2356 02-01-2020 08:33:17 -0.3 C 40 %
2357 02-01-2020 08:43:17 -0.3 C 41 %
2358 02-01-2020 08:53:17 -0.2 C 42 %
2359 02-01-2020 09:03:17 -0.1 C 42 %
2360 02-01-2020 09:13:17 0.1 C 42 %
2361 02-01-2020 09:23:17 0.1 C 40 %
2362 02-01-2020 09:33:18 0.4 C 38 %
2363 02-01-2020 09:43:18 0.5 C 37 %
2364 02-01-2020 09:53:17 0.4 C 39 %
2365 02-01-2020 10:03:17 0.4 C 40 %
2366 02-01-2020 10:13:18 0.7 C 41 %
2367 02-01-2020 10:23:17 1.1 C 42 %
2368 02-01-2020 10:33:18 1.1 C 39 %
2369 02-01-2020 10:43:18 1.3 C 39 %
2370 02-01-2020 10:53:17 1.5 C 38 %
2371 02-01-2020 11:03:18 1.7 C 38 %
2372 02-01-2020 11:13:18 1.6 C 35 %
2373 02-01-2020 11:23:17 1.9 C 37 %
2374 02-01-2020 11:33:17 2.1 C 36 %
2375 02-01-2020 11:43:17 2.1 C 35 %
Sensor: Nr:Datum:Temp:Feuchte:
Aussen-T/F 2376 02-01-2020 11:53:17 2.1 C 34 %
2377 02-01-2020 12:03:17 2.2 C 34 %
2378 02-01-2020 12:13:17 2.3 C 35 %
2379 02-01-2020 12:23:17 2.3 C 35 %
2380 02-01-2020 12:33:17 2.6 C 34 %
2381 02-01-2020 12:43:17 3 C 35 %
2382 02-01-2020 12:53:17 2.8 C 32 %
2383 02-01-2020 13:03:17 2.9 C 31 %
2384 02-01-2020 13:13:17 3.1 C 30 %
2385 02-01-2020 13:23:17 3.3 C 29 %
2386 02-01-2020 13:33:17 3.6 C 29 %
2387 02-01-2020 13:43:17 3.3 C 29 %
2388 02-01-2020 13:53:18 3.1 C 30 %
2389 02-01-2020 14:03:17 3.4 C 30 %
2390 02-01-2020 14:13:17 3.4 C 30 %
2391 02-01-2020 14:23:18 3.5 C 30 %
2392 02-01-2020 14:33:17 3.4 C 30 %
2393 02-01-2020 14:43:17 3.7 C 30 %
2394 02-01-2020 14:53:17 3.4 C 30 %
2395 02-01-2020 15:03:17 3.1 C 31 %
2396 02-01-2020 15:13:17 3 C 31 %
2397 02-01-2020 15:23:18 2.7 C 32 %
2398 02-01-2020 15:33:17 2.5 C 33 %
2399 02-01-2020 15:43:17 2.5 C 34 %
2400 02-01-2020 15:53:17 2.4 C 35 %
Sensor: Nr:Datum:Temp:Feuchte:
Aussen-T/F 2401 02-01-2020 16:03:17 2.4 C 35 %
2402 02-01-2020 16:13:17 2.3 C 35 %
2403 02-01-2020 16:23:18 2.2 C 36 %
2404 02-01-2020 16:33:17 2.2 C 37 %
2405 02-01-2020 16:43:17 2.3 C 37 %
2406 02-01-2020 16:53:17 2.2 C 37 %
2407 02-01-2020 17:03:17 2.1 C 38 %
2408 02-01-2020 17:13:17 2 C 38 %
2409 02-01-2020 17:23:18 2.1 C 40 %
2410 02-01-2020 17:33:17 2.1 C 40 %
2411 02-01-2020 17:43:17 2.1 C 40 %
2412 02-01-2020 17:53:17 2.1 C 40 %
2413 02-01-2020 18:03:17 2.1 C 40 %
2414 02-01-2020 18:13:17 2.1 C 40 %
2415 02-01-2020 18:23:17 2.1 C 40 %
2416 02-01-2020 18:33:17 2.1 C 40 %
2417 02-01-2020 18:43:18 2.2 C 39 %
2418 02-01-2020 18:53:17 2.3 C 40 %
2419 02-01-2020 19:03:17 2.2 C 40 %
2420 02-01-2020 19:13:18 2.2 C 40 %
2421 02-01-2020 19:23:17 2.3 C 40 %
2422 02-01-2020 19:33:17 2.3 C 40 %
2423 02-01-2020 19:43:18 2.3 C 40 %
2424 02-01-2020 19:53:17 2.3 C 40 %
2425 02-01-2020 20:03:18 2.3 C 40 %
Sensor: Nr:Datum:Temp:Feuchte:
Aussen-T/F 2426 02-01-2020 20:13:18 2.4 C 40 %
2427 02-01-2020 20:23:17 2.5 C 40 %
2428 02-01-2020 20:33:17 2.6 C 40 %
2429 02-01-2020 20:43:17 2.6 C 40 %
2430 02-01-2020 20:53:17 2.5 C 39 %
2431 02-01-2020 21:03:18 2.5 C 40 %
2432 02-01-2020 21:13:18 2.5 C 40 %
2433 02-01-2020 21:23:17 2.5 C 40 %
2434 02-01-2020 21:33:18 2.5 C 40 %
2435 02-01-2020 21:43:18 2.3 C 40 %
2436 02-01-2020 21:53:17 1.9 C 42 %
2437 02-01-2020 22:03:17 2.3 C 43 %
2438 02-01-2020 22:13:17 2.4 C 43 %
2439 02-01-2020 22:23:17 2.5 C 43 %
2440 02-01-2020 22:33:17 2.6 C 43 %
2441 02-01-2020 22:43:18 2.7 C 43 %
2442 02-01-2020 22:53:17 2.7 C 42 %
2443 02-01-2020 23:03:17 2.8 C 42 %
2444 02-01-2020 23:13:17 2.8 C 42 %
2445 02-01-2020 23:23:17 2.8 C 41 %
2446 02-01-2020 23:33:18 2.8 C 42 %
2447 02-01-2020 23:43:18 2.9 C 42 %
2448 02-01-2020 23:53:17 2.8 C 41 %
2449 03-01-2020 00:03:18 2.9 C 42 %
2450 03-01-2020 00:13:18 3 C 41 %
Sensor: Nr:Datum:Temp:Feuchte:
Aussen-T/F 2451 03-01-2020 00:23:17 3.1 C 41 %
2452 03-01-2020 00:33:17 3.2 C 41 %
2453 03-01-2020 00:43:17 3.2 C 41 %
2454 03-01-2020 00:53:17 3.4 C 42 %
2455 03-01-2020 01:03:17 3.4 C 42 %
2456 03-01-2020 01:13:17 3.5 C 42 %
2457 03-01-2020 01:23:18 3.5 C 42 %
2458 03-01-2020 01:33:17 3.5 C 42 %
2459 03-01-2020 01:43:17 3.6 C 42 %
2460 03-01-2020 01:53:18 3.6 C 42 %
2461 03-01-2020 02:03:17 3.7 C 42 %
2462 03-01-2020 02:13:17 3.7 C 42 %
2463 03-01-2020 02:23:17 3.9 C 42 %
2464 03-01-2020 02:33:17 3.7 C 42 %
2465 03-01-2020 02:43:18 3.7 C 43 %
2466 03-01-2020 02:53:17 3.9 C 44 %
2467 03-01-2020 03:03:17 3.8 C 44 %
2468 03-01-2020 03:13:17 3.8 C 44 %
2469 03-01-2020 03:23:17 3.8 C 44 %
2470 03-01-2020 03:33:17 3.9 C 44 %
2471 03-01-2020 03:43:17 3.9 C 44 %
2472 03-01-2020 03:53:18 3.9 C 44 %
2473 03-01-2020 04:03:17 4 C 43 %
2474 03-01-2020 04:13:17 4 C 43 %
2475 03-01-2020 04:23:18 4 C 42 %
Sensor: Nr:Datum:Temp:Feuchte:
Aussen-T/F 2476 03-01-2020 04:33:17 4.1 C 42 %
2477 03-01-2020 04:43:17 4.1 C 42 %
2478 03-01-2020 04:53:17 4.2 C 42 %
2479 03-01-2020 05:03:17 4.2 C 41 %
2480 03-01-2020 05:13:17 4.3 C 40 %
2481 03-01-2020 05:23:17 4.3 C 40 %
2482 03-01-2020 05:33:17 4.4 C 40 %
2483 03-01-2020 05:43:17 4.4 C 40 %
2484 03-01-2020 05:53:17 4.4 C 40 %
2485 03-01-2020 06:03:17 4.4 C 40 %
2486 03-01-2020 06:13:17 4.4 C 40 %
2487 03-01-2020 06:23:18 4.4 C 40 %
2488 03-01-2020 06:33:17 4.7 C 40 %
2489 03-01-2020 06:43:17 5.3 C 40 %
2490 03-01-2020 06:53:18 6.7 C 34 %
2491 03-01-2020 07:03:18 7.1 C 31 %
2492 03-01-2020 07:13:18 7.7 C 30 %
2493 03-01-2020 07:23:17 8 C 29 %
2494 03-01-2020 07:33:17 7.9 C 30 %
2495 03-01-2020 07:43:17 7.8 C 30 %
2496 03-01-2020 07:53:17 7.9 C 29 %
2497 03-01-2020 08:03:18 7.9 C 30 %
2498 03-01-2020 08:13:18 8 C 29 %
2499 03-01-2020 08:23:17 7.9 C 29 %
2500 03-01-2020 08:33:18 7.8 C 29 %
Sensor: Nr:Datum:Temp:Feuchte:
Aussen-T/F 2501 03-01-2020 08:43:18 7.9 C 29 %
2502 03-01-2020 08:53:17 8 C 29 %
2503 03-01-2020 09:03:17 8.2 C 28 %
2504 03-01-2020 09:13:17 8.2 C 28 %
2505 03-01-2020 09:23:17 8.2 C 28 %
2506 03-01-2020 09:33:17 8.4 C 28 %
2507 03-01-2020 09:43:17 8.4 C 27 %
2508 03-01-2020 09:53:17 8.4 C 27 %
2509 03-01-2020 10:03:17 8.6 C 27 %
2510 03-01-2020 10:13:17 8.6 C 27 %
2511 03-01-2020 10:23:17 8.6 C 27 %
2512 03-01-2020 10:33:17 8.6 C 27 %
2513 03-01-2020 10:43:18 8.6 C 27 %
2514 03-01-2020 10:53:17 8.6 C 27 %
2515 03-01-2020 11:03:18 8.3 C 27 %
2516 03-01-2020 11:13:18 8.5 C 27 %
2517 03-01-2020 11:23:18 8.6 C 27 %
2518 03-01-2020 11:33:17 8.9 C 27 %
2519 03-01-2020 11:43:17 8.9 C 27 %
2520 03-01-2020 11:53:17 8.7 C 27 %
2521 03-01-2020 12:03:17 8.6 C 27 %
2522 03-01-2020 12:13:17 8.4 C 27 %
2523 03-01-2020 12:23:17 8.6 C 27 %
2524 03-01-2020 12:33:17 8.7 C 27 %
2525 03-01-2020 12:43:17 8.5 C 27 %
Sensor: Nr:Datum:Temp:Feuchte:
Aussen-T/F 2526 03-01-2020 12:53:17 8.6 C 27 %
2527 03-01-2020 13:03:17 8.5 C 27 %
2528 03-01-2020 13:13:18 8.5 C 28 %
2529 03-01-2020 13:23:17 8.6 C 28 %
2530 03-01-2020 13:33:17 8.8 C 27 %
2531 03-01-2020 13:43:18 8.8 C 28 %
2532 03-01-2020 13:53:17 8.7 C 28 %
2533 03-01-2020 14:03:17 8.7 C 28 %
2534 03-01-2020 14:13:17 8.5 C 28 %
2535 03-01-2020 14:23:18 8.5 C 29 %
2536 03-01-2020 14:33:17 8.5 C 29 %
2537 03-01-2020 14:43:17 8.5 C 29 %
2538 03-01-2020 14:53:17 8.5 C 30 %
2539 03-01-2020 15:03:17 9 C 28 %
2540 03-01-2020 15:13:17 9 C 28 %
2541 03-01-2020 15:23:17 9 C 28 %
2542 03-01-2020 15:33:17 9.1 C 28 %
2543 03-01-2020 15:43:18 9.2 C 28 %
2544 03-01-2020 15:53:17 9 C 28 %
2545 03-01-2020 16:03:17 9 C 28 %
2546 03-01-2020 16:13:17 9 C 29 %
2547 03-01-2020 16:23:17 8.9 C 30 %
2548 03-01-2020 16:33:17 9 C 29 %
2549 03-01-2020 16:43:17 9 C 29 %
2550 03-01-2020 16:53:17 9 C 29 %
Sensor: Nr:Datum:Temp:Feuchte:
Aussen-T/F 2551 03-01-2020 17:03:17 8.6 C 31 %
2552 03-01-2020 17:13:17 8.6 C 31 %
2553 03-01-2020 17:23:17 8.9 C 31 %
2554 03-01-2020 17:33:17 8.8 C 30 %
2555 03-01-2020 17:43:17 8.9 C 30 %
2556 03-01-2020 17:53:17 9 C 30 %
2557 03-01-2020 18:03:17 9 C 30 %
2558 03-01-2020 18:13:18 9.1 C 30 %
2559 03-01-2020 18:23:18 9.3 C 30 %
2560 03-01-2020 18:33:18 9.3 C 30 %
2561 03-01-2020 18:43:18 9.2 C 30 %
2562 03-01-2020 18:53:17 9.3 C 30 %
2563 03-01-2020 19:03:18 9.2 C 30 %
2564 03-01-2020 19:13:18 8.9 C 32 %
2565 03-01-2020 19:23:17 8.9 C 32 %
2566 03-01-2020 19:33:17 9.2 C 31 %
2567 03-01-2020 19:43:17 9.3 C 31 %
2568 03-01-2020 19:53:17 9.2 C 31 %
2569 03-01-2020 20:03:18 9 C 31 %
2570 03-01-2020 20:13:18 8.9 C 35 %
2571 03-01-2020 20:23:17 8.9 C 35 %
2572 03-01-2020 20:33:17 8.8 C 35 %
2573 03-01-2020 20:43:17 8.7 C 36 %
2574 03-01-2020 20:53:18 8.6 C 39 %
2575 03-01-2020 21:03:17 8.2 C 37 %
Sensor: Nr:Datum:Temp:Feuchte:
Aussen-T/F 2576 03-01-2020 21:13:17 7.8 C 35 %
2577 03-01-2020 21:23:17 7.5 C 35 %
2578 03-01-2020 21:33:18 7.4 C 36 %
2579 03-01-2020 21:43:18 7.2 C 35 %
2580 03-01-2020 21:53:17 6.8 C 35 %
2581 03-01-2020 22:03:18 6.8 C 34 %
2582 03-01-2020 22:13:18 6.7 C 35 %
2583 03-01-2020 22:23:17 6.5 C 33 %
2584 03-01-2020 22:33:17 6.4 C 34 %
2585 03-01-2020 22:43:17 6 C 33 %
2586 03-01-2020 22:53:17 6 C 34 %
2587 03-01-2020 23:03:17 5.7 C 35 %
2588 03-01-2020 23:13:17 5.9 C 34 %
2589 03-01-2020 23:23:17 5.8 C 35 %
2590 03-01-2020 23:33:17 5.8 C 33 %
2591 03-01-2020 23:43:17 5.7 C 35 %
2592 03-01-2020 23:53:17 5.8 C 35 %
2593 04-01-2020 00:03:18 5.7 C 35 %
2594 04-01-2020 00:13:18 5.6 C 35 %
2595 04-01-2020 00:23:17 5.4 C 35 %
2596 04-01-2020 00:33:17 5.6 C 33 %
2597 04-01-2020 00:43:17 5.6 C 33 %
2598 04-01-2020 00:53:17 5.4 C 34 %
2599 04-01-2020 01:03:17 5.3 C 34 %
2600 04-01-2020 01:13:17 4.6 C 36 %
Sensor: Nr:Datum:Temp:Feuchte:
Aussen-T/F 2601 04-01-2020 01:23:17 4.6 C 36 %
2602 04-01-2020 01:33:17 4.6 C 36 %
2603 04-01-2020 01:43:17 3.6 C 37 %
2604 04-01-2020 01:53:18 3.6 C 41 %
2605 04-01-2020 02:03:17 3.5 C 41 %
2606 04-01-2020 02:13:17 3.9 C 37 %
2607 04-01-2020 02:23:17 3.8 C 35 %
2608 04-01-2020 02:33:17 3.5 C 37 %
2609 04-01-2020 02:43:17 3.4 C 40 %
2610 04-01-2020 02:53:17 3.8 C 39 %
2611 04-01-2020 03:03:18 3.7 C 39 %
2612 04-01-2020 03:13:18 3.9 C 40 %
2613 04-01-2020 03:23:17 3.3 C 39 %
2614 04-01-2020 03:33:17 3 C 41 %
2615 04-01-2020 03:43:17 3.4 C 42 %
2616 04-01-2020 03:53:17 3.7 C 36 %
2617 04-01-2020 04:03:17 3.7 C 35 %
2618 04-01-2020 04:13:17 3.4 C 35 %
2619 04-01-2020 04:23:17 3.3 C 36 %
2620 04-01-2020 04:33:17 3.1 C 37 %
2621 04-01-2020 04:43:17 2.8 C 38 %
2622 04-01-2020 04:53:17 2.6 C 39 %
2623 04-01-2020 05:03:17 2.9 C 40 %
2624 04-01-2020 05:13:17 2.4 C 38 %
2625 04-01-2020 05:23:17 2.5 C 40 %
Sensor: Nr:Datum:Temp:Feuchte:
Aussen-T/F 2626 04-01-2020 05:33:17 1.8 C 40 %
2627 04-01-2020 05:43:18 2 C 41 %
2628 04-01-2020 05:53:17 2.3 C 40 %
2629 04-01-2020 06:03:17 2.2 C 39 %
2630 04-01-2020 06:13:17 2.8 C 36 %
2631 04-01-2020 06:23:17 2.6 C 35 %
2632 04-01-2020 06:33:17 2.4 C 37 %
2633 04-01-2020 06:43:17 2.7 C 37 %
2634 04-01-2020 06:53:17 2.7 C 34 %
2635 04-01-2020 07:03:17 2.7 C 34 %
2636 04-01-2020 07:13:17 2.5 C 34 %
2637 04-01-2020 07:23:17 2.5 C 34 %
2638 04-01-2020 07:33:17 2 C 36 %
2639 04-01-2020 07:43:17 2 C 36 %
2640 04-01-2020 07:53:17 2.1 C 37 %
2641 04-01-2020 08:03:17 1.7 C 39 %
2642 04-01-2020 08:13:17 1.6 C 41 %
2643 04-01-2020 08:23:17 1.3 C 41 %
2644 04-01-2020 08:33:17 1.2 C 43 %
2645 04-01-2020 08:43:17 1.3 C 42 %
2646 04-01-2020 08:53:17 1.2 C 41 %
2647 04-01-2020 09:03:17 1 C 41 %
2648 04-01-2020 09:13:17 0.8 C 44 %
2649 04-01-2020 09:23:17 1 C 44 %
2650 04-01-2020 09:33:18 1.4 C 45 %
Sensor: Nr:Datum:Temp:Feuchte:
Aussen-T/F 2651 04-01-2020 09:43:18 1.7 C 44 %
2652 04-01-2020 09:53:17 1.9 C 41 %
2653 04-01-2020 10:03:18 2.1 C 39 %
2654 04-01-2020 10:13:18 2.3 C 38 %
2655 04-01-2020 10:23:17 3.1 C 35 %
2656 04-01-2020 10:33:17 3.6 C 33 %
2657 04-01-2020 10:43:17 5.1 C 27 %
2658 04-01-2020 10:53:17 5.1 C 27 %
2659 04-01-2020 11:03:17 5.4 C 27 %
2660 04-01-2020 11:13:17 5.4 C 27 %
2661 04-01-2020 11:23:17 5.6 C 27 %
2662 04-01-2020 11:33:17 5.6 C 27 %
2663 04-01-2020 11:43:17 5.6 C 26 %
2664 04-01-2020 11:53:17 5.8 C 26 %
2665 04-01-2020 12:03:17 5.9 C 26 %
2666 04-01-2020 12:13:18 6 C 26 %
2667 04-01-2020 12:23:17 6.2 C 26 %
2668 04-01-2020 12:33:17 6.2 C 26 %
2669 04-01-2020 12:43:17 6.3 C 26 %
2670 04-01-2020 12:53:17 6.5 C 26 %
2671 04-01-2020 13:03:17 6.7 C 26 %
2672 04-01-2020 13:13:17 6.7 C 26 %
2673 04-01-2020 13:23:17 6.7 C 26 %
2674 04-01-2020 13:33:17 6.8 C 25 %
2675 04-01-2020 13:43:17 7 C 25 %
Sensor: Nr:Datum:Temp:Feuchte:
Aussen-T/F 2676 04-01-2020 13:53:18 7 C 25 %
2677 04-01-2020 14:03:18 7 C 25 %
2678 04-01-2020 14:13:18 7 C 25 %
2679 04-01-2020 14:23:18 7.1 C 25 %
2680 04-01-2020 14:33:17 7.1 C 25 %
2681 04-01-2020 14:43:18 7 C 25 %
2682 04-01-2020 14:53:17 7 C 25 %
2683 04-01-2020 15:03:17 7.1 C 25 %
2684 04-01-2020 15:13:17 7 C 25 %
2685 04-01-2020 15:23:17 7 C 25 %
2686 04-01-2020 15:33:18 7 C 25 %
2687 04-01-2020 15:43:18 7 C 25 %
2688 04-01-2020 15:53:18 6.9 C 25 %
2689 04-01-2020 16:03:17 6.9 C 25 %
2690 04-01-2020 16:13:18 6.9 C 25 %
2691 04-01-2020 16:23:17 6.9 C 25 %
2692 04-01-2020 16:33:17 6.8 C 25 %
2693 04-01-2020 16:43:17 6.8 C 25 %
2694 04-01-2020 16:53:17 6.8 C 25 %
2695 04-01-2020 17:03:17 6.8 C 25 %
2696 04-01-2020 17:13:17 6.8 C 25 %
2697 04-01-2020 17:23:17 6.7 C 25 %
2698 04-01-2020 17:33:18 6.7 C 25 %
2699 04-01-2020 17:43:18 6.6 C 25 %
2700 04-01-2020 17:53:17 6.6 C 25 %
Sensor: Nr:Datum:Temp:Feuchte:
Aussen-T/F 2701 04-01-2020 18:03:17 6.7 C 25 %
2702 04-01-2020 18:13:17 6.6 C 25 %
2703 04-01-2020 18:23:17 6.8 C 25 %
2704 04-01-2020 18:33:17 6.7 C 25 %
2705 04-01-2020 18:43:17 6.6 C 25 %
2706 04-01-2020 18:53:17 6.5 C 25 %
2707 04-01-2020 19:03:17 6.6 C 25 %
2708 04-01-2020 19:13:17 6.7 C 25 %
2709 04-01-2020 19:23:17 6.5 C 26 %
2710 04-01-2020 19:33:17 6 C 27 %
2711 04-01-2020 19:43:17 5.8 C 30 %
2712 04-01-2020 19:53:17 5.6 C 30 %
2713 04-01-2020 20:03:17 5.5 C 31 %
2714 04-01-2020 20:13:17 5.6 C 31 %
2715 04-01-2020 20:23:18 5.7 C 30 %
2716 04-01-2020 20:33:18 5.8 C 30 %
2717 04-01-2020 20:43:18 6 C 29 %
2718 04-01-2020 20:53:17 6.1 C 29 %
2719 04-01-2020 21:03:17 5.8 C 30 %
2720 04-01-2020 21:13:17 5.5 C 33 %
2721 04-01-2020 21:23:17 5.3 C 35 %
2722 04-01-2020 21:33:17 5.3 C 38 %
2723 04-01-2020 21:43:17 5.2 C 37 %
2724 04-01-2020 21:53:18 5.3 C 40 %
2725 04-01-2020 22:03:17 5.3 C 40 %
Sensor: Nr:Datum:Temp:Feuchte:
Aussen-T/F 2726 04-01-2020 22:13:17 5.3 C 39 %
2727 04-01-2020 22:23:17 5.3 C 37 %
2728 04-01-2020 22:33:17 5.4 C 37 %
2729 04-01-2020 22:43:17 5.4 C 37 %
2730 04-01-2020 22:53:17 5.4 C 36 %
2731 04-01-2020 23:03:17 5.5 C 35 %
2732 04-01-2020 23:13:17 5.6 C 35 %
2733 04-01-2020 23:23:17 5.6 C 34 %
2734 04-01-2020 23:33:18 5.6 C 35 %
2735 04-01-2020 23:43:18 5.7 C 34 %
2736 04-01-2020 23:53:17 5.6 C 35 %
2737 05-01-2020 00:03:17 5.6 C 33 %
2738 05-01-2020 00:13:17 5.5 C 35 %
2739 05-01-2020 00:23:17 5.4 C 35 %
2740 05-01-2020 00:33:18 5.4 C 35 %
2741 05-01-2020 00:43:18 5.3 C 36 %
2742 05-01-2020 00:53:17 5.3 C 36 %
2743 05-01-2020 01:03:17 5.1 C 37 %
2744 05-01-2020 01:13:17 5 C 40 %
2745 05-01-2020 01:23:17 4.9 C 42 %
2746 05-01-2020 01:33:17 4.8 C 41 %
2747 05-01-2020 01:43:18 4.8 C 42 %
2748 05-01-2020 01:53:17 4.7 C 42 %
2749 05-01-2020 02:03:18 4.8 C 41 %
2750 05-01-2020 02:13:18 4.7 C 41 %
Sensor: Nr:Datum:Temp:Feuchte:
Aussen-T/F 2751 05-01-2020 02:23:17 4.6 C 43 %
2752 05-01-2020 02:33:17 4.5 C 44 %
2753 05-01-2020 02:43:17 4.6 C 44 %
2754 05-01-2020 02:53:17 4.6 C 42 %
2755 05-01-2020 03:03:17 4.6 C 42 %
2756 05-01-2020 03:13:17 4.6 C 41 %
2757 05-01-2020 03:23:17 4.3 C 42 %
2758 05-01-2020 03:33:17 4.3 C 43 %
2759 05-01-2020 03:43:17 4.4 C 44 %
2760 05-01-2020 03:53:17 4.5 C 44 %
2761 05-01-2020 04:03:17 4.4 C 43 %
2762 05-01-2020 04:13:17 4.4 C 43 %
2763 05-01-2020 04:23:17 4.3 C 42 %
2764 05-01-2020 04:33:17 4.3 C 43 %
2765 05-01-2020 04:43:17 4.4 C 43 %
2766 05-01-2020 04:53:17 4.4 C 42 %
2767 05-01-2020 05:03:17 4.4 C 42 %
2768 05-01-2020 05:13:17 4.4 C 42 %
2769 05-01-2020 05:23:17 4.4 C 42 %
2770 05-01-2020 05:33:18 4.5 C 43 %
2771 05-01-2020 05:43:18 4.6 C 43 %
2772 05-01-2020 05:53:17 4.5 C 43 %
2773 05-01-2020 06:03:17 4.6 C 43 %
2774 05-01-2020 06:13:17 4.6 C 43 %
2775 05-01-2020 06:23:17 4.6 C 42 %
Sensor: Nr:Datum:Temp:Feuchte:
Aussen-T/F 2776 05-01-2020 06:33:17 4.7 C 41 %
2777 05-01-2020 06:43:17 4.7 C 40 %
2778 05-01-2020 06:53:17 4.6 C 41 %
2779 05-01-2020 07:03:17 4.6 C 41 %
2780 05-01-2020 07:13:17 4.6 C 42 %
2781 05-01-2020 07:23:17 4.5 C 42 %
2782 05-01-2020 07:33:17 4.5 C 41 %
2783 05-01-2020 07:43:17 4.4 C 41 %
2784 05-01-2020 07:53:17 4.4 C 41 %
2785 05-01-2020 08:03:18 4.3 C 42 %
2786 05-01-2020 08:13:18 4.3 C 42 %
2787 05-01-2020 08:23:17 4.3 C 41 %
2788 05-01-2020 08:33:17 4.4 C 42 %
2789 05-01-2020 08:43:17 4.4 C 41 %
2790 05-01-2020 08:53:17 4.6 C 40 %
2791 05-01-2020 09:03:18 4.6 C 39 %
2792 05-01-2020 09:13:18 4.6 C 40 %
2793 05-01-2020 09:23:17 4.7 C 38 %
2794 05-01-2020 09:33:18 4.8 C 38 %
2795 05-01-2020 09:43:18 5 C 36 %
2796 05-01-2020 09:53:17 5.1 C 35 %
2797 05-01-2020 10:03:17 5.3 C 35 %
2798 05-01-2020 10:13:18 5.4 C 34 %
2799 05-01-2020 10:23:18 5.4 C 34 %
2800 05-01-2020 10:33:18 5.5 C 33 %
Sensor: Nr:Datum:Temp:Feuchte:
Aussen-T/F 2801 05-01-2020 10:43:18 5.5 C 33 %
2802 05-01-2020 10:53:17 5.5 C 34 %
2803 05-01-2020 11:03:17 5.7 C 34 %
2804 05-01-2020 11:13:17 5.7 C 33 %
2805 05-01-2020 11:23:17 5.7 C 33 %
2806 05-01-2020 11:33:17 5.9 C 32 %
2807 05-01-2020 11:43:17 5.9 C 32 %
2808 05-01-2020 11:53:17 6 C 32 %
2809 05-01-2020 12:03:17 6 C 31 %
2810 05-01-2020 12:13:17 6 C 31 %
2811 05-01-2020 12:23:17 6.1 C 31 %
2812 05-01-2020 12:33:17 6.2 C 31 %
2813 05-01-2020 12:43:17 6.2 C 31 %
2814 05-01-2020 12:53:17 6.2 C 31 %
2815 05-01-2020 13:03:17 6.3 C 31 %
2816 05-01-2020 13:13:17 6.5 C 30 %
2817 05-01-2020 13:23:17 6.5 C 30 %
2818 05-01-2020 13:33:18 6.5 C 30 %
2819 05-01-2020 13:43:18 6.6 C 30 %
2820 05-01-2020 13:53:18 6.6 C 30 %
2821 05-01-2020 14:03:18 6.7 C 30 %
2822 05-01-2020 14:13:18 6.6 C 30 %
2823 05-01-2020 14:23:18 6.7 C 30 %
2824 05-01-2020 14:33:18 6.7 C 30 %
2825 05-01-2020 14:43:18 6.7 C 30 %
Sensor: Nr:Datum:Temp:Feuchte:
Aussen-T/F 2826 05-01-2020 14:53:17 6.7 C 30 %
2827 05-01-2020 15:03:18 6.6 C 30 %
2828 05-01-2020 15:13:18 6.6 C 30 %
2829 05-01-2020 15:23:18 6.5 C 31 %
2830 05-01-2020 15:33:18 6.3 C 33 %
2831 05-01-2020 15:43:18 6.1 C 34 %
2832 05-01-2020 15:53:18 6 C 35 %
2833 05-01-2020 16:03:18 6 C 35 %
2834 05-01-2020 16:13:18 5.9 C 36 %
2835 05-01-2020 16:23:17 5.8 C 36 %
2836 05-01-2020 16:33:17 5.7 C 36 %
2837 05-01-2020 16:43:17 5.7 C 35 %
2838 05-01-2020 16:53:18 5.6 C 36 %
2839 05-01-2020 17:03:18 5.6 C 35 %
2840 05-01-2020 17:13:18 5.6 C 34 %
2841 05-01-2020 17:23:18 5.7 C 31 %
2842 05-01-2020 17:33:18 5.6 C 31 %
2843 05-01-2020 17:43:18 5.6 C 31 %
2844 05-01-2020 17:53:17 5.7 C 31 %
2845 05-01-2020 18:03:17 5.6 C 31 %
2846 05-01-2020 18:13:17 5.5 C 31 %
2847 05-01-2020 18:23:17 5.6 C 30 %
2848 05-01-2020 18:33:17 5.7 C 29 %
2849 05-01-2020 18:43:17 5.5 C 30 %
2850 05-01-2020 18:53:17 5.6 C 30 %
Sensor: Nr:Datum:Temp:Feuchte:
Aussen-T/F 2851 05-01-2020 19:03:17 5.5 C 30 %
2852 05-01-2020 19:13:17 5.6 C 30 %
2853 05-01-2020 19:23:17 5.4 C 31 %
2854 05-01-2020 19:33:17 5.3 C 31 %
2855 05-01-2020 19:43:17 5.4 C 31 %
2856 05-01-2020 19:53:18 5.3 C 31 %
2857 05-01-2020 20:03:18 5.2 C 32 %
2858 05-01-2020 20:13:18 5.5 C 29 %
2859 05-01-2020 20:23:18 5.3 C 30 %
2860 05-01-2020 20:33:18 5.3 C 30 %
2861 05-01-2020 20:43:18 5.2 C 31 %
2862 05-01-2020 20:53:18 5.2 C 31 %
2863 05-01-2020 21:03:18 5 C 32 %
2864 05-01-2020 21:13:18 5.1 C 32 %
2865 05-01-2020 21:23:18 5 C 32 %
2866 05-01-2020 21:33:17 4.9 C 34 %
2867 05-01-2020 21:43:17 4.8 C 35 %
2868 05-01-2020 21:53:17 4.8 C 35 %
2869 05-01-2020 22:03:17 4.8 C 35 %
2870 05-01-2020 22:13:17 4.8 C 35 %
2871 05-01-2020 22:23:17 4.7 C 35 %
2872 05-01-2020 22:33:17 4.7 C 35 %
2873 05-01-2020 22:43:17 4.7 C 35 %
2874 05-01-2020 22:53:17 4.6 C 36 %
2875 05-01-2020 23:03:17 4.5 C 36 %
Sensor: Nr:Datum:Temp:Feuchte:
Aussen-T/F 2876 05-01-2020 23:13:17 4.4 C 37 %
2877 05-01-2020 23:23:17 4.4 C 36 %
2878 05-01-2020 23:33:17 4.5 C 36 %
2879 05-01-2020 23:43:17 4.4 C 35 %
2880 05-01-2020 23:53:17 4.5 C 33 %
2881 06-01-2020 00:03:18 4.4 C 33 %
2882 06-01-2020 00:13:18 4.5 C 33 %
2883 06-01-2020 00:23:18 4.4 C 32 %
2884 06-01-2020 00:33:18 4.4 C 34 %
2885 06-01-2020 00:43:18 4.4 C 32 %
2886 06-01-2020 00:53:18 4.3 C 33 %
2887 06-01-2020 01:03:18 4.3 C 32 %
2888 06-01-2020 01:13:18 4.3 C 32 %
2889 06-01-2020 01:23:17 4.4 C 31 %
2890 06-01-2020 01:33:18 4.2 C 32 %
2891 06-01-2020 01:43:18 4.2 C 32 %
2892 06-01-2020 01:53:17 4.1 C 33 %
2893 06-01-2020 02:03:18 4.2 C 31 %
2894 06-01-2020 02:13:18 4.2 C 32 %
2895 06-01-2020 02:23:18 4.3 C 32 %
2896 06-01-2020 02:33:18 4.1 C 32 %
2897 06-01-2020 02:43:18 4.2 C 31 %
2898 06-01-2020 02:53:18 4.1 C 30 %
2899 06-01-2020 03:03:18 4.2 C 30 %
2900 06-01-2020 03:13:18 4.2 C 31 %
Sensor: Nr:Datum:Temp:Feuchte:
Aussen-T/F 2901 06-01-2020 03:23:17 4.1 C 31 %
2902 06-01-2020 03:33:18 4.1 C 32 %
2903 06-01-2020 03:43:18 3.9 C 32 %
2904 06-01-2020 03:53:18 4.1 C 31 %
2905 06-01-2020 04:03:18 4.1 C 31 %
2906 06-01-2020 04:13:18 4.1 C 29 %
2907 06-01-2020 04:23:18 4.1 C 30 %
2908 06-01-2020 04:33:18 3.8 C 32 %
2909 06-01-2020 04:43:18 3.8 C 34 %
2910 06-01-2020 04:53:17 3.7 C 33 %
2911 06-01-2020 05:03:18 3.8 C 33 %
2912 06-01-2020 05:13:18 3.8 C 33 %
2913 06-01-2020 05:23:18 3.5 C 35 %
2914 06-01-2020 05:33:18 3.6 C 35 %
2915 06-01-2020 05:43:18 3.6 C 35 %
2916 06-01-2020 05:53:18 3.5 C 35 %
2917 06-01-2020 06:03:18 3.5 C 33 %
2918 06-01-2020 06:13:18 3.5 C 33 %
2919 06-01-2020 06:23:18 3.3 C 35 %
2920 06-01-2020 06:33:18 3.3 C 35 %
2921 06-01-2020 06:43:18 3.2 C 36 %
2922 06-01-2020 06:53:18 3 C 36 %
2923 06-01-2020 07:03:18 3 C 35 %
2924 06-01-2020 07:13:18 2.8 C 36 %
2925 06-01-2020 07:23:18 2.9 C 37 %
Sensor: Nr:Datum:Temp:Feuchte:
Aussen-T/F 2926 06-01-2020 07:33:17 2.7 C 38 %
2927 06-01-2020 07:43:17 2.6 C 38 %
2928 06-01-2020 07:53:18 2.6 C 38 %
2929 06-01-2020 08:03:17 2.7 C 35 %
2930 06-01-2020 08:13:17 2.6 C 35 %
2931 06-01-2020 08:23:17 2.4 C 35 %
2932 06-01-2020 08:33:17 2.2 C 36 %
2933 06-01-2020 08:43:17 2.3 C 38 %
2934 06-01-2020 08:53:17 2.4 C 38 %
2935 06-01-2020 09:03:17 2.6 C 38 %
2936 06-01-2020 09:13:17 2.8 C 36 %
2937 06-01-2020 09:23:18 3 C 35 %
2938 06-01-2020 09:33:18 3.2 C 32 %
2939 06-01-2020 09:43:18 2.7 C 33 %
2940 06-01-2020 09:53:17 2.7 C 34 %
2941 06-01-2020 10:03:18 3.4 C 35 %
2942 06-01-2020 10:13:18 3.3 C 31 %
2943 06-01-2020 10:23:17 3 C 31 %
2944 06-01-2020 10:33:18 2.7 C 32 %
2945 06-01-2020 10:43:18 2.4 C 34 %
2946 06-01-2020 10:53:17 1.9 C 37 %
2947 06-01-2020 11:03:17 1.6 C 40 %
2948 06-01-2020 11:13:17 1.6 C 41 %
2949 06-01-2020 11:23:17 1.7 C 42 %
2950 06-01-2020 11:33:17 2.2 C 40 %
Sensor: Nr:Datum:Temp:Feuchte:
Aussen-T/F 2951 06-01-2020 11:43:17 2 C 37 %
2952 06-01-2020 11:53:17 1.9 C 40 %
2953 06-01-2020 12:03:17 2 C 38 %
2954 06-01-2020 12:13:17 2 C 38 %
2955 06-01-2020 12:23:18 2.1 C 39 %
2956 06-01-2020 12:33:18 2.1 C 38 %
2957 06-01-2020 12:43:18 2.3 C 38 %
2958 06-01-2020 12:53:17 2.3 C 38 %
2959 06-01-2020 13:03:18 2.5 C 38 %
2960 06-01-2020 13:13:18 2.4 C 38 %
2961 06-01-2020 13:23:17 2.1 C 39 %
2962 06-01-2020 13:33:17 2.4 C 40 %
2963 06-01-2020 13:43:17 2.7 C 39 %
2964 06-01-2020 13:53:17 2.6 C 37 %
2965 06-01-2020 14:03:17 2.5 C 38 %
2966 06-01-2020 14:13:17 2.6 C 39 %
2967 06-01-2020 14:23:17 2.5 C 39 %
2968 06-01-2020 14:33:18 2.4 C 39 %
2969 06-01-2020 14:43:18 2.8 C 40 %
2970 06-01-2020 14:53:17 2.7 C 40 %
2971 06-01-2020 15:03:18 2.6 C 39 %
2972 06-01-2020 15:13:18 2.8 C 38 %
2973 06-01-2020 15:23:18 2.8 C 39 %
2974 06-01-2020 15:33:18 2.7 C 39 %
2975 06-01-2020 15:43:18 2.6 C 40 %
Sensor: Nr:Datum:Temp:Feuchte:
Aussen-T/F 2976 06-01-2020 15:53:18 2.4 C 39 %
2977 06-01-2020 16:03:18 2 C 40 %
2978 06-01-2020 16:13:18 1.7 C 42 %
2979 06-01-2020 16:23:17 1.8 C 43 %
2980 06-01-2020 16:33:17 1.8 C 42 %
2981 06-01-2020 16:43:17 1.2 C 41 %
2982 06-01-2020 16:53:18 1.2 C 44 %
2983 06-01-2020 17:03:18 1.3 C 43 %
2984 06-01-2020 17:13:18 0.5 C 43 %
2985 06-01-2020 17:23:18 0.8 C 45 %
2986 06-01-2020 17:33:18 0.8 C 45 %
2987 06-01-2020 17:43:18 0.5 C 43 %
2988 06-01-2020 17:53:17 0.1 C 44 %
2989 06-01-2020 18:03:18 0 C 45 %
2990 06-01-2020 18:13:18 -0.1 C 45 %
2991 06-01-2020 18:23:18 0 C 45 %
2992 06-01-2020 18:33:17 -0.4 C 45 %
2993 06-01-2020 18:43:17 -0.1 C 45 %
2994 06-01-2020 18:53:17 -0.2 C 45 %
2995 06-01-2020 19:03:18 -0.2 C 45 %
2996 06-01-2020 19:13:18 -0.5 C 44 %
2997 06-01-2020 19:23:17 -0.6 C 44 %
2998 06-01-2020 19:33:17 -1.3 C 43 %
2999 06-01-2020 19:43:17 -1 C 45 %
3000 06-01-2020 19:53:18 -1.1 C 45 %
Sensor: Nr:Datum:Temp:Feuchte:
Aussen-T/F 3001 06-01-2020 20:03:18 -1.5 C 44 %
3002 06-01-2020 20:13:18 -1 C 45 %
3003 06-01-2020 20:23:18 -0.8 C 45 %
3004 06-01-2020 20:33:18 -0.7 C 45 %
3005 06-01-2020 20:43:18 -0.8 C 45 %
3006 06-01-2020 20:53:18 -0.9 C 44 %
3007 06-01-2020 21:03:18 -1.1 C 44 %
3008 06-01-2020 21:13:18 -1.1 C 44 %
3009 06-01-2020 21:23:18 -1.3 C 44 %
3010 06-01-2020 21:33:18 -1.2 C 45 %
3011 06-01-2020 21:43:18 -0.8 C 45 %
3012 06-01-2020 21:53:18 -0.5 C 46 %
3013 06-01-2020 22:03:18 -0.3 C 46 %
3014 06-01-2020 22:13:18 0.2 C 46 %
3015 06-01-2020 22:23:17 0.5 C 45 %
3016 06-01-2020 22:33:17 0.6 C 42 %
3017 06-01-2020 22:43:17 0.5 C 42 %
3018 06-01-2020 22:53:18 0.6 C 42 %
3019 06-01-2020 23:03:18 0.7 C 44 %
3020 06-01-2020 23:13:18 0.8 C 44 %
3021 06-01-2020 23:23:18 0.7 C 43 %
3022 06-01-2020 23:33:18 0.6 C 44 %
3023 06-01-2020 23:43:18 0.8 C 45 %
3024 06-01-2020 23:53:18 1 C 43 %
3025 07-01-2020 00:03:18 1.2 C 43 %
Sensor: Nr:Datum:Temp:Feuchte:
Aussen-T/F 3026 07-01-2020 00:13:18 1.8 C 39 %
3027 07-01-2020 00:23:17 2 C 37 %
3028 07-01-2020 00:33:17 1.8 C 39 %
3029 07-01-2020 00:43:17 2.3 C 36 %
3030 07-01-2020 00:53:17 2.5 C 35 %
3031 07-01-2020 01:03:17 2.5 C 36 %
3032 07-01-2020 01:13:17 2.6 C 35 %
3033 07-01-2020 01:23:17 2.8 C 35 %
3034 07-01-2020 01:33:17 3 C 34 %
3035 07-01-2020 01:43:17 3 C 34 %
3036 07-01-2020 01:53:18 3 C 35 %
3037 07-01-2020 02:03:18 3.3 C 33 %
3038 07-01-2020 02:13:18 3.1 C 33 %
3039 07-01-2020 02:23:17 2.8 C 37 %
3040 07-01-2020 02:33:17 2.8 C 38 %
3041 07-01-2020 02:43:17 2.8 C 38 %
3042 07-01-2020 02:53:18 2.8 C 38 %
3043 07-01-2020 03:03:18 2.8 C 38 %
3044 07-01-2020 03:13:18 2.7 C 39 %
3045 07-01-2020 03:23:18 2.7 C 40 %
3046 07-01-2020 03:33:18 2.7 C 40 %
3047 07-01-2020 03:43:18 2.7 C 39 %
3048 07-01-2020 03:53:18 2.9 C 39 %
3049 07-01-2020 04:03:18 2.9 C 40 %
3050 07-01-2020 04:13:18 3 C 37 %
Sensor: Nr:Datum:Temp:Feuchte:
Aussen-T/F 3051 07-01-2020 04:23:18 3 C 37 %
3052 07-01-2020 04:33:18 3.2 C 36 %
3053 07-01-2020 04:43:18 3.2 C 36 %
3054 07-01-2020 04:53:18 3.3 C 38 %
3055 07-01-2020 05:03:18 3.5 C 37 %
3056 07-01-2020 05:13:18 3.3 C 37 %
3057 07-01-2020 05:23:17 3.4 C 37 %
3058 07-01-2020 05:33:17 3.5 C 37 %
3059 07-01-2020 05:43:17 3.5 C 38 %
3060 07-01-2020 05:53:18 3.6 C 37 %
3061 07-01-2020 06:03:18 3.6 C 37 %
3062 07-01-2020 06:13:18 3.7 C 36 %
3063 07-01-2020 06:23:18 3.9 C 36 %
3064 07-01-2020 06:33:18 4 C 35 %
3065 07-01-2020 06:43:18 4.3 C 34 %
3066 07-01-2020 06:53:17 4.3 C 34 %
3067 07-01-2020 07:03:18 4.3 C 34 %
3068 07-01-2020 07:13:18 4.4 C 34 %
3069 07-01-2020 07:23:18 4.4 C 34 %
3070 07-01-2020 07:33:18 4.4 C 34 %
3071 07-01-2020 07:43:18 4.3 C 34 %
3072 07-01-2020 07:53:18 4.3 C 35 %
3073 07-01-2020 08:03:18 4.4 C 35 %
3074 07-01-2020 08:13:18 4.4 C 35 %
3075 07-01-2020 08:23:17 4.3 C 35 %
Sensor: Nr:Datum:Temp:Feuchte:
Aussen-T/F 3076 07-01-2020 08:33:17 3.9 C 37 %
3077 07-01-2020 08:43:17 3.6 C 40 %
3078 07-01-2020 08:53:17 3.8 C 41 %
3079 07-01-2020 09:03:18 4 C 38 %
3080 07-01-2020 09:13:18 3.9 C 40 %
3081 07-01-2020 09:23:17 4 C 37 %
3082 07-01-2020 09:33:17 4.2 C 37 %
3083 07-01-2020 09:43:17 4.5 C 35 %
3084 07-01-2020 09:53:18 4.6 C 35 %
3085 07-01-2020 10:03:17 4.8 C 35 %
3086 07-01-2020 10:13:17 4.9 C 35 %
3087 07-01-2020 10:23:17 5.1 C 33 %
3088 07-01-2020 10:33:17 5.4 C 33 %
3089 07-01-2020 10:43:17 5.5 C 33 %
3090 07-01-2020 10:53:17 5.6 C 33 %
3091 07-01-2020 11:03:17 5.9 C 32 %
3092 07-01-2020 11:13:17 6.1 C 31 %
3093 07-01-2020 11:23:18 6.3 C 31 %
3094 07-01-2020 11:33:18 6.3 C 31 %
3095 07-01-2020 11:43:18 6.4 C 31 %
3096 07-01-2020 11:53:17 6.4 C 30 %
3097 07-01-2020 12:03:18 6.6 C 30 %
3098 07-01-2020 12:13:18 6.8 C 30 %
3099 07-01-2020 12:23:18 6.8 C 29 %
3100 07-01-2020 12:33:17 6.7 C 29 %
Sensor: Nr:Datum:Temp:Feuchte:
Aussen-T/F 3101 07-01-2020 12:43:17 6.5 C 30 %
3102 07-01-2020 12:53:18 6.5 C 30 %
3103 07-01-2020 13:03:17 6.8 C 29 %
3104 07-01-2020 13:13:17 7 C 27 %
3105 07-01-2020 13:23:17 6.9 C 29 %
3106 07-01-2020 13:33:17 6.9 C 28 %
3107 07-01-2020 13:43:17 6.8 C 29 %
3108 07-01-2020 13:53:17 7 C 27 %
3109 07-01-2020 14:03:18 7.1 C 27 %
3110 07-01-2020 14:13:18 7 C 27 %
3111 07-01-2020 14:23:17 7.1 C 27 %
3112 07-01-2020 14:33:17 7.3 C 26 %
3113 07-01-2020 14:43:17 6.8 C 28 %
3114 07-01-2020 14:53:17 7.2 C 26 %
3115 07-01-2020 15:03:17 6.7 C 28 %
3116 07-01-2020 15:13:17 6.4 C 28 %
3117 07-01-2020 15:23:17 6.3 C 28 %
3118 07-01-2020 15:33:17 6 C 29 %
3119 07-01-2020 15:43:17 5.7 C 30 %
3120 07-01-2020 15:53:17 5.5 C 31 %
3121 07-01-2020 16:03:17 5.3 C 31 %
3122 07-01-2020 16:13:17 5.4 C 31 %
3123 07-01-2020 16:23:17 5.4 C 31 %
3124 07-01-2020 16:33:17 4.5 C 35 %
3125 07-01-2020 16:43:17 4 C 37 %
Sensor: Nr:Datum:Temp:Feuchte:
Aussen-T/F 3126 07-01-2020 16:53:17 4.1 C 37 %
3127 07-01-2020 17:03:18 3.6 C 40 %
3128 07-01-2020 17:13:18 3.5 C 40 %
3129 07-01-2020 17:23:18 3.3 C 41 %
3130 07-01-2020 17:33:18 3.3 C 42 %
3131 07-01-2020 17:43:18 3.1 C 41 %
3132 07-01-2020 17:53:17 2.9 C 43 %
3133 07-01-2020 18:03:18 3.1 C 43 %
3134 07-01-2020 18:13:18 3.2 C 43 %
3135 07-01-2020 18:23:18 2.9 C 43 %
3136 07-01-2020 18:33:18 2.7 C 43 %
3137 07-01-2020 18:43:18 2.9 C 44 %
3138 07-01-2020 18:53:18 2.7 C 43 %
3139 07-01-2020 19:03:17 2.8 C 44 %
3140 07-01-2020 19:13:17 2.5 C 43 %
3141 07-01-2020 19:23:17 2.5 C 43 %
3142 07-01-2020 19:33:18 2.5 C 43 %
3143 07-01-2020 19:43:18 2.5 C 43 %
3144 07-01-2020 19:53:17 3 C 43 %
3145 07-01-2020 20:03:18 3.6 C 42 %
3146 07-01-2020 20:13:18 4.1 C 38 %
3147 07-01-2020 20:23:18 3.6 C 38 %
3148 07-01-2020 20:33:18 3.6 C 39 %
3149 07-01-2020 20:43:18 4 C 37 %
3150 07-01-2020 20:53:17 4.7 C 35 %
Sensor: Nr:Datum:Temp:Feuchte:
Aussen-T/F 3151 07-01-2020 21:03:18 5.1 C 32 %
3152 07-01-2020 21:13:18 5.1 C 32 %
3153 07-01-2020 21:23:18 5.3 C 31 %
3154 07-01-2020 21:33:18 5.7 C 31 %
3155 07-01-2020 21:43:18 5.7 C 30 %
3156 07-01-2020 21:53:17 5.7 C 30 %
3157 07-01-2020 22:03:18 6 C 28 %
3158 07-01-2020 22:13:18 5.8 C 29 %
3159 07-01-2020 22:24:17 5.9 C 29 %
3160 07-01-2020 22:33:17 5.7 C 29 %
3161 07-01-2020 22:43:17 5.7 C 30 %
3162 07-01-2020 22:53:17 5.9 C 29 %
3163 07-01-2020 23:03:18 6 C 28 %
3164 07-01-2020 23:13:18 6 C 28 %
3165 07-01-2020 23:23:18 6.1 C 28 %
3166 07-01-2020 23:33:18 5.9 C 28 %
3167 07-01-2020 23:43:18 5.6 C 30 %
3168 07-01-2020 23:53:18 5.7 C 29 %
3169 08-01-2020 00:04:17 5.7 C 29 %
3170 08-01-2020 00:14:17 5.4 C 30 %
3171 08-01-2020 00:24:17 5.6 C 29 %
3172 08-01-2020 00:34:17 5.6 C 28 %
3173 08-01-2020 00:44:17 5.5 C 29 %
3174 08-01-2020 00:53:18 5.7 C 28 %
3175 08-01-2020 01:03:18 5.4 C 28 %
Sensor: Nr:Datum:Temp:Feuchte:
Aussen-T/F 3176 08-01-2020 01:13:18 5.6 C 28 %
3177 08-01-2020 01:24:17 5.4 C 28 %
3178 08-01-2020 01:33:18 5.4 C 28 %
3179 08-01-2020 01:43:18 5.3 C 28 %
3180 08-01-2020 01:53:17 4.7 C 30 %
3181 08-01-2020 02:03:18 4.7 C 30 %
3182 08-01-2020 02:13:18 5 C 30 %
3183 08-01-2020 02:23:18 5 C 30 %
3184 08-01-2020 02:33:18 5.3 C 30 %
3185 08-01-2020 02:43:18 5.4 C 30 %
3186 08-01-2020 02:53:18 5.5 C 30 %
3187 08-01-2020 03:03:18 5.9 C 30 %
3188 08-01-2020 03:13:18 5.8 C 30 %
3189 08-01-2020 03:23:18 5.9 C 30 %
3190 08-01-2020 03:33:18 5.8 C 30 %
3191 08-01-2020 03:43:18 6 C 30 %
3192 08-01-2020 03:53:17 5.9 C 30 %
3193 08-01-2020 04:03:18 5.9 C 30 %
3194 08-01-2020 04:13:18 5.8 C 31 %
3195 08-01-2020 04:23:18 5.8 C 31 %
3196 08-01-2020 04:33:18 5.7 C 32 %
3197 08-01-2020 04:43:18 5.7 C 32 %
3198 08-01-2020 04:54:17 5.6 C 33 %
3199 08-01-2020 05:04:17 5.6 C 33 %
3200 08-01-2020 05:14:17 5.7 C 33 %
Sensor: Nr:Datum:Temp:Feuchte:
Aussen-T/F 3201 08-01-2020 05:24:17 5.8 C 34 %
3202 08-01-2020 05:34:17 5.7 C 34 %
3203 08-01-2020 05:44:17 5.8 C 35 %
3204 08-01-2020 05:54:17 5.8 C 35 %
3205 08-01-2020 06:04:17 6 C 35 %
3206 08-01-2020 06:14:17 5.9 C 35 %
3207 08-01-2020 06:24:17 6 C 35 %
3208 08-01-2020 06:34:17 6.2 C 35 %
3209 08-01-2020 06:44:17 6.1 C 36 %
3210 08-01-2020 06:54:17 6 C 39 %
3211 08-01-2020 07:04:17 5.8 C 41 %
3212 08-01-2020 07:14:17 5.9 C 42 %
3213 08-01-2020 07:24:18 6 C 42 %
3214 08-01-2020 07:34:18 6.1 C 42 %
3215 08-01-2020 07:44:18 6.2 C 42 %
3216 08-01-2020 07:54:17 6.2 C 42 %
3217 08-01-2020 08:04:17 6.3 C 42 %
3218 08-01-2020 08:14:17 6.2 C 42 %
3219 08-01-2020 08:24:17 6.2 C 42 %
3220 08-01-2020 08:34:18 6.1 C 42 %
3221 08-01-2020 08:44:18 6.6 C 41 %
3222 08-01-2020 08:54:17 6.7 C 39 %
3223 08-01-2020 09:04:17 6.8 C 39 %
3224 08-01-2020 09:14:17 6.8 C 39 %
3225 08-01-2020 09:24:17 6.7 C 39 %
Sensor: Nr:Datum:Temp:Feuchte:
Aussen-T/F 3226 08-01-2020 09:34:17 6.7 C 40 %
3227 08-01-2020 09:44:17 6.9 C 39 %
3228 08-01-2020 09:54:17 7.1 C 38 %
3229 08-01-2020 10:04:17 7.1 C 38 %
3230 08-01-2020 10:14:17 7.2 C 37 %
3231 08-01-2020 10:24:17 7.4 C 36 %
3232 08-01-2020 10:34:17 7.3 C 36 %
3233 08-01-2020 10:44:17 7.4 C 36 %
3234 08-01-2020 10:54:17 7.5 C 35 %
3235 08-01-2020 11:04:17 7.7 C 35 %
3236 08-01-2020 11:14:17 7.8 C 35 %
3237 08-01-2020 11:24:17 7.9 C 34 %
3238 08-01-2020 11:34:17 7.8 C 35 %
3239 08-01-2020 11:44:17 7.9 C 34 %
3240 08-01-2020 11:54:17 7.7 C 35 %
3241 08-01-2020 12:04:17 7.6 C 36 %
3242 08-01-2020 12:14:17 7.7 C 36 %
3243 08-01-2020 12:24:16 7.9 C 35 %
3244 08-01-2020 12:34:17 8 C 34 %
3245 08-01-2020 12:44:17 8.1 C 34 %
3246 08-01-2020 12:54:17 8.8 C 33 %
3247 08-01-2020 13:04:17 9 C 31 %
3248 08-01-2020 13:14:17 8.8 C 32 %
3249 08-01-2020 13:24:17 8.7 C 32 %
3250 08-01-2020 13:34:17 8.8 C 32 %
Sensor: Nr:Datum:Temp:Feuchte:
Aussen-T/F 3251 08-01-2020 13:44:17 8.8 C 32 %
3252 08-01-2020 13:54:17 8.7 C 32 %
3253 08-01-2020 14:04:16 8.9 C 32 %
3254 08-01-2020 14:14:16 9 C 32 %
3255 08-01-2020 14:24:16 9 C 32 %
3256 08-01-2020 14:34:16 9 C 32 %
3257 08-01-2020 14:44:16 9.1 C 32 %
3258 08-01-2020 14:54:16 9.3 C 31 %
3259 08-01-2020 15:04:16 9.4 C 31 %
3260 08-01-2020 15:14:16 9.4 C 31 %
3261 08-01-2020 15:24:16 9.4 C 31 %
3262 08-01-2020 15:34:16 9.3 C 32 %
3263 08-01-2020 15:44:16 9.3 C 32 %
3264 08-01-2020 15:54:16 9.4 C 32 %
3265 08-01-2020 16:04:17 9.3 C 32 %
3266 08-01-2020 16:14:17 9.3 C 32 %
3267 08-01-2020 16:24:17 9.2 C 33 %
3268 08-01-2020 16:34:17 9.2 C 33 %
3269 08-01-2020 16:44:17 9.3 C 33 %
3270 08-01-2020 16:54:17 9.3 C 34 %
3271 08-01-2020 17:04:17 9.3 C 34 %
3272 08-01-2020 17:14:17 9.3 C 34 %
3273 08-01-2020 17:24:17 9.3 C 34 %
3274 08-01-2020 17:34:17 9.2 C 35 %
3275 08-01-2020 17:44:17 9.2 C 35 %
Sensor: Nr:Datum:Temp:Feuchte:
Aussen-T/F 3276 08-01-2020 17:54:17 9.1 C 35 %
3277 08-01-2020 18:04:17 9.2 C 35 %
3278 08-01-2020 18:14:17 9.1 C 36 %
3279 08-01-2020 18:24:17 9.1 C 36 %
3280 08-01-2020 18:34:17 9.2 C 35 %
3281 08-01-2020 18:44:17 9.4 C 35 %
3282 08-01-2020 18:54:17 9.4 C 35 %
3283 08-01-2020 19:04:17 9.5 C 36 %
3284 08-01-2020 19:14:17 9.6 C 35 %
3285 08-01-2020 19:24:17 9.7 C 35 %
3286 08-01-2020 19:34:17 9.6 C 35 %
3287 08-01-2020 19:44:17 9.5 C 35 %
3288 08-01-2020 19:54:17 9.3 C 36 %
3289 08-01-2020 20:04:17 9.7 C 36 %
3290 08-01-2020 20:14:17 9.7 C 35 %
3291 08-01-2020 20:24:17 9.9 C 35 %
3292 08-01-2020 20:34:17 9.8 C 35 %
3293 08-01-2020 20:44:17 9.9 C 35 %
3294 08-01-2020 20:54:16 9.9 C 35 %
3295 08-01-2020 21:04:17 10 C 35 %
3296 08-01-2020 21:14:17 9.8 C 35 %
3297 08-01-2020 21:24:17 9.8 C 35 %
3298 08-01-2020 21:34:17 9.9 C 36 %
3299 08-01-2020 21:44:17 10 C 35 %
3300 08-01-2020 21:54:16 9.6 C 37 %
Sensor: Nr:Datum:Temp:Feuchte:
Aussen-T/F 3301 08-01-2020 22:04:16 9.5 C 37 %
3302 08-01-2020 22:14:16 9.6 C 38 %
3303 08-01-2020 22:24:16 9.9 C 36 %
3304 08-01-2020 22:34:16 9.8 C 36 %
3305 08-01-2020 22:44:16 9.6 C 37 %
3306 08-01-2020 22:54:16 9.6 C 38 %
3307 08-01-2020 23:04:16 9.7 C 38 %
3308 08-01-2020 23:14:16 9.5 C 38 %
3309 08-01-2020 23:24:16 9.5 C 39 %
3310 08-01-2020 23:34:16 9.5 C 39 %
3311 08-01-2020 23:44:16 9.5 C 39 %
3312 08-01-2020 23:54:16 9.5 C 40 %
3313 09-01-2020 00:04:16 9.1 C 40 %
3314 09-01-2020 00:14:16 9.2 C 40 %
3315 09-01-2020 00:24:16 9.2 C 40 %
3316 09-01-2020 00:34:16 9.1 C 41 %
3317 09-01-2020 00:44:16 9 C 41 %
3318 09-01-2020 00:54:16 9 C 41 %
3319 09-01-2020 01:04:16 9.1 C 42 %
3320 09-01-2020 01:14:16 9 C 41 %
3321 09-01-2020 01:24:16 9 C 42 %
3322 09-01-2020 01:34:16 8.9 C 42 %
3323 09-01-2020 01:44:16 8.9 C 42 %
3324 09-01-2020 01:54:16 8.9 C 42 %
3325 09-01-2020 02:04:16 8.9 C 42 %
Sensor: Nr:Datum:Temp:Feuchte:
Aussen-T/F 3326 09-01-2020 02:14:16 8.7 C 42 %
3327 09-01-2020 02:24:16 8.8 C 42 %
3328 09-01-2020 02:34:16 8.7 C 42 %
3329 09-01-2020 02:44:16 8.8 C 42 %
3330 09-01-2020 02:54:18 8.8 C 41 %
3331 09-01-2020 03:04:18 8.8 C 40 %
3332 09-01-2020 03:14:18 8.7 C 40 %
3333 09-01-2020 03:24:17 8.7 C 40 %
3334 09-01-2020 03:34:17 8.7 C 40 %
3335 09-01-2020 03:44:17 8.6 C 40 %
3336 09-01-2020 03:54:17 8.5 C 40 %
3337 09-01-2020 04:04:17 8.4 C 41 %
3338 09-01-2020 04:14:17 8.5 C 42 %
3339 09-01-2020 04:24:17 8.5 C 42 %
3340 09-01-2020 04:34:17 8.5 C 42 %
3341 09-01-2020 04:44:17 8.6 C 42 %
3342 09-01-2020 04:54:17 8.5 C 42 %
3343 09-01-2020 05:04:17 8.5 C 42 %
3344 09-01-2020 05:14:17 8.5 C 42 %
3345 09-01-2020 05:24:17 8.5 C 42 %
3346 09-01-2020 05:34:17 8.5 C 41 %
3347 09-01-2020 05:44:17 8.5 C 42 %
3348 09-01-2020 05:54:18 8.5 C 42 %
3349 09-01-2020 06:04:18 8.5 C 41 %
3350 09-01-2020 06:14:18 8.5 C 41 %
Sensor: Nr:Datum:Temp:Feuchte:
Aussen-T/F 3351 09-01-2020 06:24:18 8.6 C 41 %
3352 09-01-2020 06:34:18 8.6 C 41 %
3353 09-01-2020 06:44:18 8.6 C 41 %
3354 09-01-2020 06:54:18 8.7 C 41 %
3355 09-01-2020 07:04:18 8.7 C 41 %
3356 09-01-2020 07:14:18 8.8 C 41 %
3357 09-01-2020 07:24:18 8.8 C 41 %
3358 09-01-2020 07:34:18 9 C 41 %
3359 09-01-2020 07:44:18 9 C 41 %
3360 09-01-2020 07:54:18 9 C 41 %
3361 09-01-2020 08:04:18 9 C 41 %
3362 09-01-2020 08:14:18 9 C 41 %
3363 09-01-2020 08:24:18 9.3 C 41 %
3364 09-01-2020 08:34:18 9.2 C 41 %
3365 09-01-2020 08:44:18 9.5 C 41 %
3366 09-01-2020 08:54:18 9.6 C 41 %
3367 09-01-2020 09:04:18 9.8 C 40 %
3368 09-01-2020 09:14:18 10 C 40 %
3369 09-01-2020 09:24:18 9.8 C 40 %
3370 09-01-2020 09:34:17 9.8 C 39 %
3371 09-01-2020 09:44:17 10.1 C 39 %
3372 09-01-2020 09:54:17 10.3 C 37 %
3373 09-01-2020 10:04:17 10.7 C 35 %
3374 09-01-2020 10:14:17 10.8 C 35 %
3375 09-01-2020 10:24:17 11.1 C 33 %
Sensor: Nr:Datum:Temp:Feuchte:
Aussen-T/F 3376 09-01-2020 10:34:18 11.4 C 32 %
3377 09-01-2020 10:44:18 11.5 C 32 %
3378 09-01-2020 10:54:17 11.6 C 32 %
3379 09-01-2020 11:04:18 11.8 C 31 %
3380 09-01-2020 11:14:18 12 C 30 %
3381 09-01-2020 11:24:18 12.2 C 30 %
3382 09-01-2020 11:34:18 12.3 C 30 %
3383 09-01-2020 11:44:18 12.5 C 30 %
3384 09-01-2020 11:54:17 12.7 C 29 %
3385 09-01-2020 12:04:17 12.8 C 29 %
3386 09-01-2020 12:14:17 12.9 C 28 %
3387 09-01-2020 12:24:17 13 C 27 %
3388 09-01-2020 12:34:17 13 C 27 %
3389 09-01-2020 12:44:17 13.1 C 27 %
3390 09-01-2020 12:54:17 13.2 C 27 %
3391 09-01-2020 13:04:17 13.2 C 27 %
3392 09-01-2020 13:14:17 13.2 C 27 %
3393 09-01-2020 13:24:17 13.2 C 26 %
3394 09-01-2020 13:34:18 13.3 C 27 %
3395 09-01-2020 13:44:18 13.3 C 26 %
3396 09-01-2020 13:54:18 13.1 C 26 %
3397 09-01-2020 14:04:18 13 C 26 %
3398 09-01-2020 14:14:18 12.7 C 28 %
3399 09-01-2020 14:24:17 12.3 C 29 %
3400 09-01-2020 14:34:17 12.2 C 29 %
Sensor: Nr:Datum:Temp:Feuchte:
Aussen-T/F 3401 09-01-2020 14:44:17 12.1 C 30 %
3402 09-01-2020 14:54:17 12.2 C 30 %
3403 09-01-2020 15:04:17 12.3 C 30 %
3404 09-01-2020 15:14:18 12.1 C 29 %
3405 09-01-2020 15:24:18 12.4 C 28 %
3406 09-01-2020 15:34:17 12.4 C 29 %
3407 09-01-2020 15:44:17 12.4 C 29 %
3408 09-01-2020 15:54:17 12.4 C 29 %
3409 09-01-2020 16:04:17 12.4 C 29 %
3410 09-01-2020 16:14:17 12.5 C 28 %
3411 09-01-2020 16:24:17 12.1 C 29 %
3412 09-01-2020 16:34:17 12.3 C 28 %
3413 09-01-2020 16:44:17 12.2 C 29 %
3414 09-01-2020 16:54:17 12 C 29 %
3415 09-01-2020 17:04:17 12.2 C 29 %
3416 09-01-2020 17:14:17 12.3 C 28 %
3417 09-01-2020 17:24:18 12.1 C 28 %
3418 09-01-2020 17:34:17 12.1 C 28 %
3419 09-01-2020 17:44:17 12 C 28 %
3420 09-01-2020 17:54:18 11.7 C 30 %
3421 09-01-2020 18:04:18 11.4 C 30 %
3422 09-01-2020 18:14:18 11.3 C 31 %
3423 09-01-2020 18:24:17 10.9 C 32 %
3424 09-01-2020 18:34:17 11.1 C 30 %
3425 09-01-2020 18:44:17 11 C 30 %
Sensor: Nr:Datum:Temp:Feuchte:
Aussen-T/F 3426 09-01-2020 18:54:17 11 C 30 %
3427 09-01-2020 19:04:17 11.4 C 29 %
3428 09-01-2020 19:14:17 11.3 C 29 %
3429 09-01-2020 19:24:17 11 C 30 %
3430 09-01-2020 19:34:18 10.7 C 31 %
3431 09-01-2020 19:44:18 10.8 C 31 %
3432 09-01-2020 19:54:17 10.1 C 35 %
3433 09-01-2020 20:04:18 10 C 37 %
3434 09-01-2020 20:14:18 9.7 C 37 %
3435 09-01-2020 20:24:17 9.7 C 35 %
3436 09-01-2020 20:34:17 9.9 C 37 %
3437 09-01-2020 20:44:17 9.7 C 36 %
3438 09-01-2020 20:54:17 9.6 C 35 %
3439 09-01-2020 21:04:17 9.4 C 37 %
3440 09-01-2020 21:14:18 9.3 C 38 %
3441 09-01-2020 21:24:18 9.2 C 39 %
3442 09-01-2020 21:34:18 9.1 C 40 %
3443 09-01-2020 21:44:18 9.3 C 37 %
3444 09-01-2020 21:54:17 9.2 C 37 %
3445 09-01-2020 22:04:18 9.2 C 38 %
3446 09-01-2020 22:14:18 9.2 C 38 %
3447 09-01-2020 22:24:17 9.2 C 38 %
3448 09-01-2020 22:34:18 9.2 C 38 %
3449 09-01-2020 22:44:18 9.3 C 36 %
3450 09-01-2020 22:54:18 9.4 C 34 %
Sensor: Nr:Datum:Temp:Feuchte:
Aussen-T/F 3451 09-01-2020 23:04:18 9.8 C 32 %
3452 09-01-2020 23:14:18 9.8 C 31 %
3453 09-01-2020 23:24:18 9.7 C 31 %
3454 09-01-2020 23:34:18 9.6 C 32 %
3455 09-01-2020 23:44:18 10 C 30 %
3456 09-01-2020 23:54:17 10.2 C 30 %
3457 10-01-2020 00:04:17 10.1 C 30 %
3458 10-01-2020 00:14:17 10.1 C 30 %
3459 10-01-2020 00:24:17 9.9 C 30 %
3460 10-01-2020 00:34:17 9.8 C 31 %
3461 10-01-2020 00:44:17 9.6 C 32 %
3462 10-01-2020 00:54:17 9.5 C 32 %
3463 10-01-2020 01:04:17 9.9 C 30 %
3464 10-01-2020 01:14:17 9.7 C 31 %
3465 10-01-2020 01:24:17 9.7 C 31 %
3466 10-01-2020 01:34:17 9.6 C 31 %
3467 10-01-2020 01:44:17 9.3 C 31 %
3468 10-01-2020 01:54:17 9.6 C 31 %
3469 10-01-2020 02:04:17 9.5 C 31 %
3470 10-01-2020 02:14:17 9.7 C 31 %
3471 10-01-2020 02:24:18 9.7 C 30 %
3472 10-01-2020 02:34:17 9.8 C 30 %
3473 10-01-2020 02:44:17 9.8 C 30 %
3474 10-01-2020 02:54:18 9.6 C 30 %
3475 10-01-2020 03:04:17 10.1 C 29 %
Sensor: Nr:Datum:Temp:Feuchte:
Aussen-T/F 3476 10-01-2020 03:14:17 9.8 C 30 %
3477 10-01-2020 03:24:17 9.8 C 30 %
3478 10-01-2020 03:34:18 10.1 C 28 %
3479 10-01-2020 03:44:18 10 C 27 %
3480 10-01-2020 03:54:17 10 C 27 %
3481 10-01-2020 04:04:18 10.1 C 26 %
3482 10-01-2020 04:14:18 10.2 C 26 %
3483 10-01-2020 04:24:18 10 C 26 %
3484 10-01-2020 04:34:18 9.9 C 26 %
3485 10-01-2020 04:44:18 9.8 C 26 %
3486 10-01-2020 04:54:17 9.7 C 26 %
3487 10-01-2020 05:04:18 9.5 C 26 %
3488 10-01-2020 05:14:18 9.8 C 26 %
3489 10-01-2020 05:24:18 9.7 C 26 %
3490 10-01-2020 05:34:18 9.1 C 27 %
3491 10-01-2020 05:44:18 9.2 C 27 %
3492 10-01-2020 05:54:18 9.3 C 27 %
3493 10-01-2020 06:04:18 9.2 C 27 %
3494 10-01-2020 06:14:18 8.9 C 28 %
3495 10-01-2020 06:24:18 8.3 C 32 %
3496 10-01-2020 06:34:17 8 C 36 %
3497 10-01-2020 06:44:17 8 C 39 %
3498 10-01-2020 06:54:17 7.8 C 40 %
3499 10-01-2020 07:04:17 7.8 C 40 %
3500 10-01-2020 07:14:17 7.8 C 40 %
Sensor: Nr:Datum:Temp:Feuchte:
Aussen-T/F 3501 10-01-2020 07:24:17 7.8 C 41 %
3502 10-01-2020 07:34:17 7.7 C 41 %
3503 10-01-2020 07:44:17 7.7 C 40 %
3504 10-01-2020 07:54:18 7.7 C 40 %
3505 10-01-2020 08:04:18 7.7 C 40 %
3506 10-01-2020 08:14:18 7.8 C 38 %
3507 10-01-2020 08:24:17 7.6 C 38 %
3508 10-01-2020 08:34:17 7.7 C 39 %
3509 10-01-2020 08:44:17 8 C 35 %
3510 10-01-2020 08:54:17 8 C 35 %
3511 10-01-2020 09:04:17 8.5 C 32 %
3512 10-01-2020 09:14:17 8.4 C 32 %
3513 10-01-2020 09:24:17 8.7 C 31 %
3514 10-01-2020 09:34:17 8.9 C 31 %
3515 10-01-2020 09:44:17 9 C 30 %
3516 10-01-2020 09:54:17 9.1 C 30 %
3517 10-01-2020 10:04:18 9.1 C 30 %
3518 10-01-2020 10:14:18 9.1 C 30 %
3519 10-01-2020 10:24:18 9.2 C 30 %
3520 10-01-2020 10:34:17 9.2 C 30 %
3521 10-01-2020 10:44:17 9.5 C 30 %
3522 10-01-2020 10:54:18 9.5 C 29 %
3523 10-01-2020 11:04:18 10.2 C 26 %
3524 10-01-2020 11:14:18 10.2 C 26 %
3525 10-01-2020 11:24:17 10.2 C 26 %
Sensor: Nr:Datum:Temp:Feuchte:
Aussen-T/F 3526 10-01-2020 11:34:17 10.4 C 26 %
3527 10-01-2020 11:44:17 10.3 C 26 %
3528 10-01-2020 11:54:17 10.7 C 26 %
3529 10-01-2020 12:04:17 10.8 C 26 %
3530 10-01-2020 12:14:17 11 C 26 %
3531 10-01-2020 12:24:17 10.1 C 27 %
3532 10-01-2020 12:34:17 10.4 C 27 %
3533 10-01-2020 12:44:17 10.6 C 26 %
3534 10-01-2020 12:54:17 9.4 C 31 %
3535 10-01-2020 13:04:17 8.7 C 31 %
3536 10-01-2020 13:14:17 8.3 C 34 %
3537 10-01-2020 13:24:17 8.4 C 32 %
3538 10-01-2020 13:34:17 8.7 C 33 %
3539 10-01-2020 13:44:17 8.7 C 33 %
3540 10-01-2020 13:54:17 8.6 C 35 %
3541 10-01-2020 14:04:18 8.4 C 32 %
3542 10-01-2020 14:14:18 8.8 C 30 %
3543 10-01-2020 14:24:29 9 C 29 %
3544 10-01-2020 14:34:17 9 C 28 %
3545 10-01-2020 14:44:17 9 C 27 %
3546 10-01-2020 14:54:17 9 C 26 %
3547 10-01-2020 15:04:20 8.9 C 27 %
3548 10-01-2020 15:14:20 8.8 C 27 %
3549 10-01-2020 15:24:17 8.7 C 27 %
3550 10-01-2020 15:34:18 8.6 C 27 %
Sensor: Nr:Datum:Temp:Feuchte:
Aussen-T/F 3551 10-01-2020 15:44:18 8.6 C 27 %
3552 10-01-2020 15:54:17 8.6 C 27 %
3553 10-01-2020 16:04:17 8.3 C 28 %
3554 10-01-2020 16:14:17 7.6 C 31 %
3555 10-01-2020 16:24:17 7.5 C 34 %
3556 10-01-2020 16:34:18 7.4 C 32 %
3557 10-01-2020 16:44:18 7.2 C 33 %
3558 10-01-2020 16:54:17 7 C 32 %
3559 10-01-2020 17:04:18 6.7 C 34 %
3560 10-01-2020 17:14:18 6.8 C 34 %
3561 10-01-2020 17:24:17 6.9 C 32 %
3562 10-01-2020 17:34:18 6.7 C 32 %
3563 10-01-2020 17:44:18 6.6 C 32 %
3564 10-01-2020 17:54:17 6.9 C 31 %
3565 10-01-2020 18:04:17 7 C 31 %
3566 10-01-2020 18:14:17 7 C 30 %
3567 10-01-2020 18:24:18 6.8 C 31 %
3568 10-01-2020 18:34:17 7 C 30 %
3569 10-01-2020 18:44:17 7.1 C 30 %
3570 10-01-2020 18:54:17 6.6 C 32 %
3571 10-01-2020 19:04:17 6.5 C 33 %
3572 10-01-2020 19:14:18 6.3 C 35 %
3573 10-01-2020 19:24:17 6 C 37 %
3574 10-01-2020 19:34:17 6 C 36 %
3575 10-01-2020 19:44:17 5.9 C 39 %
Sensor: Nr:Datum:Temp:Feuchte:
Aussen-T/F 3576 10-01-2020 19:54:17 5.8 C 36 %
3577 10-01-2020 20:04:17 5.9 C 38 %
3578 10-01-2020 20:14:18 6 C 34 %
3579 10-01-2020 20:24:17 6 C 34 %
3580 10-01-2020 20:34:18 6 C 32 %
3581 10-01-2020 20:44:18 6 C 31 %
3582 10-01-2020 20:54:17 6 C 31 %
3583 10-01-2020 21:04:17 6.1 C 30 %
3584 10-01-2020 21:14:17 5.8 C 31 %
3585 10-01-2020 21:24:17 5.8 C 31 %
3586 10-01-2020 21:34:17 6 C 30 %
3587 10-01-2020 21:44:17 6.2 C 30 %
3588 10-01-2020 21:54:17 6 C 30 %
3589 10-01-2020 22:04:18 6.1 C 30 %
3590 10-01-2020 22:14:18 6.2 C 30 %
3591 10-01-2020 22:24:17 6.2 C 30 %
3592 10-01-2020 22:34:17 6.2 C 30 %
3593 10-01-2020 22:44:17 6.2 C 29 %
3594 10-01-2020 22:54:17 6.1 C 30 %
3595 10-01-2020 23:04:17 6.2 C 30 %
3596 10-01-2020 23:14:17 6.2 C 30 %
3597 10-01-2020 23:24:17 6.1 C 30 %
3598 10-01-2020 23:34:17 5.9 C 30 %
3599 10-01-2020 23:44:17 5.8 C 30 %
3600 10-01-2020 23:54:18 5.8 C 30 %
Sensor: Nr:Datum:Temp:Feuchte:
Aussen-T/F 3601 11-01-2020 00:04:17 5.5 C 30 %
3602 11-01-2020 00:14:17 5.3 C 30 %
3603 11-01-2020 00:24:17 5.4 C 30 %
3604 11-01-2020 00:34:18 5 C 30 %
3605 11-01-2020 00:44:18 4.7 C 32 %
3606 11-01-2020 00:54:17 4.1 C 35 %
3607 11-01-2020 01:04:18 3.5 C 37 %
3608 11-01-2020 01:14:18 3.8 C 39 %
3609 11-01-2020 01:24:17 4.1 C 38 %
3610 11-01-2020 01:34:17 4.3 C 36 %
3611 11-01-2020 01:44:17 4.5 C 36 %
3612 11-01-2020 01:54:17 4.3 C 35 %
3613 11-01-2020 02:04:17 3.7 C 38 %
3614 11-01-2020 02:14:17 3.7 C 39 %
3615 11-01-2020 02:24:17 3.3 C 39 %
3616 11-01-2020 02:34:18 2.7 C 41 %
3617 11-01-2020 02:44:18 2.9 C 42 %
3618 11-01-2020 02:54:17 3.2 C 42 %
3619 11-01-2020 03:04:18 3 C 41 %
3620 11-01-2020 03:14:18 2.6 C 41 %
3621 11-01-2020 03:24:17 2.3 C 44 %
3622 11-01-2020 03:34:17 2.9 C 45 %
3623 11-01-2020 03:44:17 3 C 43 %
3624 11-01-2020 03:54:17 2.9 C 44 %
3625 11-01-2020 04:04:17 2.9 C 44 %
Sensor: Nr:Datum:Temp:Feuchte:
Aussen-T/F 3626 11-01-2020 04:14:17 3 C 43 %
3627 11-01-2020 04:24:17 3.1 C 44 %
3628 11-01-2020 04:34:18 3.4 C 40 %
3629 11-01-2020 04:44:18 3.3 C 40 %
3630 11-01-2020 04:54:17 3.3 C 40 %
3631 11-01-2020 05:04:18 3.1 C 39 %
3632 11-01-2020 05:14:18 2.9 C 40 %
3633 11-01-2020 05:24:17 2.7 C 41 %
3634 11-01-2020 05:34:17 2.7 C 42 %
3635 11-01-2020 05:44:17 3 C 40 %
3636 11-01-2020 05:54:17 3 C 40 %
3637 11-01-2020 06:04:17 2.9 C 40 %
3638 11-01-2020 06:14:17 2.9 C 40 %
3639 11-01-2020 06:24:17 2.9 C 40 %
3640 11-01-2020 06:34:17 2.8 C 40 %
3641 11-01-2020 06:44:18 2.7 C 40 %
3642 11-01-2020 06:54:17 2.7 C 40 %
3643 11-01-2020 07:04:17 2.8 C 40 %
3644 11-01-2020 07:14:17 2.6 C 40 %
3645 11-01-2020 07:24:17 2.4 C 40 %
3646 11-01-2020 07:34:17 2.5 C 41 %
3647 11-01-2020 07:44:18 1.9 C 41 %
3648 11-01-2020 07:54:17 1 C 40 %
3649 11-01-2020 08:04:17 1 C 45 %
3650 11-01-2020 08:14:17 0.6 C 45 %
Sensor: Nr:Datum:Temp:Feuchte:
Aussen-T/F 3651 11-01-2020 08:24:17 0.4 C 45 %
3652 11-01-2020 08:34:17 0.5 C 46 %
3653 11-01-2020 08:44:18 0.9 C 47 %
3654 11-01-2020 08:54:17 0.2 C 45 %
3655 11-01-2020 09:04:17 1 C 46 %
3656 11-01-2020 09:14:17 1 C 45 %
3657 11-01-2020 09:24:17 1.3 C 45 %
3658 11-01-2020 09:34:17 1.8 C 43 %
3659 11-01-2020 09:44:17 1.9 C 40 %
3660 11-01-2020 09:54:18 1.9 C 40 %
3661 11-01-2020 10:04:18 2 C 38 %
3662 11-01-2020 10:14:18 2.2 C 38 %
3663 11-01-2020 10:24:17 2.4 C 38 %
3664 11-01-2020 10:34:17 2.4 C 37 %
3665 11-01-2020 10:44:17 2.5 C 37 %
3666 11-01-2020 10:54:18 2.7 C 38 %
3667 11-01-2020 11:04:17 3.4 C 37 %
3668 11-01-2020 11:14:17 4.1 C 34 %
3669 11-01-2020 11:24:17 4.1 C 32 %
3670 11-01-2020 11:34:18 4.4 C 30 %
3671 11-01-2020 11:44:18 4.9 C 30 %
3672 11-01-2020 11:54:17 5.5 C 29 %
3673 11-01-2020 12:04:17 5.9 C 29 %
3674 11-01-2020 12:14:17 6.2 C 28 %
3675 11-01-2020 12:24:17 6.6 C 23 %
Sensor: Nr:Datum:Temp:Feuchte:
Aussen-T/F 3676 11-01-2020 12:34:18 7 C 20 %
3677 11-01-2020 12:44:18 7 C 20 %
3678 11-01-2020 12:54:17 7.3 C 20 %
3679 11-01-2020 13:04:17 7.2 C 20 %
3680 11-01-2020 13:14:17 7.2 C 20 %
3681 11-01-2020 13:24:18 7 C 20 %
3682 11-01-2020 13:34:17 7 C 20 %
3683 11-01-2020 13:44:17 6.9 C 20 %
3684 11-01-2020 13:54:17 6.8 C 20 %
3685 11-01-2020 14:04:17 6.9 C 20 %
3686 11-01-2020 14:14:18 6.8 C 20 %
3687 11-01-2020 14:24:17 6.8 C 20 %
3688 11-01-2020 14:34:18 6.7 C 20 %
3689 11-01-2020 14:44:18 6.7 C 20 %
3690 11-01-2020 14:54:17 6.6 C 20 %
3691 11-01-2020 15:04:17 6.6 C 20 %
3692 11-01-2020 15:14:17 6.5 C 20 %
3693 11-01-2020 15:24:18 6.6 C 20 %
3694 11-01-2020 15:34:17 6.4 C 20 %
3695 11-01-2020 15:44:17 6.4 C 20 %
3696 11-01-2020 15:54:17 6.6 C 20 %
3697 11-01-2020 16:04:18 6.4 C 20 %
3698 11-01-2020 16:14:18 6.2 C 20 %
3699 11-01-2020 16:24:17 6.2 C 20 %
3700 11-01-2020 16:34:41 6.1 C 20 %
Sensor: Nr:Datum:Temp:Feuchte:
Aussen-T/F 3701 11-01-2020 16:44:41 6.1 C 20 %
3702 11-01-2020 16:54:17 6 C 20 %
3703 11-01-2020 17:04:18 5.9 C 20 %
3704 11-01-2020 17:14:18 5.8 C 20 %
3705 11-01-2020 17:24:17 5.7 C 20 %
3706 11-01-2020 17:34:18 5.2 C 20 %
3707 11-01-2020 17:44:18 5.3 C 20 %
3708 11-01-2020 17:54:17 5 C 23 %
3709 11-01-2020 18:04:17 5.1 C 20 %
3710 11-01-2020 18:14:17 5 C 20 %
3711 11-01-2020 18:24:17 4.5 C 26 %
3712 11-01-2020 18:34:17 4.1 C 27 %
3713 11-01-2020 18:44:17 3.9 C 30 %
3714 11-01-2020 18:54:17 3.8 C 31 %
3715 11-01-2020 19:04:17 3.6 C 31 %
3716 11-01-2020 19:14:17 3 C 33 %
3717 11-01-2020 19:24:17 2.8 C 35 %
3718 11-01-2020 19:34:17 2.7 C 35 %
3719 11-01-2020 19:44:17 2.7 C 34 %
3720 11-01-2020 19:54:17 2.8 C 34 %
3721 11-01-2020 20:04:17 2.5 C 34 %
3722 11-01-2020 20:14:18 2.4 C 35 %
3723 11-01-2020 20:24:17 2.4 C 34 %
3724 11-01-2020 20:34:17 1.9 C 36 %
3725 11-01-2020 20:44:17 2.2 C 36 %
Sensor: Nr:Datum:Temp:Feuchte:
Aussen-T/F 3726 11-01-2020 20:54:17 2.1 C 36 %
3727 11-01-2020 21:04:17 2.1 C 36 %
3728 11-01-2020 21:14:17 1.9 C 37 %
3729 11-01-2020 21:24:17 1.7 C 37 %
3730 11-01-2020 21:34:17 1.5 C 38 %
3731 11-01-2020 21:44:17 1.1 C 40 %
3732 11-01-2020 21:54:17 1.5 C 40 %
3733 11-01-2020 22:04:17 1.3 C 40 %
3734 11-01-2020 22:14:18 1.1 C 40 %
3735 11-01-2020 22:24:17 0.9 C 42 %
3736 11-01-2020 22:34:17 0.8 C 43 %
3737 11-01-2020 22:44:17 1.2 C 41 %
3738 11-01-2020 22:54:17 0.9 C 41 %
3739 11-01-2020 23:04:17 0.9 C 42 %
3740 11-01-2020 23:14:17 1.7 C 39 %
3741 11-01-2020 23:24:17 1.2 C 38 %
3742 11-01-2020 23:34:17 0.8 C 41 %
3743 11-01-2020 23:44:17 0.5 C 42 %
3744 11-01-2020 23:54:17 0.5 C 43 %
3745 12-01-2020 00:04:17 0.7 C 44 %
3746 12-01-2020 00:14:17 1.1 C 42 %
3747 12-01-2020 00:24:17 0.8 C 41 %
3748 12-01-2020 00:34:17 1.3 C 40 %
3749 12-01-2020 00:44:17 0.7 C 41 %
3750 12-01-2020 00:54:17 0.7 C 42 %
Sensor: Nr:Datum:Temp:Feuchte:
Aussen-T/F 3751 12-01-2020 01:04:17 0.7 C 42 %
3752 12-01-2020 01:14:17 0.8 C 43 %
3753 12-01-2020 01:24:17 1.1 C 42 %
3754 12-01-2020 01:34:17 0.8 C 41 %
3755 12-01-2020 01:44:17 1.2 C 40 %
3756 12-01-2020 01:54:17 1.8 C 39 %
3757 12-01-2020 02:04:17 1.7 C 37 %
3758 12-01-2020 02:14:17 1.9 C 36 %
3759 12-01-2020 02:24:17 1.9 C 36 %
3760 12-01-2020 02:34:17 1.8 C 37 %
3761 12-01-2020 02:44:17 1.9 C 35 %
3762 12-01-2020 02:54:17 1.4 C 37 %
3763 12-01-2020 03:04:17 2.2 C 35 %
3764 12-01-2020 03:14:17 1.5 C 37 %
3765 12-01-2020 03:24:17 1.7 C 36 %
3766 12-01-2020 03:34:17 1.4 C 37 %
3767 12-01-2020 03:44:17 1 C 40 %
3768 12-01-2020 03:54:17 1.5 C 41 %
3769 12-01-2020 04:04:17 1.4 C 41 %
3770 12-01-2020 04:14:17 1.5 C 40 %
3771 12-01-2020 04:24:17 1.8 C 41 %
3772 12-01-2020 04:34:17 2.1 C 38 %
3773 12-01-2020 04:44:17 2.3 C 37 %
3774 12-01-2020 04:54:17 2.7 C 35 %
3775 12-01-2020 05:04:17 3 C 33 %
Sensor: Nr:Datum:Temp:Feuchte:
Aussen-T/F 3776 12-01-2020 05:14:18 3.3 C 31 %
3777 12-01-2020 05:24:17 3.2 C 31 %
3778 12-01-2020 05:34:17 3.2 C 31 %
3779 12-01-2020 05:44:17 3.5 C 31 %
3780 12-01-2020 05:54:17 3.6 C 30 %
3781 12-01-2020 06:04:18 3.7 C 30 %
3782 12-01-2020 06:14:18 3.6 C 30 %
3783 12-01-2020 06:24:17 3.6 C 30 %
3784 12-01-2020 06:34:17 3.7 C 30 %
3785 12-01-2020 06:44:17 3.6 C 30 %
3786 12-01-2020 06:54:17 3.7 C 30 %
3787 12-01-2020 07:04:17 3.7 C 30 %
3788 12-01-2020 07:14:17 4.1 C 29 %
3789 12-01-2020 07:24:17 3.7 C 30 %
3790 12-01-2020 07:34:17 3.7 C 30 %
3791 12-01-2020 07:44:17 3.8 C 29 %
3792 12-01-2020 07:54:17 3.8 C 29 %
3793 12-01-2020 08:04:18 3.7 C 29 %
3794 12-01-2020 08:14:18 3.7 C 29 %
3795 12-01-2020 08:24:17 3.7 C 29 %
3796 12-01-2020 08:34:17 4 C 28 %
3797 12-01-2020 08:44:17 4.2 C 27 %
3798 12-01-2020 08:54:17 4.2 C 27 %
3799 12-01-2020 09:04:17 4.2 C 27 %
3800 12-01-2020 09:14:17 4.2 C 27 %
Sensor: Nr:Datum:Temp:Feuchte:
Aussen-T/F 3801 12-01-2020 09:24:17 4.3 C 27 %
3802 12-01-2020 09:34:17 4.5 C 26 %
3803 12-01-2020 09:44:17 4.7 C 26 %
3804 12-01-2020 09:54:17 4.7 C 26 %
3805 12-01-2020 10:04:17 4.8 C 26 %
3806 12-01-2020 10:14:17 4.8 C 26 %
3807 12-01-2020 10:24:17 4.9 C 25 %
3808 12-01-2020 10:34:18 4.9 C 25 %
3809 12-01-2020 10:44:18 4.9 C 25 %
3810 12-01-2020 10:54:17 5 C 25 %
3811 12-01-2020 11:04:17 5.3 C 23 %
3812 12-01-2020 11:14:17 5.3 C 23 %
3813 12-01-2020 11:24:18 5.3 C 23 %
3814 12-01-2020 11:34:17 5.3 C 23 %
3815 12-01-2020 11:44:17 5.3 C 23 %
3816 12-01-2020 11:54:17 5.5 C 23 %
3817 12-01-2020 12:04:18 5.7 C 23 %
3818 12-01-2020 12:14:18 5.8 C 23 %
3819 12-01-2020 12:24:17 6.1 C 21 %
3820 12-01-2020 12:34:17 6.4 C 21 %
3821 12-01-2020 12:44:17 6.1 C 21 %
3822 12-01-2020 12:54:17 6.1 C 21 %
3823 12-01-2020 13:04:18 6.2 C 21 %
3824 12-01-2020 13:14:18 6.3 C 21 %
3825 12-01-2020 13:24:17 6.5 C 21 %
Sensor: Nr:Datum:Temp:Feuchte:
Aussen-T/F 3826 12-01-2020 13:34:17 6.8 C 21 %
3827 12-01-2020 13:44:17 6.7 C 23 %
3828 12-01-2020 13:54:18 6.7 C 23 %
3829 12-01-2020 14:04:17 6.9 C 21 %
3830 12-01-2020 14:14:17 6.8 C 23 %
3831 12-01-2020 14:24:17 6.9 C 23 %
3832 12-01-2020 14:34:18 6.9 C 25 %
3833 12-01-2020 14:44:18 6.8 C 25 %
3834 12-01-2020 14:54:17 6.8 C 25 %
3835 12-01-2020 15:04:17 6.7 C 25 %
3836 12-01-2020 15:14:17 6.8 C 25 %
3837 12-01-2020 15:24:18 6.8 C 25 %
3838 12-01-2020 15:34:17 6.8 C 25 %
3839 12-01-2020 15:44:17 6.7 C 25 %
3840 12-01-2020 15:54:17 6.6 C 25 %
3841 12-01-2020 16:04:18 6.7 C 25 %
3842 12-01-2020 16:14:18 6.5 C 25 %
3843 12-01-2020 16:24:18 6.3 C 26 %
3844 12-01-2020 16:34:17 6.3 C 27 %
3845 12-01-2020 16:44:17 6.1 C 27 %
3846 12-01-2020 16:54:17 6.1 C 27 %
3847 12-01-2020 17:04:18 6.1 C 27 %
3848 12-01-2020 17:14:18 6 C 27 %
3849 12-01-2020 17:24:17 6 C 28 %
3850 12-01-2020 17:34:17 6 C 28 %
Sensor: Nr:Datum:Temp:Feuchte:
Aussen-T/F 3851 12-01-2020 17:44:17 5.9 C 29 %
3852 12-01-2020 17:54:18 5.7 C 30 %
3853 12-01-2020 18:04:18 5.4 C 30 %
3854 12-01-2020 18:14:18 5.5 C 30 %
3855 12-01-2020 18:24:17 5.4 C 30 %
3856 12-01-2020 18:34:17 5.6 C 30 %
3857 12-01-2020 18:44:17 5.6 C 30 %
3858 12-01-2020 18:54:18 5.7 C 30 %
3859 12-01-2020 19:04:17 5 C 31 %
3860 12-01-2020 19:14:17 4.7 C 34 %
3861 12-01-2020 19:24:17 4.9 C 36 %
3862 12-01-2020 19:34:18 5.6 C 33 %
3863 12-01-2020 19:44:18 5.9 C 32 %
3864 12-01-2020 19:54:17 6 C 31 %
3865 12-01-2020 20:04:18 6 C 31 %
3866 12-01-2020 20:14:18 5.9 C 31 %
3867 12-01-2020 20:24:17 5.7 C 32 %
3868 12-01-2020 20:34:17 5.6 C 32 %
3869 12-01-2020 20:44:17 5.8 C 33 %
3870 12-01-2020 20:54:17 6 C 32 %
3871 12-01-2020 21:04:17 6.1 C 32 %
3872 12-01-2020 21:14:17 6.2 C 32 %
3873 12-01-2020 21:24:17 6.2 C 32 %
3874 12-01-2020 21:34:18 6.1 C 32 %
3875 12-01-2020 21:44:18 6.5 C 31 %
Sensor: Nr:Datum:Temp:Feuchte:
Aussen-T/F 3876 12-01-2020 21:54:17 6.5 C 31 %
3877 12-01-2020 22:04:18 6.4 C 31 %
3878 12-01-2020 22:14:18 6.3 C 32 %
3879 12-01-2020 22:24:17 6 C 32 %
3880 12-01-2020 22:34:17 6.3 C 32 %
3881 12-01-2020 22:44:17 6.2 C 33 %
3882 12-01-2020 22:54:17 5.8 C 33 %
3883 12-01-2020 23:04:17 5.6 C 36 %
3884 12-01-2020 23:14:17 5.2 C 35 %
3885 12-01-2020 23:24:17 5 C 39 %
3886 12-01-2020 23:34:18 6 C 35 %
3887 12-01-2020 23:44:18 5.7 C 33 %
3888 12-01-2020 23:54:17 5.9 C 34 %
3889 13-01-2020 00:04:18 6.3 C 32 %
3890 13-01-2020 00:14:18 5.9 C 33 %
3891 13-01-2020 00:24:17 6.4 C 32 %
3892 13-01-2020 00:34:17 6.5 C 32 %
3893 13-01-2020 00:44:17 6.7 C 31 %
3894 13-01-2020 00:54:18 6.4 C 32 %
3895 13-01-2020 01:04:17 6.1 C 36 %
3896 13-01-2020 01:14:17 5.9 C 37 %
3897 13-01-2020 01:24:17 5.7 C 40 %
3898 13-01-2020 01:34:18 5.6 C 41 %
3899 13-01-2020 01:44:18 5.6 C 42 %
3900 13-01-2020 01:54:17 5.7 C 40 %
Sensor: Nr:Datum:Temp:Feuchte:
Aussen-T/F 3901 13-01-2020 02:04:17 5.9 C 39 %
3902 13-01-2020 02:14:17 5.9 C 38 %
3903 13-01-2020 02:24:18 6 C 36 %
3904 13-01-2020 02:34:17 5.7 C 37 %
3905 13-01-2020 02:44:17 5.9 C 37 %
3906 13-01-2020 02:54:17 5.6 C 39 %
3907 13-01-2020 03:04:18 5.6 C 40 %
3908 13-01-2020 03:14:18 5.7 C 39 %
3909 13-01-2020 03:24:17 5.1 C 38 %
3910 13-01-2020 03:34:17 4.7 C 41 %
3911 13-01-2020 03:44:17 4 C 41 %
3912 13-01-2020 03:54:17 4.1 C 42 %
3913 13-01-2020 04:04:17 3.5 C 44 %
3914 13-01-2020 04:14:17 3.5 C 44 %
3915 13-01-2020 04:24:17 4 C 43 %
3916 13-01-2020 04:34:18 4.1 C 43 %
3917 13-01-2020 04:44:18 3.7 C 43 %
3918 13-01-2020 04:54:17 4 C 43 %
3919 13-01-2020 05:04:18 4.3 C 43 %
3920 13-01-2020 05:14:18 4.3 C 42 %
3921 13-01-2020 05:24:18 4.5 C 42 %
3922 13-01-2020 05:34:17 4.6 C 42 %
3923 13-01-2020 05:44:17 4.6 C 42 %
3924 13-01-2020 05:54:17 4.9 C 42 %
3925 13-01-2020 06:04:17 4.9 C 42 %
Sensor: Nr:Datum:Temp:Feuchte:
Aussen-T/F 3926 13-01-2020 06:14:17 4.8 C 40 %
3927 13-01-2020 06:24:17 4.6 C 40 %
3928 13-01-2020 06:34:17 4.2 C 40 %
3929 13-01-2020 06:44:17 4.7 C 41 %
3930 13-01-2020 06:54:17 4.7 C 40 %
3931 13-01-2020 07:04:17 4.4 C 37 %
3932 13-01-2020 07:14:17 4.1 C 38 %
3933 13-01-2020 07:24:18 4.2 C 39 %
3934 13-01-2020 07:34:17 3.9 C 41 %
3935 13-01-2020 07:44:17 3.9 C 42 %
3936 13-01-2020 07:54:17 3.8 C 42 %
3937 13-01-2020 08:04:18 3.9 C 42 %
3938 13-01-2020 08:14:18 4.3 C 40 %
3939 13-01-2020 08:24:17 4.2 C 40 %
3940 13-01-2020 08:34:17 4.7 C 40 %
3941 13-01-2020 08:44:17 4.8 C 38 %
3942 13-01-2020 08:54:17 4.9 C 38 %
3943 13-01-2020 09:04:17 5.2 C 36 %
3944 13-01-2020 09:14:17 5.4 C 35 %
3945 13-01-2020 09:24:17 5.6 C 34 %
3946 13-01-2020 09:34:18 5.7 C 33 %
3947 13-01-2020 09:44:18 5.8 C 33 %
3948 13-01-2020 09:54:18 5.9 C 33 %
3949 13-01-2020 10:04:17 5.9 C 34 %
3950 13-01-2020 10:14:17 6.2 C 32 %
Sensor: Nr:Datum:Temp:Feuchte:
Aussen-T/F 3951 13-01-2020 10:24:17 6.4 C 32 %
3952 13-01-2020 10:34:18 6.7 C 31 %
3953 13-01-2020 10:44:18 6.8 C 31 %
3954 13-01-2020 10:54:17 6.8 C 31 %
3955 13-01-2020 11:04:17 6.9 C 31 %
3956 13-01-2020 11:14:17 7.1 C 30 %
3957 13-01-2020 11:24:17 7.5 C 29 %
3958 13-01-2020 11:34:17 7.8 C 29 %
3959 13-01-2020 11:44:17 7.8 C 29 %
3960 13-01-2020 11:54:17 7.9 C 29 %
3961 13-01-2020 12:04:18 8 C 29 %
3962 13-01-2020 12:14:18 8 C 28 %
3963 13-01-2020 12:24:18 8.1 C 28 %
3964 13-01-2020 12:34:17 8.1 C 28 %
3965 13-01-2020 12:44:18 8.1 C 28 %
3966 13-01-2020 12:54:17 7.8 C 28 %
3967 13-01-2020 13:04:17 7.4 C 30 %
3968 13-01-2020 13:14:17 7.3 C 30 %
3969 13-01-2020 13:24:17 7.3 C 30 %
3970 13-01-2020 13:34:17 7.5 C 30 %
3971 13-01-2020 13:44:17 7.7 C 30 %
3972 13-01-2020 13:54:17 6.9 C 33 %
3973 13-01-2020 14:04:17 6.9 C 36 %
3974 13-01-2020 14:14:17 7 C 36 %
3975 13-01-2020 14:24:17 7.3 C 35 %
Sensor: Nr:Datum:Temp:Feuchte:
Aussen-T/F 3976 13-01-2020 14:34:17 7.3 C 33 %
3977 13-01-2020 14:44:17 7.3 C 31 %
3978 13-01-2020 14:54:17 7 C 30 %
3979 13-01-2020 15:04:18 7.2 C 31 %
3980 13-01-2020 15:14:18 7.5 C 29 %
3981 13-01-2020 15:24:17 7.5 C 28 %
3982 13-01-2020 15:34:17 7.5 C 28 %
3983 13-01-2020 15:44:17 7.4 C 28 %
3984 13-01-2020 15:54:17 7.4 C 27 %
3985 13-01-2020 16:04:17 7.2 C 29 %
3986 13-01-2020 16:14:17 7.1 C 28 %
3987 13-01-2020 16:24:17 7 C 29 %
3988 13-01-2020 16:34:17 6.9 C 30 %
3989 13-01-2020 16:44:17 6.6 C 30 %
3990 13-01-2020 16:54:17 6.7 C 30 %
3991 13-01-2020 17:04:18 6.6 C 31 %
3992 13-01-2020 17:14:18 6.5 C 30 %
3993 13-01-2020 17:24:17 6.2 C 31 %
3994 13-01-2020 17:34:18 5.8 C 32 %
3995 13-01-2020 17:44:18 5.4 C 33 %
3996 13-01-2020 17:54:17 5.3 C 35 %
3997 13-01-2020 18:04:17 5.3 C 36 %
3998 13-01-2020 18:14:17 5.3 C 36 %
3999 13-01-2020 18:24:18 5.6 C 35 %
4000 13-01-2020 18:34:17 5.7 C 34 %
Sensor: Nr:Datum:Temp:Feuchte:
Aussen-T/F 4001 13-01-2020 18:44:17 5.6 C 34 %
4002 13-01-2020 18:54:17 5.3 C 35 %
4003 13-01-2020 19:04:18 5.5 C 35 %
4004 13-01-2020 19:14:18 5.8 C 34 %
4005 13-01-2020 19:24:17 5.9 C 33 %
4006 13-01-2020 19:34:17 6.2 C 31 %
4007 13-01-2020 19:44:17 6.1 C 32 %
4008 13-01-2020 19:54:17 5.6 C 34 %
4009 13-01-2020 20:04:17 5.6 C 35 %
4010 13-01-2020 20:14:17 5.5 C 35 %
4011 13-01-2020 20:24:17 5.5 C 35 %
4012 13-01-2020 20:34:18 5.6 C 35 %
4013 13-01-2020 20:44:18 5.7 C 35 %
4014 13-01-2020 20:54:17 5.7 C 35 %
4015 13-01-2020 21:04:17 5.7 C 35 %
4016 13-01-2020 21:14:17 5.7 C 35 %
4017 13-01-2020 21:24:17 5.4 C 36 %
4018 13-01-2020 21:34:17 5.6 C 37 %
4019 13-01-2020 21:44:17 5.5 C 36 %
4020 13-01-2020 21:54:17 5.4 C 37 %
4021 13-01-2020 22:04:18 5.6 C 37 %
4022 13-01-2020 22:14:18 5.7 C 37 %
4023 13-01-2020 22:24:17 5.9 C 36 %
4024 13-01-2020 22:34:17 6 C 35 %
4025 13-01-2020 22:44:17 6.1 C 34 %
Sensor: Nr:Datum:Temp:Feuchte:
Aussen-T/F 4026 13-01-2020 22:54:18 6.3 C 34 %
4027 13-01-2020 23:04:17 6.2 C 35 %
4028 13-01-2020 23:14:17 6 C 35 %
4029 13-01-2020 23:24:17 6 C 35 %
4030 13-01-2020 23:34:17 6.2 C 35 %
4031 13-01-2020 23:44:17 6.1 C 37 %
4032 13-01-2020 23:54:17 6.3 C 36 %
4033 14-01-2020 00:04:18 6.4 C 36 %
4034 14-01-2020 00:14:18 6.5 C 35 %
4035 14-01-2020 00:24:18 6.7 C 35 %
4036 14-01-2020 00:34:17 6.5 C 35 %
4037 14-01-2020 00:44:17 6.6 C 35 %
4038 14-01-2020 00:54:17 6.5 C 35 %
4039 14-01-2020 01:04:18 6.3 C 36 %
4040 14-01-2020 01:14:18 6 C 36 %
4041 14-01-2020 01:24:17 5.8 C 38 %
4042 14-01-2020 01:34:17 5.6 C 40 %
4043 14-01-2020 01:44:17 6.1 C 37 %
4044 14-01-2020 01:54:17 6 C 36 %
4045 14-01-2020 02:04:17 6.2 C 35 %
4046 14-01-2020 02:14:17 6.5 C 33 %
4047 14-01-2020 02:24:17 6.5 C 32 %
4048 14-01-2020 02:34:18 6.4 C 32 %
4049 14-01-2020 02:44:18 6.3 C 33 %
4050 14-01-2020 02:54:17 6.4 C 32 %
Sensor: Nr:Datum:Temp:Feuchte:
Aussen-T/F 4051 14-01-2020 03:04:17 6.5 C 32 %
4052 14-01-2020 03:14:17 6.7 C 32 %
4053 14-01-2020 03:24:17 6.6 C 31 %
4054 14-01-2020 03:34:17 6.5 C 31 %
4055 14-01-2020 03:44:17 6.7 C 30 %
4056 14-01-2020 03:54:17 7 C 30 %
4057 14-01-2020 04:04:18 7.1 C 30 %
4058 14-01-2020 04:14:18 6.8 C 30 %
4059 14-01-2020 04:24:17 6.7 C 30 %
4060 14-01-2020 04:34:17 6.5 C 31 %
4061 14-01-2020 04:44:17 6.6 C 32 %
4062 14-01-2020 04:54:17 6.6 C 31 %
4063 14-01-2020 05:04:17 7.2 C 29 %
4064 14-01-2020 05:14:17 7.3 C 28 %
4065 14-01-2020 05:24:17 7.6 C 27 %
4066 14-01-2020 05:34:17 7.4 C 28 %
4067 14-01-2020 05:44:17 7.2 C 27 %
4068 14-01-2020 05:54:18 7.2 C 27 %
4069 14-01-2020 06:04:17 7.3 C 27 %
4070 14-01-2020 06:14:17 7.3 C 27 %
4071 14-01-2020 06:24:17 6.9 C 29 %
4072 14-01-2020 06:34:18 7 C 28 %
4073 14-01-2020 06:44:18 7.2 C 27 %
4074 14-01-2020 06:54:17 7.2 C 27 %
4075 14-01-2020 07:04:17 7.3 C 26 %
Sensor: Nr:Datum:Temp:Feuchte:
Aussen-T/F 4076 14-01-2020 07:14:17 6.8 C 28 %
4077 14-01-2020 07:24:17 7 C 27 %
4078 14-01-2020 07:34:18 6.9 C 28 %
4079 14-01-2020 07:44:18 7.1 C 26 %
4080 14-01-2020 07:54:17 7.3 C 26 %
4081 14-01-2020 08:04:17 7.6 C 25 %
4082 14-01-2020 08:14:17 8 C 25 %
4083 14-01-2020 08:24:17 7.9 C 25 %
4084 14-01-2020 08:34:17 7.9 C 25 %
4085 14-01-2020 08:44:17 7.9 C 25 %
4086 14-01-2020 08:54:18 8.1 C 25 %
4087 14-01-2020 09:04:18 8.5 C 23 %
4088 14-01-2020 09:14:18 8.3 C 25 %
4089 14-01-2020 09:24:17 8.6 C 25 %
4090 14-01-2020 09:34:17 8.4 C 25 %
4091 14-01-2020 09:44:17 8.7 C 25 %
4092 14-01-2020 09:54:17 8.9 C 25 %
4093 14-01-2020 10:04:18 9.4 C 21 %
4094 14-01-2020 10:14:18 9.5 C 20 %
4095 14-01-2020 10:24:18 9.2 C 20 %
4096 14-01-2020 10:34:18 9.1 C 20 %
4097 14-01-2020 10:44:18 9.1 C 21 %
4098 14-01-2020 10:54:17 9.2 C 20 %
4099 14-01-2020 11:04:17 9.4 C 20 %
4100 14-01-2020 11:14:17 9.5 C 20 %
Sensor: Nr:Datum:Temp:Feuchte:
Aussen-T/F 4101 14-01-2020 11:24:17 9.8 C 20 %
4102 14-01-2020 11:34:18 9.9 C 20 %
4103 14-01-2020 11:44:18 9.9 C 20 %
4104 14-01-2020 11:54:17 9.7 C 20 %
4105 14-01-2020 12:04:17 9.8 C 20 %
4106 14-01-2020 12:14:17 9.8 C 20 %
4107 14-01-2020 12:24:17 10 C 20 %
4108 14-01-2020 12:34:17 10.1 C 20 %
4109 14-01-2020 12:44:17 10.1 C 20 %
4110 14-01-2020 12:54:18 10.2 C 20 %
4111 14-01-2020 13:04:18 10.2 C 20 %
4112 14-01-2020 13:14:18 10.1 C 20 %
4113 14-01-2020 13:24:18 10.4 C 20 %
4114 14-01-2020 13:34:17 10.5 C 20 %
4115 14-01-2020 13:44:17 10.8 C 20 %
4116 14-01-2020 13:54:17 11.5 C 20 %
4117 14-01-2020 14:04:17 12 C 20 %
4118 14-01-2020 14:14:17 12.1 C 20 %
4119 14-01-2020 14:24:17 12.1 C 20 %
4120 14-01-2020 14:34:17 12 C 20 %
4121 14-01-2020 14:44:17 12 C 20 %
4122 14-01-2020 14:54:17 12 C 20 %
4123 14-01-2020 15:04:17 12.2 C 20 %
4124 14-01-2020 15:14:17 12.2 C 20 %
4125 14-01-2020 15:24:17 12.1 C 20 %
Sensor: Nr:Datum:Temp:Feuchte:
Aussen-T/F 4126 14-01-2020 15:34:18 11.9 C 20 %
4127 14-01-2020 15:44:18 11.5 C 20 %
4128 14-01-2020 15:54:17 11.1 C 20 %
4129 14-01-2020 16:04:18 10.8 C 20 %
4130 14-01-2020 16:14:18 11.1 C 20 %
4131 14-01-2020 16:24:17 10.9 C 20 %
4132 14-01-2020 16:34:18 10.6 C 20 %
4133 14-01-2020 16:44:18 10.7 C 20 %
4134 14-01-2020 16:54:17 10.8 C 20 %
4135 14-01-2020 17:04:17 10.7 C 20 %
4136 14-01-2020 17:14:18 10.7 C 20 %
4137 14-01-2020 17:24:17 10.6 C 20 %
4138 14-01-2020 17:34:17 10.6 C 20 %
4139 14-01-2020 17:44:17 11 C 20 %
4140 14-01-2020 17:54:18 10.7 C 20 %
4141 14-01-2020 18:04:17 10.7 C 20 %
4142 14-01-2020 18:14:17 10.9 C 20 %
4143 14-01-2020 18:24:17 10.4 C 20 %
4144 14-01-2020 18:34:18 10.5 C 20 %
4145 14-01-2020 18:44:18 10.8 C 20 %
4146 14-01-2020 18:54:17 11.1 C 20 %
4147 14-01-2020 19:04:17 11.2 C 20 %
4148 14-01-2020 19:14:17 11 C 20 %
4149 14-01-2020 19:24:17 10.9 C 20 %
4150 14-01-2020 19:34:17 10.9 C 20 %
Sensor: Nr:Datum:Temp:Feuchte:
Aussen-T/F 4151 14-01-2020 19:44:17 11 C 20 %
4152 14-01-2020 19:54:17 10.7 C 20 %
4153 14-01-2020 20:04:18 10.8 C 20 %
4154 14-01-2020 20:14:18 10.8 C 20 %
4155 14-01-2020 20:24:18 11 C 20 %
4156 14-01-2020 20:34:17 11.5 C 20 %
4157 14-01-2020 20:44:17 11.5 C 20 %
4158 14-01-2020 20:54:17 11.5 C 20 %
4159 14-01-2020 21:04:18 11.7 C 20 %
4160 14-01-2020 21:14:18 11.4 C 20 %
4161 14-01-2020 21:24:17 11.6 C 20 %
4162 14-01-2020 21:34:18 12.2 C 20 %
4163 14-01-2020 21:44:18 11.7 C 20 %
4164 14-01-2020 21:54:18 11.5 C 20 %
4165 14-01-2020 22:04:17 11.7 C 20 %
4166 14-01-2020 22:14:17 11.7 C 20 %
4167 14-01-2020 22:24:17 11.4 C 20 %
4168 14-01-2020 22:34:18 11.7 C 20 %
4169 14-01-2020 22:44:18 11.1 C 20 %
4170 14-01-2020 22:54:17 11.3 C 20 %
4171 14-01-2020 23:04:18 11.7 C 20 %
4172 14-01-2020 23:14:18 11.6 C 20 %
4173 14-01-2020 23:24:17 11.8 C 20 %
4174 14-01-2020 23:34:18 11.7 C 20 %
4175 14-01-2020 23:44:18 11.3 C 20 %
Sensor: Nr:Datum:Temp:Feuchte:
Aussen-T/F 4176 14-01-2020 23:54:17 11.2 C 20 %
Sensor: Nr:Datum:Temp:Feuchte:
G-T/H 1 17-12-2019 00:02:17 10.2 C 75 %
2 17-12-2019 00:12:17 10.2 C 75 %
3 17-12-2019 00:22:17 10.3 C 75 %
4 17-12-2019 00:32:18 10.2 C 75 %
5 17-12-2019 00:42:18 10.3 C 75 %
6 17-12-2019 00:52:17 10.2 C 75 %
7 17-12-2019 01:02:17 10.2 C 75 %
8 17-12-2019 01:12:17 10.2 C 75 %
9 17-12-2019 01:22:17 10.3 C 75 %
10 17-12-2019 01:32:17 10.2 C 75 %
11 17-12-2019 01:42:17 10.2 C 75 %
12 17-12-2019 01:52:17 10.3 C 75 %
13 17-12-2019 02:02:18 10.2 C 75 %
14 17-12-2019 02:12:18 10.3 C 75 %
15 17-12-2019 02:22:17 10.3 C 75 %
16 17-12-2019 02:32:17 10.2 C 75 %
17 17-12-2019 02:42:17 10.2 C 75 %
18 17-12-2019 02:52:18 10.3 C 75 %
19 17-12-2019 03:02:17 10.2 C 75 %
20 17-12-2019 03:12:17 10.2 C 75 %
21 17-12-2019 03:22:17 10.2 C 75 %
22 17-12-2019 03:32:17 10.3 C 75 %
23 17-12-2019 03:42:17 10.2 C 75 %
24 17-12-2019 03:52:18 10.3 C 75 %
25 17-12-2019 04:02:17 10.3 C 75 %
Sensor: Nr:Datum:Temp:Feuchte:
G-T/H 26 17-12-2019 04:12:17 10.3 C 75 %
27 17-12-2019 04:22:17 10.2 C 75 %
28 17-12-2019 04:32:17 10.3 C 75 %
29 17-12-2019 04:42:17 10.3 C 75 %
30 17-12-2019 04:52:18 10.2 C 75 %
31 17-12-2019 05:02:17 10.3 C 75 %
32 17-12-2019 05:12:17 10.2 C 75 %
33 17-12-2019 05:22:17 10.3 C 75 %
34 17-12-2019 05:32:17 10.2 C 75 %
35 17-12-2019 05:42:17 10.3 C 75 %
36 17-12-2019 05:52:17 10.3 C 75 %
37 17-12-2019 06:02:17 10.3 C 75 %
38 17-12-2019 06:12:17 10.2 C 75 %
39 17-12-2019 06:22:18 10.3 C 75 %
40 17-12-2019 06:32:17 10.3 C 75 %
41 17-12-2019 06:42:17 10.2 C 75 %
42 17-12-2019 06:52:17 10.3 C 75 %
43 17-12-2019 07:02:17 10.3 C 75 %
44 17-12-2019 07:12:17 10.3 C 75 %
45 17-12-2019 07:22:17 10.3 C 75 %
46 17-12-2019 07:32:18 10.3 C 75 %
47 17-12-2019 07:42:18 10.3 C 75 %
48 17-12-2019 07:52:17 10.2 C 75 %
49 17-12-2019 08:02:17 10.3 C 75 %
50 17-12-2019 08:12:17 10.3 C 75 %
Sensor: Nr:Datum:Temp:Feuchte:
G-T/H 51 17-12-2019 08:22:17 10.2 C 75 %
52 17-12-2019 08:32:17 10.3 C 75 %
53 17-12-2019 08:42:18 10.3 C 75 %
54 17-12-2019 08:52:17 10.3 C 75 %
55 17-12-2019 09:02:17 10.3 C 75 %
56 17-12-2019 09:12:17 10.3 C 75 %
57 17-12-2019 09:22:18 10.3 C 75 %
58 17-12-2019 09:32:17 10.3 C 75 %
59 17-12-2019 09:42:17 10.3 C 75 %
60 17-12-2019 09:52:17 10.3 C 75 %
61 17-12-2019 10:02:18 10.3 C 75 %
62 17-12-2019 10:12:18 10.2 C 75 %
63 17-12-2019 10:22:17 10.3 C 75 %
64 17-12-2019 10:32:17 10.3 C 75 %
65 17-12-2019 10:42:17 10.2 C 75 %
66 17-12-2019 10:52:17 10.3 C 75 %
67 17-12-2019 11:02:17 10.3 C 75 %
68 17-12-2019 11:12:17 10.3 C 75 %
69 17-12-2019 11:22:17 10.3 C 75 %
70 17-12-2019 11:32:17 10.3 C 75 %
71 17-12-2019 11:42:17 10.3 C 75 %
72 17-12-2019 11:52:17 10.3 C 75 %
73 17-12-2019 12:02:17 10.3 C 75 %
74 17-12-2019 12:12:17 10.3 C 75 %
75 17-12-2019 12:22:17 10.3 C 75 %
Sensor: Nr:Datum:Temp:Feuchte:
G-T/H 76 17-12-2019 12:32:17 10.3 C 75 %
77 17-12-2019 12:42:17 10.3 C 75 %
78 17-12-2019 12:52:17 10.3 C 75 %
79 17-12-2019 13:02:17 10.3 C 75 %
80 17-12-2019 13:12:17 10.3 C 75 %
81 17-12-2019 13:22:17 10.3 C 76 %
82 17-12-2019 13:32:17 10.3 C 76 %
83 17-12-2019 13:42:17 10.3 C 76 %
84 17-12-2019 13:52:18 10.3 C 76 %
85 17-12-2019 14:02:17 10.3 C 76 %
86 17-12-2019 14:12:17 10.3 C 76 %
87 17-12-2019 14:22:17 10.3 C 76 %
88 17-12-2019 14:32:17 10.4 C 76 %
89 17-12-2019 14:42:17 10.4 C 76 %
90 17-12-2019 14:52:17 10.4 C 76 %
91 17-12-2019 15:02:17 10.4 C 76 %
92 17-12-2019 15:12:17 10.4 C 76 %
93 17-12-2019 15:22:17 10.4 C 76 %
94 17-12-2019 15:32:17 10.4 C 76 %
95 17-12-2019 15:42:17 10.4 C 76 %
96 17-12-2019 15:52:18 10.4 C 76 %
97 17-12-2019 16:02:17 10.4 C 76 %
98 17-12-2019 16:12:17 10.4 C 76 %
99 17-12-2019 16:22:17 10.4 C 76 %
100 17-12-2019 16:32:18 10.4 C 76 %
Sensor: Nr:Datum:Temp:Feuchte:
G-T/H 101 17-12-2019 16:42:18 10.4 C 76 %
102 17-12-2019 16:52:17 10.4 C 76 %
103 17-12-2019 17:02:17 10.4 C 76 %
104 17-12-2019 17:12:18 10.4 C 76 %
105 17-12-2019 17:22:17 10.4 C 76 %
106 17-12-2019 17:32:18 10.4 C 76 %
107 17-12-2019 17:42:18 10.5 C 76 %
108 17-12-2019 17:52:17 10.5 C 76 %
109 17-12-2019 18:02:17 10.5 C 76 %
110 17-12-2019 18:12:17 10.5 C 76 %
111 17-12-2019 18:22:17 10.5 C 76 %
112 17-12-2019 18:32:17 10.5 C 76 %
113 17-12-2019 18:42:17 10.8 C 76 %
114 17-12-2019 18:52:17 10.9 C 76 %
115 17-12-2019 19:02:17 11 C 76 %
116 17-12-2019 19:12:17 11.1 C 76 %
117 17-12-2019 19:22:17 11 C 75 %
118 17-12-2019 19:32:18 11 C 75 %
119 17-12-2019 19:42:18 10.9 C 76 %
120 17-12-2019 19:52:17 10.9 C 76 %
121 17-12-2019 20:02:18 10.8 C 76 %
122 17-12-2019 20:12:18 10.9 C 76 %
123 17-12-2019 20:22:17 10.8 C 76 %
124 17-12-2019 20:32:17 10.8 C 76 %
125 17-12-2019 20:42:17 10.8 C 76 %
Sensor: Nr:Datum:Temp:Feuchte:
G-T/H 126 17-12-2019 20:52:17 10.8 C 76 %
127 17-12-2019 21:02:17 10.8 C 76 %
128 17-12-2019 21:12:17 10.8 C 76 %
129 17-12-2019 21:22:17 10.8 C 76 %
130 17-12-2019 21:32:17 10.8 C 76 %
131 17-12-2019 21:42:17 10.8 C 76 %
132 17-12-2019 21:52:17 10.9 C 76 %
133 17-12-2019 22:02:17 10.8 C 76 %
134 17-12-2019 22:12:17 10.9 C 76 %
135 17-12-2019 22:22:17 10.9 C 76 %
136 17-12-2019 22:32:17 10.9 C 76 %
137 17-12-2019 22:42:17 10.9 C 76 %
138 17-12-2019 22:52:17 10.9 C 76 %
139 17-12-2019 23:02:17 10.9 C 76 %
140 17-12-2019 23:12:17 10.9 C 77 %
141 17-12-2019 23:22:17 10.9 C 77 %
142 17-12-2019 23:32:17 10.9 C 77 %
143 17-12-2019 23:42:17 11 C 76 %
144 17-12-2019 23:52:17 10.9 C 77 %
145 18-12-2019 00:02:17 11 C 76 %
146 18-12-2019 00:12:17 11 C 76 %
147 18-12-2019 00:22:17 11 C 76 %
148 18-12-2019 00:32:18 11 C 76 %
149 18-12-2019 00:42:18 11 C 76 %
150 18-12-2019 00:52:17 11 C 76 %
Sensor: Nr:Datum:Temp:Feuchte:
G-T/H 151 18-12-2019 01:02:17 11 C 76 %
152 18-12-2019 01:12:17 11 C 76 %
153 18-12-2019 01:22:17 11 C 76 %
154 18-12-2019 01:32:18 11 C 76 %
155 18-12-2019 01:42:18 11 C 76 %
156 18-12-2019 01:52:17 11 C 76 %
157 18-12-2019 02:02:17 11 C 76 %
158 18-12-2019 02:12:17 11 C 76 %
159 18-12-2019 02:22:17 11.1 C 76 %
160 18-12-2019 02:32:17 11 C 76 %
161 18-12-2019 02:42:18 11 C 76 %
162 18-12-2019 02:52:17 11.1 C 76 %
163 18-12-2019 03:02:17 11 C 76 %
164 18-12-2019 03:12:17 11.1 C 76 %
165 18-12-2019 03:22:18 11.1 C 76 %
166 18-12-2019 03:32:17 11.1 C 76 %
167 18-12-2019 03:42:17 11.1 C 76 %
168 18-12-2019 03:52:18 11.1 C 76 %
169 18-12-2019 04:02:18 11.1 C 76 %
170 18-12-2019 04:12:18 11.1 C 76 %
171 18-12-2019 04:22:17 11.1 C 76 %
172 18-12-2019 04:32:18 11.1 C 76 %
173 18-12-2019 04:42:18 11.1 C 76 %
174 18-12-2019 04:52:17 11.1 C 76 %
175 18-12-2019 05:02:18 11.1 C 76 %
Sensor: Nr:Datum:Temp:Feuchte:
G-T/H 176 18-12-2019 05:12:18 11.1 C 76 %
177 18-12-2019 05:22:17 11.1 C 76 %
178 18-12-2019 05:32:17 11.1 C 76 %
179 18-12-2019 05:42:17 11.1 C 76 %
180 18-12-2019 05:52:17 11.1 C 76 %
181 18-12-2019 06:02:18 11.1 C 76 %
182 18-12-2019 06:12:18 11.1 C 76 %
183 18-12-2019 06:22:17 11.1 C 76 %
184 18-12-2019 06:32:18 11.1 C 76 %
185 18-12-2019 06:42:18 11.1 C 76 %
186 18-12-2019 06:52:17 11.1 C 76 %
187 18-12-2019 07:02:17 11.1 C 76 %
188 18-12-2019 07:12:17 11.1 C 76 %
189 18-12-2019 07:22:17 11.1 C 76 %
190 18-12-2019 07:32:17 11.1 C 76 %
191 18-12-2019 07:42:17 11.1 C 76 %
192 18-12-2019 07:52:17 11.1 C 76 %
193 18-12-2019 08:02:17 11.1 C 76 %
194 18-12-2019 08:12:17 11.1 C 76 %
195 18-12-2019 08:22:17 11.1 C 76 %
196 18-12-2019 08:32:17 11.1 C 76 %
197 18-12-2019 08:42:17 11.1 C 76 %
198 18-12-2019 08:52:17 11.1 C 76 %
199 18-12-2019 09:02:17 11.1 C 76 %
200 18-12-2019 09:12:17 11.1 C 76 %
Sensor: Nr:Datum:Temp:Feuchte:
G-T/H 201 18-12-2019 09:22:17 11.1 C 76 %
202 18-12-2019 09:32:17 11.1 C 76 %
203 18-12-2019 09:42:17 11.1 C 76 %
204 18-12-2019 09:52:17 11.1 C 76 %
205 18-12-2019 10:02:17 11.1 C 76 %
206 18-12-2019 10:12:18 11.1 C 76 %
207 18-12-2019 10:22:17 11.1 C 76 %
208 18-12-2019 10:32:17 11.1 C 76 %
209 18-12-2019 10:42:17 11.1 C 76 %
210 18-12-2019 10:52:17 11.1 C 76 %
211 18-12-2019 11:02:17 11.1 C 76 %
212 18-12-2019 11:12:17 11.1 C 76 %
213 18-12-2019 11:22:17 11.1 C 76 %
214 18-12-2019 11:32:18 11 C 76 %
215 18-12-2019 11:42:18 11.1 C 76 %
216 18-12-2019 11:52:17 11 C 76 %
217 18-12-2019 12:02:17 11.1 C 76 %
218 18-12-2019 12:12:17 11.1 C 76 %
219 18-12-2019 12:22:17 11.1 C 76 %
220 18-12-2019 12:32:17 11 C 76 %
221 18-12-2019 12:42:17 11.1 C 76 %
222 18-12-2019 12:52:17 11.1 C 76 %
223 18-12-2019 13:02:17 11.1 C 76 %
224 18-12-2019 13:12:17 11 C 76 %
225 18-12-2019 13:22:17 11 C 76 %
Sensor: Nr:Datum:Temp:Feuchte:
G-T/H 226 18-12-2019 13:32:18 11 C 76 %
227 18-12-2019 13:42:18 11 C 76 %
228 18-12-2019 13:52:17 11 C 76 %
229 18-12-2019 14:02:18 11 C 76 %
230 18-12-2019 14:12:18 11 C 75 %
231 18-12-2019 14:22:17 11 C 75 %
232 18-12-2019 14:32:17 11 C 75 %
233 18-12-2019 14:42:17 11 C 75 %
234 18-12-2019 14:52:17 10.9 C 76 %
235 18-12-2019 15:02:17 11 C 75 %
236 18-12-2019 15:12:17 11 C 75 %
237 18-12-2019 15:22:17 11 C 75 %
238 18-12-2019 15:32:17 11 C 75 %
239 18-12-2019 15:42:17 11 C 75 %
240 18-12-2019 15:52:17 10.9 C 76 %
241 18-12-2019 16:02:17 10.9 C 76 %
242 18-12-2019 16:12:17 10.9 C 76 %
243 18-12-2019 16:22:17 10.9 C 76 %
244 18-12-2019 16:32:17 10.9 C 76 %
245 18-12-2019 16:42:17 10.9 C 76 %
246 18-12-2019 16:52:17 10.8 C 76 %
247 18-12-2019 17:02:17 10.8 C 76 %
248 18-12-2019 17:12:17 10.8 C 75 %
249 18-12-2019 17:22:17 10.8 C 75 %
250 18-12-2019 17:32:17 10.8 C 75 %
Sensor: Nr:Datum:Temp:Feuchte:
G-T/H 251 18-12-2019 17:42:17 10.8 C 75 %
252 18-12-2019 17:52:18 10.8 C 75 %
253 18-12-2019 18:02:17 10.8 C 75 %
254 18-12-2019 18:12:17 10.8 C 75 %
255 18-12-2019 18:22:17 10.8 C 75 %
256 18-12-2019 18:32:17 10.8 C 75 %
257 18-12-2019 18:42:17 10.7 C 75 %
258 18-12-2019 18:52:17 10.7 C 75 %
259 18-12-2019 19:02:17 10.7 C 75 %
260 18-12-2019 19:12:17 10.7 C 75 %
261 18-12-2019 19:22:17 10.7 C 75 %
262 18-12-2019 19:32:18 10.7 C 75 %
263 18-12-2019 19:42:18 10.7 C 75 %
264 18-12-2019 19:52:17 10.7 C 75 %
265 18-12-2019 20:02:17 10.7 C 75 %
266 18-12-2019 20:12:17 10.7 C 75 %
267 18-12-2019 20:22:17 10.7 C 75 %
268 18-12-2019 20:32:17 10.7 C 75 %
269 18-12-2019 20:42:18 10.7 C 75 %
270 18-12-2019 20:52:17 10.7 C 75 %
271 18-12-2019 21:02:17 10.6 C 74 %
272 18-12-2019 21:12:17 10.6 C 74 %
273 18-12-2019 21:22:17 10.6 C 74 %
274 18-12-2019 21:32:17 10.6 C 74 %
275 18-12-2019 21:42:17 10.6 C 74 %
Sensor: Nr:Datum:Temp:Feuchte:
G-T/H 276 18-12-2019 21:52:17 10.6 C 74 %
277 18-12-2019 22:02:17 10.5 C 74 %
278 18-12-2019 22:12:17 10.5 C 74 %
279 18-12-2019 22:22:17 10.5 C 74 %
280 18-12-2019 22:32:17 10.4 C 74 %
281 18-12-2019 22:42:17 10.4 C 74 %
282 18-12-2019 22:52:17 10.4 C 74 %
283 18-12-2019 23:02:17 10.4 C 73 %
284 18-12-2019 23:12:17 10.4 C 73 %
285 18-12-2019 23:22:18 10.4 C 73 %
286 18-12-2019 23:32:17 10.3 C 73 %
287 18-12-2019 23:42:17 10.3 C 73 %
288 18-12-2019 23:52:17 10.3 C 73 %
289 19-12-2019 00:02:18 10.2 C 73 %
290 19-12-2019 00:12:18 10.2 C 73 %
291 19-12-2019 00:22:17 10.2 C 73 %
292 19-12-2019 00:32:17 10.2 C 72 %
293 19-12-2019 00:42:17 10.2 C 72 %
294 19-12-2019 00:52:18 10.2 C 72 %
295 19-12-2019 01:02:17 10.2 C 72 %
296 19-12-2019 01:12:17 10.2 C 72 %
297 19-12-2019 01:22:17 10.1 C 72 %
298 19-12-2019 01:32:18 10.1 C 72 %
299 19-12-2019 01:42:18 10.1 C 72 %
300 19-12-2019 01:52:17 10.1 C 72 %
Sensor: Nr:Datum:Temp:Feuchte:
G-T/H 301 19-12-2019 02:02:17 10.1 C 72 %
302 19-12-2019 02:12:17 10.1 C 72 %
303 19-12-2019 02:22:17 10 C 72 %
304 19-12-2019 02:32:18 10 C 72 %
305 19-12-2019 02:42:18 10 C 72 %
306 19-12-2019 02:52:17 10 C 72 %
307 19-12-2019 03:02:18 10 C 71 %
308 19-12-2019 03:12:18 10 C 71 %
309 19-12-2019 03:22:17 10 C 71 %
310 19-12-2019 03:32:17 9.9 C 72 %
311 19-12-2019 03:42:17 9.9 C 72 %
312 19-12-2019 03:52:17 9.9 C 72 %
313 19-12-2019 04:02:17 9.9 C 72 %
314 19-12-2019 04:12:17 9.9 C 72 %
315 19-12-2019 04:22:18 9.9 C 72 %
316 19-12-2019 04:32:17 9.9 C 72 %
317 19-12-2019 04:42:17 9.9 C 72 %
318 19-12-2019 04:52:18 9.9 C 72 %
319 19-12-2019 05:02:17 9.9 C 72 %
320 19-12-2019 05:12:17 9.9 C 73 %
321 19-12-2019 05:22:17 9.9 C 73 %
322 19-12-2019 05:32:17 9.9 C 73 %
323 19-12-2019 05:42:17 9.8 C 73 %
324 19-12-2019 05:52:17 9.8 C 73 %
325 19-12-2019 06:02:17 9.8 C 73 %
Sensor: Nr:Datum:Temp:Feuchte:
G-T/H 326 19-12-2019 06:12:17 9.8 C 73 %
327 19-12-2019 06:22:17 9.8 C 73 %
328 19-12-2019 06:32:17 9.8 C 73 %
329 19-12-2019 06:42:18 9.8 C 73 %
330 19-12-2019 06:52:17 9.8 C 73 %
331 19-12-2019 07:02:17 9.8 C 73 %
332 19-12-2019 07:12:17 9.8 C 73 %
333 19-12-2019 07:22:17 9.8 C 73 %
334 19-12-2019 07:32:17 9.7 C 73 %
335 19-12-2019 07:42:18 9.8 C 73 %
336 19-12-2019 07:52:17 9.8 C 73 %
337 19-12-2019 08:02:18 9.8 C 73 %
338 19-12-2019 08:12:18 9.7 C 73 %
339 19-12-2019 08:22:17 9.7 C 73 %
340 19-12-2019 08:32:18 9.7 C 73 %
341 19-12-2019 08:42:18 9.7 C 73 %
342 19-12-2019 08:52:17 9.7 C 73 %
343 19-12-2019 09:02:17 9.7 C 73 %
344 19-12-2019 09:12:17 9.7 C 73 %
345 19-12-2019 09:22:17 9.7 C 73 %
346 19-12-2019 09:32:17 9.7 C 73 %
347 19-12-2019 09:42:17 9.7 C 73 %
348 19-12-2019 09:52:17 9.7 C 73 %
349 19-12-2019 10:02:17 9.7 C 73 %
350 19-12-2019 10:12:17 9.7 C 73 %
Sensor: Nr:Datum:Temp:Feuchte:
G-T/H 351 19-12-2019 10:22:17 9.6 C 73 %
352 19-12-2019 10:32:17 9.7 C 73 %
353 19-12-2019 10:42:17 9.7 C 73 %
354 19-12-2019 10:52:18 9.6 C 73 %
355 19-12-2019 11:02:17 9.6 C 74 %
356 19-12-2019 11:12:17 9.6 C 74 %
357 19-12-2019 11:22:17 9.7 C 74 %
358 19-12-2019 11:32:17 9.7 C 74 %
359 19-12-2019 11:42:17 9.7 C 74 %
360 19-12-2019 11:52:18 9.7 C 74 %
361 19-12-2019 12:02:17 9.7 C 74 %
362 19-12-2019 12:12:17 9.6 C 74 %
363 19-12-2019 12:22:17 9.7 C 74 %
364 19-12-2019 12:32:17 9.6 C 74 %
365 19-12-2019 12:42:17 9.6 C 74 %
366 19-12-2019 12:52:17 9.6 C 74 %
367 19-12-2019 13:02:17 9.6 C 74 %
368 19-12-2019 13:12:17 9.6 C 74 %
369 19-12-2019 13:22:17 9.6 C 74 %
370 19-12-2019 13:32:17 9.6 C 74 %
371 19-12-2019 13:42:17 9.6 C 74 %
372 19-12-2019 13:52:17 9.6 C 74 %
373 19-12-2019 14:02:17 9.6 C 74 %
374 19-12-2019 14:12:17 9.7 C 74 %
375 19-12-2019 14:22:17 9.6 C 74 %
Sensor: Nr:Datum:Temp:Feuchte:
G-T/H 376 19-12-2019 14:32:17 9.7 C 74 %
377 19-12-2019 14:42:17 9.6 C 74 %
378 19-12-2019 14:52:17 9.6 C 74 %
379 19-12-2019 15:02:17 9.6 C 74 %
380 19-12-2019 15:12:17 9.7 C 74 %
381 19-12-2019 15:22:17 9.6 C 74 %
382 19-12-2019 15:32:18 9.6 C 74 %
383 19-12-2019 15:42:18 9.6 C 74 %
384 19-12-2019 15:52:17 9.7 C 75 %
385 19-12-2019 16:02:17 9.7 C 75 %
386 19-12-2019 16:12:17 9.6 C 75 %
387 19-12-2019 16:22:18 9.6 C 75 %
388 19-12-2019 16:32:17 9.7 C 75 %
389 19-12-2019 16:42:17 9.7 C 75 %
390 19-12-2019 16:52:17 9.7 C 75 %
391 19-12-2019 17:02:17 9.7 C 75 %
392 19-12-2019 17:12:17 9.7 C 75 %
393 19-12-2019 17:22:17 9.7 C 75 %
394 19-12-2019 17:32:17 9.7 C 75 %
395 19-12-2019 17:42:17 9.7 C 75 %
396 19-12-2019 17:52:17 9.7 C 75 %
397 19-12-2019 18:02:17 9.7 C 75 %
398 19-12-2019 18:12:18 9.7 C 75 %
399 19-12-2019 18:22:17 9.7 C 75 %
400 19-12-2019 18:32:17 9.7 C 75 %
Sensor: Nr:Datum:Temp:Feuchte:
G-T/H 401 19-12-2019 18:42:17 9.7 C 75 %
402 19-12-2019 18:52:18 9.7 C 75 %
403 19-12-2019 19:02:17 9.6 C 75 %
404 19-12-2019 19:12:17 9.7 C 75 %
405 19-12-2019 19:22:18 9.7 C 75 %
406 19-12-2019 19:32:17 9.7 C 75 %
407 19-12-2019 19:42:17 9.7 C 75 %
408 19-12-2019 19:52:17 9.7 C 75 %
409 19-12-2019 20:02:17 9.7 C 75 %
410 19-12-2019 20:12:17 9.7 C 75 %
411 19-12-2019 20:22:17 9.7 C 75 %
412 19-12-2019 20:32:17 9.7 C 75 %
413 19-12-2019 20:42:17 9.7 C 75 %
414 19-12-2019 20:52:17 9.7 C 75 %
415 19-12-2019 21:02:17 9.7 C 75 %
416 19-12-2019 21:12:18 9.7 C 75 %
417 19-12-2019 21:22:17 9.7 C 75 %
418 19-12-2019 21:32:17 9.7 C 75 %
419 19-12-2019 21:42:17 9.7 C 75 %
420 19-12-2019 21:52:17 9.7 C 75 %
421 19-12-2019 22:02:17 9.6 C 75 %
422 19-12-2019 22:12:17 9.6 C 75 %
423 19-12-2019 22:22:18 9.7 C 75 %
424 19-12-2019 22:32:18 9.7 C 75 %
425 19-12-2019 22:42:18 9.6 C 75 %
Sensor: Nr:Datum:Temp:Feuchte:
G-T/H 426 19-12-2019 22:52:17 9.7 C 75 %
427 19-12-2019 23:02:17 9.7 C 75 %
428 19-12-2019 23:12:17 9.7 C 75 %
429 19-12-2019 23:22:17 9.7 C 75 %
430 19-12-2019 23:32:17 9.7 C 75 %
431 19-12-2019 23:42:17 9.7 C 75 %
432 19-12-2019 23:52:17 9.6 C 75 %
433 20-12-2019 00:02:17 9.7 C 75 %
434 20-12-2019 00:12:17 9.7 C 75 %
435 20-12-2019 00:22:17 9.7 C 75 %
436 20-12-2019 00:32:17 9.6 C 75 %
437 20-12-2019 00:42:17 9.6 C 75 %
438 20-12-2019 00:52:17 9.6 C 75 %
439 20-12-2019 01:02:17 9.6 C 75 %
440 20-12-2019 01:12:17 9.6 C 75 %
441 20-12-2019 01:22:17 9.6 C 75 %
442 20-12-2019 01:32:17 9.6 C 75 %
443 20-12-2019 01:42:17 9.6 C 75 %
444 20-12-2019 01:52:17 9.7 C 74 %
445 20-12-2019 02:02:17 9.6 C 74 %
446 20-12-2019 02:12:17 9.6 C 74 %
447 20-12-2019 02:22:17 9.6 C 74 %
448 20-12-2019 02:32:18 9.6 C 74 %
449 20-12-2019 02:42:18 9.6 C 74 %
450 20-12-2019 02:52:17 9.6 C 74 %
Sensor: Nr:Datum:Temp:Feuchte:
G-T/H 451 20-12-2019 03:02:17 9.6 C 74 %
452 20-12-2019 03:12:17 9.6 C 74 %
453 20-12-2019 03:22:17 9.6 C 74 %
454 20-12-2019 03:32:17 9.6 C 74 %
455 20-12-2019 03:42:17 9.6 C 74 %
456 20-12-2019 03:52:17 9.6 C 74 %
457 20-12-2019 04:02:17 9.6 C 74 %
458 20-12-2019 04:12:17 9.5 C 74 %
459 20-12-2019 04:22:17 9.6 C 74 %
460 20-12-2019 04:32:18 9.6 C 74 %
461 20-12-2019 04:42:18 9.6 C 74 %
462 20-12-2019 04:52:17 9.6 C 74 %
463 20-12-2019 05:02:17 9.6 C 74 %
464 20-12-2019 05:12:17 9.6 C 74 %
465 20-12-2019 05:22:17 9.6 C 74 %
466 20-12-2019 05:32:17 9.5 C 74 %
467 20-12-2019 05:42:17 9.5 C 74 %
468 20-12-2019 05:52:18 9.5 C 74 %
469 20-12-2019 06:02:18 9.5 C 74 %
470 20-12-2019 06:12:18 9.5 C 74 %
471 20-12-2019 06:22:17 9.5 C 74 %
472 20-12-2019 06:32:17 9.5 C 74 %
473 20-12-2019 06:42:17 9.5 C 74 %
474 20-12-2019 06:52:17 9.6 C 74 %
475 20-12-2019 07:02:17 9.5 C 74 %
Sensor: Nr:Datum:Temp:Feuchte:
G-T/H 476 20-12-2019 07:12:17 9.6 C 74 %
477 20-12-2019 07:22:17 9.5 C 74 %
478 20-12-2019 07:32:17 9.5 C 74 %
479 20-12-2019 07:42:17 9.5 C 74 %
480 20-12-2019 07:52:17 9.5 C 74 %
481 20-12-2019 08:02:17 9.5 C 74 %
482 20-12-2019 08:12:17 9.5 C 74 %
483 20-12-2019 08:22:17 9.5 C 74 %
484 20-12-2019 08:32:18 9.5 C 75 %
485 20-12-2019 08:42:18 9.5 C 75 %
486 20-12-2019 08:52:17 9.5 C 75 %
487 20-12-2019 09:02:17 9.5 C 75 %
488 20-12-2019 09:12:17 9.5 C 75 %
489 20-12-2019 09:22:17 9.5 C 75 %
490 20-12-2019 09:32:17 9.5 C 75 %
491 20-12-2019 09:42:17 9.6 C 75 %
492 20-12-2019 09:52:17 9.5 C 75 %
493 20-12-2019 10:02:17 9.6 C 75 %
494 20-12-2019 10:12:17 9.5 C 75 %
495 20-12-2019 10:22:17 9.5 C 75 %
496 20-12-2019 10:32:17 9.5 C 75 %
497 20-12-2019 10:42:17 9.5 C 75 %
498 20-12-2019 10:52:17 9.6 C 75 %
499 20-12-2019 11:02:17 9.6 C 75 %
500 20-12-2019 11:12:17 9.6 C 75 %
Sensor: Nr:Datum:Temp:Feuchte:
G-T/H 501 20-12-2019 11:22:17 9.5 C 75 %
502 20-12-2019 11:32:17 9.6 C 75 %
503 20-12-2019 11:42:17 9.6 C 75 %
504 20-12-2019 11:52:17 9.6 C 75 %
505 20-12-2019 12:02:18 9.6 C 75 %
506 20-12-2019 12:12:18 9.5 C 75 %